[[{"header":{"parameterUnit":"m.s-1","parameterCategory":1,"la1":31.0,"la2":29.5877,"lo1":-88.7671,"lo2":-86.6584,"dy":0.0162,"dx":0.0185,"nx":115,"ny":88,"refTime":"2023-03-20T06:00:00:Z","depth":0,"parameterNumber":2,"parameterNumberName":"U-component_of_WINDS"},"data":[0.0,0.0,0.0,0.0,0.0,0.0,0.0,0.0,0.0,0.0,0.0,0.0,0.0,0.0,0.0,0.0,0.0,0.0,0.0,0.0,0.0,0.0,0.0,0.0,0.0,0.0,0.0,0.0,0.0,0.0,0.0,0.0,0.0,0.0,0.0,0.0,0.0,0.0,0.0,0.0,0.0,0.0,0.0,0.0,0.0,0.0,0.0,0.0,0.0,0.0,0.0,0.0,0.0,0.0,0.0,0.0,0.0,0.0,0.0,0.0,0.0,0.0,0.0,0.0,0.0,0.0,0.0,0.0,0.0,0.0,0.0,0.0,0.0,0.0,0.0,0.0,0.0,0.0,0.0,0.0,0.0,0.0,0.0,0.0,0.0,0.0,0.0,0.0,0.0,0.0,0.0,0.0,0.0,0.0,0.0,0.0,0.0,0.0,0.0,0.0,0.0,0.0,0.0,0.0,0.0,0.0,0.0,0.0,0.0,0.0,0.0,0.0,0.0,0.0,0.0,0.0,0.0,0.0,0.0,0.0,0.0,0.0,0.0,0.0,0.0,0.0,0.0,0.0,0.0,0.0,0.0,0.0,0.0,0.0,0.0,0.0,0.0,0.0,0.0,0.0,0.0,0.0,0.0,0.0,0.0,0.0,0.0,0.0,0.0,0.0,0.0,0.0,0.0,0.0,0.0,0.0,0.0,0.0,0.0,0.0,0.0,0.0,0.0,0.0,0.0,0.0,0.0,0.0,0.0,0.0,0.0,0.0,0.0,0.0,0.0,0.0,0.0,0.0,0.0,0.0,0.0,0.0,0.0,0.0,0.0,0.0,0.0,0.0,0.0,0.0,0.0,0.0,0.0,0.0,0.0,0.0,0.0,0.0,0.0,0.0,0.0,0.0,0.0,0.0,0.0,0.0,0.0,0.0,0.0,0.0,0.0,0.0,0.0,0.0,0.0,0.0,0.0,0.0,0.0,0.0,0.0,0.0,0.0,0.0,0.0,0.0,0.0,0.0,0.0,0.0,0.0,0.0,0.0,0.0,0.0,0.0,0.0,0.0,0.0,0.0,0.0,0.0,0.0,0.0,0.0,0.0,0.0,0.0,0.0,0.0,0.0,0.0,0.0,0.0,0.0,0.0,0.0,0.0,0.0,0.0,0.0,0.0,0.0,0.0,0.0,0.0,0.0,0.0,0.0,0.0,0.0,0.0,0.0,0.0,0.0,0.0,0.0,0.0,0.0,0.0,0.0,0.0,0.0,0.0,0.0,0.0,0.0,0.0,0.0,0.0,0.0,0.0,0.0,0.0,0.0,0.0,0.0,0.0,0.0,0.0,0.0,0.0,0.0,0.0,0.0,0.0,0.0,0.0,0.0,0.0,0.0,0.0,0.0,0.0,0.0,0.0,0.0,0.0,0.0,0.0,0.0,0.0,0.0,0.0,0.0,0.0,0.0,0.0,0.0,0.0,0.0,0.0,0.0,0.0,0.0,0.0,0.0,0.0,0.0,0.0,0.0,0.0,0.0,0.0,0.0,0.0,0.0,0.0,0.0,0.0,0.0,0.0,0.0,0.0,0.0,0.0,0.0,0.0,0.0,0.0,0.0,0.0,0.0,0.0,0.0,0.0,0.0,0.0,0.0,0.0,0.0,0.0,0.0,0.0,0.0,0.0,0.0,0.0,0.0,0.0,0.0,0.0,0.0,0.0,0.0,0.0,0.0,0.0,0.0,0.0,0.0,0.0,0.0,0.0,0.0,0.0,0.0,0.0,0.0,0.0,0.0,0.0,0.0,0.0,0.0,0.0,0.0,0.0,0.0,0.0,0.0,0.0,0.0,0.0,0.0,0.0,0.0,0.0,0.0,0.0,0.0,0.0,0.0,0.0,0.0,0.0,0.0,0.0,0.0,0.0,0.0,0.0,0.0,0.0,0.0,0.0,0.0,0.0,0.0,0.0,0.0,0.0,0.0,0.0,0.0,0.0,0.0,0.0,0.0,0.0,0.0,0.0,0.0,0.0,0.0,0.0,0.0,0.0,0.0,0.0,0.0,0.0,0.0,0.0,0.0,0.0,0.0,0.0,0.0,0.0,0.0,0.0,0.0,0.0,0.0,0.0,0.0,0.0,0.0,0.0,0.0,0.0,0.0,0.0,0.0,0.0,0.0,0.0,0.0,0.0,0.0,0.0,0.0,0.0,0.0,0.0,0.0,0.0,0.0,0.0,0.0,0.0,0.0,0.0,0.0,0.0,0.0,0.0,0.0,0.0,0.0,0.0,0.0,0.0,0.0,0.0,0.0,0.0,0.0,0.0,0.0,0.0,0.0,0.0,0.0,0.0,0.0,0.0,0.0,0.0,0.0,0.0,0.0,0.0,0.0,0.0,0.0,0.0,0.0,0.0,0.0,0.0,0.0,0.0,0.0,0.0,0.0,0.0,0.0,0.0,0.0,0.0,0.0,0.0,0.0,0.0,0.0,0.0,0.0,0.0,0.0,0.0,0.0,0.0,0.0,0.0,0.0,0.0,0.0,0.0,0.0,0.0,0.0,0.0,0.0,0.0,0.0,0.0,0.0,0.0,0.0,0.0,0.0,0.0,0.0,0.0,0.0,0.0,0.0,0.0,0.0,0.0,0.0,0.0,0.0,0.0,0.0,0.0,0.0,0.0,0.0,0.0,0.0,0.0,0.0,0.0,0.0,0.0,0.0,0.0,0.0,0.0,0.0,0.0,0.0,0.0,0.0,0.0,0.0,0.0,0.0,0.0,0.0,0.0,0.0,0.0,0.0,0.0,0.0,0.0,0.0,0.0,0.0,0.0,0.0,0.0,0.0,0.0,0.0,0.0,0.0,0.0,0.0,0.0,0.0,0.0,0.0,0.0,0.0,0.0,0.0,0.0,0.0,0.0,0.0,0.0,0.0,0.0,0.0,0.0,0.0,0.0,0.0,0.0,0.0,0.0,0.0,0.0,0.0,0.0,0.0,0.0,0.0,0.0,0.0,0.0,0.0,0.0,0.0,0.0,0.0,0.0,0.0,0.0,0.0,0.0,0.0,0.0,0.0,0.0,0.0,0.0,0.0,0.0,0.0,0.0,0.0,0.0,0.0,0.0,0.0,0.0,0.0,0.0,0.0,0.0,0.0,0.0,0.0,0.0,0.0,0.0,0.0,0.0,0.0,0.0,0.0,0.0,0.0,0.0,0.0,0.0,0.0,0.0,0.0,0.0,0.0,0.0,0.0,0.0,0.0,0.0,0.0,0.0,0.0,0.0,0.0,0.0,0.0,0.0,0.0,0.0,0.0,0.0,0.0,0.0,0.0,0.0,0.0,0.0,0.0,0.0,0.0,0.0,0.0,0.0,0.0,0.0,0.0,0.0,0.0,0.0,0.0,0.0,0.0,0.0,0.0,0.0,0.0,0.0,0.0,0.0,0.0,0.0,0.0,0.0,0.0,0.0,0.0,0.0,0.0,0.0,0.0,0.0,0.0,0.0,0.0,0.0,0.0,0.0,0.0,0.0,0.0,0.0,0.0,0.0,0.0,0.0,0.0,0.0,0.0,0.0,0.0,0.0,0.0,0.0,0.0,0.0,0.0,0.0,0.0,0.0,0.0,0.0,0.0,0.0,0.0,0.0,0.0,0.0,0.0,0.0,0.0,0.0,0.0,0.0,0.0,0.0,0.0,0.0,0.0,0.0,0.0,0.0,0.0,0.0,0.0,0.0,0.0,0.0,0.0,0.0,0.0,0.0,0.0,0.0,0.0,0.0,0.0,0.0,0.0,0.0,0.0,0.0,0.0,0.0,0.0,0.0,0.0,0.0,0.0,0.0,0.0,0.0,0.0,0.0,0.0,0.0,0.0,0.0,0.0,0.0,0.0,0.0,0.0,0.0,0.0,0.0,0.0,0.0,0.0,0.0,0.0,0.0,0.0,0.0,0.0,0.0,0.0,0.0,0.0,0.0,0.0,0.0,0.0,0.0,0.0,0.0,0.0,0.0,0.0,0.0,0.0,0.0,0.0,0.0,0.0,0.0,0.0,0.0,0.0,0.0,0.0,0.0,0.0,0.0,0.0,0.0,0.0,0.0,0.0,0.0,0.0,0.0,0.0,0.0,0.0,0.0,0.0,0.0,0.0,0.0,0.0,0.0,0.0,0.0,0.0,0.0,0.0,0.0,0.0,0.0,0.0,0.0,0.0,0.0,0.0,0.0,0.0,0.0,0.0,0.0,0.0,0.0,0.0,0.0,0.0,0.0,0.0,0.0,0.0,0.0,0.0,0.0,0.0,0.0,0.4084,0.0,0.0,0.0,0.0,0.0,0.0,0.0,0.0,0.0,0.0,0.0,0.0,0.0,0.0,0.0,0.0,0.0,0.0,0.0,0.0,0.0,0.0,0.0,0.0,0.0,0.0,0.0,0.0,0.0,0.0,0.0,0.0,0.0,0.0,0.0,0.0,0.0,0.0,0.0,0.0,0.0,0.0,0.0,0.0,0.0,0.0,0.0,0.0,0.0,0.0,0.0,0.0,0.0,0.0,0.0,0.0,0.0,0.0,0.0,0.0,0.0,0.0,0.0,0.0,0.0,0.0,0.0,0.0,0.0,0.0,0.0,0.0,0.0,0.0,0.0,0.0,0.0,0.0,0.0,0.0,0.0,0.0,0.0,0.0,0.0,0.0,0.0,0.0,0.0,0.0,0.0,0.0,0.0,0.0,0.0,0.0,0.0,0.0,0.0,0.0,0.0,0.0,0.0,0.0,0.0,0.0,0.0,0.0,0.0,0.0,0.3173,0.3065,0.3069,0.3259,0.356,0.0,0.0,0.0,0.0,0.0,0.0,0.0,0.0,0.0,0.0,0.0,0.0,0.0,0.0,0.0,0.0,0.0,0.0,0.0,0.0,0.0,0.0,0.0,0.0,0.0,0.0,0.0,0.0,0.0,0.0,0.0,0.0,0.0,0.0,0.0,0.0,0.0,0.0,0.0,0.0,0.0,0.0,0.0,0.0,0.0,0.0,0.0,0.0,0.0,0.0,0.0,0.0,0.0,0.0,0.0,0.0,0.0,0.0,0.0,0.0,0.0,0.0,0.0,0.0,0.0,0.0,0.0,0.0,0.0,0.0,0.0,0.0,0.0,0.0,0.0,0.0,0.0,0.0,0.0,0.0,0.0,0.0,0.0,0.0,0.0,0.0,0.0,0.0,0.0,0.0,0.0,0.0,0.0,0.0,0.0,0.0,0.0,0.0,0.0,0.0,0.0,0.0,0.0,0.0,0.0,0.0,0.0,0.0,0.0,0.0,0.0,0.0,0.2363,0.2564,0.3041,0.0,0.0,0.0,0.0,0.0,0.0,0.0,0.0,0.0,0.0,0.0,0.0,0.0,0.0,0.0,0.0,0.0,0.0,0.0,0.0,0.0,0.0,0.0,0.0,0.0,0.0,0.0,0.0,0.0,0.0,0.0,0.0,0.0,0.0,0.0,0.0,0.0,0.0,0.0,0.0,0.0,0.0,0.0,0.0,0.0,0.0,0.0,0.0,0.0,0.0,0.0,0.0,0.0,0.0,0.0,0.0,0.0,0.0,0.0,0.0,0.0,0.0,0.0,0.0,0.0,0.0,0.0,0.0,0.0,0.0,0.0,0.0,0.0,0.0,0.0,0.0,0.0,0.0,0.0,0.0,0.0,0.0,0.0,0.0,0.0,0.0,0.0,0.0,0.0,0.0,0.0,0.0,0.0,0.0,0.0,0.0,0.0,0.0,0.0,0.0,0.0,0.0,0.0,0.0,0.0,0.0,0.0,0.0,0.0,0.0,0.194,0.169,0.1776,0.0,0.2563,0.0,0.0,0.0,0.0,0.0,0.0,0.0,0.0,0.0,0.0,0.0,0.0,0.0,0.0,0.0,0.0,0.0,0.0,0.0,0.0,0.0,0.0,0.0,0.0,0.0,0.0,0.0,0.0,0.0,0.0,0.0,0.0,0.0,0.0,0.0,0.0,0.0,0.0,0.0,0.0,0.0,0.0,0.0,0.0,0.0,0.0,0.0,0.0,0.0,0.0,0.0,0.0,0.0,0.0,0.0,0.0,0.0,0.0,0.0,0.0,0.0,0.0,0.0,0.0,0.0,0.0,0.0,0.0,0.0,0.0,0.0,0.0,0.0,0.0,0.0,0.0,0.0,0.0,0.0,0.0,0.0,0.0,0.0,0.0,0.0,0.0,0.0,0.0,0.0,0.0,0.0,0.0,0.0,0.0,0.0,0.0,0.0,0.0,0.0,0.0,0.0,0.0,0.0,0.0,0.0,0.0,0.0,0.0,0.0,0.0,0.1497,0.1412,0.1632,0.1868,0.0,0.0,0.0,0.0,0.0,0.0,0.0,0.0,0.0,0.0,0.0,0.0,0.0,0.0,0.0,0.0,0.0,0.0,0.0,0.0,0.0,0.0,0.0,0.0,0.0,0.0,0.0,0.0,0.0,0.0,0.0,0.0,0.0,0.0,0.0,0.0,0.0,0.0,0.0,0.0,0.0,0.0,0.0,0.0,0.0,0.0,0.0,0.0,0.0,0.0,0.0,0.0,0.0,0.0,0.0,0.0,0.0,0.0,0.0,0.0,0.0,0.0,0.0,0.0,0.0,0.0,0.0,0.0,0.0,0.0,0.0,0.0,0.0,0.0,0.0,0.0,0.0,0.0,0.0,0.0,0.0,0.0,0.0,0.0,0.0,0.0,0.0,0.0,0.0,0.0,0.0,0.0,0.0,0.0,0.0,0.0,0.0,0.0,0.0,0.0,0.0,0.0,0.0,0.0,0.0,0.0,0.0,0.0,0.0,0.0,0.1346,0.1215,0.1294,0.1424,0.1638,0.171,0.0,0.0,0.0,0.0,0.0,0.0,0.0,0.0,0.0,0.0,0.0,0.0,0.0,0.0,0.0,0.0,0.0,0.0,0.0,0.0,0.0,0.0,0.0,0.0,0.0,0.0,0.0,0.0,0.0,0.0,0.0,0.0,0.0,0.0,0.0,0.0,0.0,0.0,0.0,0.0,0.0,0.0,0.0,0.0,0.0,0.0,0.0,0.0,0.0,0.0,0.0,0.0,0.0,0.0,0.0,0.0,0.0,0.0,0.0,0.0,0.0,0.0,0.0,0.0,0.0,0.0,0.0,0.0,0.0,0.0,0.0,0.0,0.0,0.0,0.0,0.0,0.0,0.0,0.0,0.0,0.0,0.0,0.0,0.0,0.0,0.0,0.0,0.0,0.0,0.0,0.0,0.0,0.0,0.0,0.0,0.0,0.0,0.0,0.0,0.0,0.0,0.0,0.0,0.0,0.0,0.0,0.0,0.0,0.1344,0.1145,0.1092,0.1117,0.1149,0.1256,0.0,0.0,0.0,0.0,0.0,0.0,0.0,0.0,0.0,0.0,0.0,0.0,0.0,0.0,0.0,0.0,0.0,0.0,0.0,0.0,0.0,0.0,0.0,0.0,0.0,0.0,0.0,0.0,0.0,0.0,0.0,0.0,0.0,0.0,0.0,0.0,0.0,0.0,0.0,0.0,0.0,0.0,0.0,0.0,0.0,0.0,0.0,0.0,0.0,0.0,0.0,0.0,0.0,0.0,0.0,0.0,0.0,0.0,0.0,0.0,0.0,0.0,0.0,0.0,0.0,0.0,0.0,0.0,0.0,0.0,0.0,0.0,0.0,0.0,0.0,0.0,0.0,0.0,0.0,0.0,0.0,0.0,0.0,0.0,0.0,0.0,0.0,0.0,0.0,0.0,0.0,0.0,0.0,0.0,0.0,0.0,0.0,0.0,0.0,0.0,0.0,0.0,0.0,0.0,0.0,0.0,0.0,0.0,0.0,0.1145,0.0876,0.0751,0.07,0.0707,0.0943,0.0,0.0,0.0,0.0,0.0,0.0,0.0,0.0,0.0,0.0,0.0,0.0,0.0,0.0,0.0,0.0,0.0,0.0,0.0,0.0,0.0,0.0,0.0,0.0,0.0,0.0,0.0,0.0,0.0,0.0,0.0,0.0,0.0,0.0,0.0,0.0,0.0,0.0,0.0,0.0,0.0,0.0,0.0,0.0,0.0,0.0,0.0,0.0,0.0,0.0,0.0,0.0,0.0,0.0,0.0,0.0,0.0,0.0,0.0,0.0,0.0,0.0,0.0,0.0,0.0,0.0,0.0,0.0,0.0,0.0,0.0,0.0,0.0,0.0,0.0,0.0,0.0,0.0,0.0,0.0,0.0,0.0,0.0,0.0,0.0,0.0,0.0,0.0,0.0,0.0,0.0,0.0,0.0,0.0,0.0,0.0,0.0,0.0,0.0,0.0,0.0,0.0,0.0,0.0,0.0,0.0,0.0,0.0,0.0,0.0606,0.0,0.0136,-0.0,0.007,0.0285,0.0,0.0,0.0,0.0,0.0,0.0,0.0,0.0,0.0,0.0,0.0,0.0,0.0,0.0,0.0,0.0,0.0,0.0,0.0,0.0,0.0,0.0,0.0,0.0,0.0,0.0,0.0,0.0,0.0,0.0,0.0,0.0,0.0,0.0,0.0,0.0,0.0,0.0,0.0,0.0,0.0,0.0,0.0,0.0,0.0,0.0,0.0,0.0,0.0,0.0,0.0,0.0,0.0,0.0,0.0,0.0,0.0,0.0,0.0,0.0,0.0,0.0,0.0,0.0,0.0,0.0,0.0,0.0,0.0,0.0,0.0,0.0,0.0,0.0,0.0,0.0,0.0,0.0,0.0,0.0,0.0,0.0,0.0,0.0,0.0,0.0,0.0,0.0,0.0,0.0,0.0,0.0,0.0,0.0,0.0,0.0,0.0,0.0,0.0,0.0,0.0,0.0,0.0,0.0,0.0,0.0,0.0,0.0,0.0459,-0.047,-0.0472,-0.0743,-0.1078,-0.0899,-0.0631,0.0,0.0,0.0,0.0,0.0,0.0,0.0,0.0,0.0,0.0,0.0,0.0,0.0,0.0,0.0,0.0,0.0,0.0,0.0,0.0,0.0,0.0,0.0,0.0,0.0,0.0,0.0,0.0,0.0,0.0,0.0,0.0,0.0,0.0,0.0,0.0,0.0,0.0,0.0,0.0,0.0,0.0,0.0,0.0,0.0,0.0,0.0,0.0,0.0,0.0,0.0,0.0,0.0,0.0,0.0,0.0,0.0,0.0,0.0,0.0,0.0,0.0,0.0,0.0,0.0,0.0,0.0,0.0,0.0,0.0,0.0,0.0,0.0,0.0,0.0,0.0,0.0,0.0,0.0,0.0,0.0,0.0,0.0,0.0,0.0,0.0,0.0,0.0,0.0,0.0,0.0,0.0,0.0,0.0,0.0,0.0,0.0,0.0,0.0,0.0,0.0,0.0,0.0,0.0,0.0,0.0,0.0,0.0,0.0,-0.2213,-0.2464,-0.2703,-0.2774,-0.211,-0.1481,0.0,0.0,0.0,0.0,0.0,0.0,0.0,0.0,0.0,0.0,0.0,0.0,0.0,0.0,0.0,0.0,0.0,0.0,0.0,0.0,0.0,0.0,0.0,0.0,0.0,0.0,0.0,0.0,0.0,0.0,0.0,0.0,0.0,0.0,0.0,0.0,0.0,0.0,0.0,0.0,0.0,0.0,0.0,0.0,0.0,0.0,0.0,0.0,0.0,0.0,0.0,0.0,0.0,0.0,0.0,0.0,0.0,0.0,0.0,0.0,0.0,0.0,0.0,0.0,0.0,0.0,0.0,0.0,0.0,0.0,0.0,0.0,0.0,0.0,0.0,0.0,0.0,0.0,0.0,0.0,0.0,0.0,0.0,0.0,0.0,0.0,0.0,0.0,0.0,0.0,0.0,0.0,0.0,0.0,0.0,0.0,0.0,0.0,0.0,0.0,0.0,0.0,0.0,0.0,0.0,0.0,0.0,0.0,0.0,-0.4715,-0.4743,-0.4759,-0.4762,-0.4043,-0.301,-0.1671,0.0,0.0,0.0,0.0,0.0,0.0,0.0,0.0,0.0,0.0,0.0,0.0,0.0,0.0,0.0,0.0,0.0,0.0,0.0,0.0,0.0,0.0,0.0,0.0,0.0,0.0,0.0,0.0,0.0,0.0,0.0,0.0,0.0,0.0,0.0,0.0,0.0,0.0,0.0,0.0,0.0,0.0,0.0,0.0,0.0,0.0,0.0,0.0,0.0,0.0,0.0,0.0,0.0,0.0,0.0,0.0,0.0,0.0,0.0,0.0,0.0,0.0,0.0,0.0,0.0,0.0,0.0,0.0,0.0,0.0,0.0,0.0,0.0,0.0,0.0,0.0,0.0,0.0,0.0,0.0,0.0,0.0,0.0,0.0,0.0,0.0,0.0,0.0,0.0,0.0,0.0,0.0,0.0,0.0,0.0,0.0,0.0,0.0,0.0,0.0,0.0,0.0,0.0,0.0,0.0,0.0,0.0,0.0,-0.7804,-0.7246,-0.7,-0.6964,-0.638,-0.501,0.0,0.0,0.0,0.0,0.0,0.0,0.0,0.0,0.0,0.0,0.0,0.0,0.0,0.0,0.0,0.0,0.0,0.0,0.0,0.0,0.0,0.0,0.0,0.0,0.0,0.0,0.0,0.0,0.0,0.0,0.0,0.0,0.0,0.0,0.0,0.0,0.0,0.0,0.0,0.0,0.0,0.0,0.0,0.0,0.0,0.0,0.0,0.0,0.0,0.0,0.0,0.0,0.0,0.0,0.0,0.0,0.0,0.0,0.0,0.0,0.0,0.0,0.0,0.0,0.0,0.0,0.0,0.0,0.0,0.0,0.0,0.0,0.0,0.0,0.0,0.0,0.0,0.0,0.0,0.0,0.0,0.0,0.0,0.0,0.0,0.0,0.0,0.0,0.0,0.0,0.0,0.0,0.0,0.0,0.0,0.0,0.0,0.0,0.0,0.0,0.0,0.0,0.0,0.0,0.0,0.0,0.0,0.0,0.0,-1.0223,-1.1296,-1.1119,-0.9597,-0.7877,-0.6471,0.0,0.0,0.0,0.0,0.0,0.0,0.0,0.0,0.0,0.0,0.0,0.0,0.0,0.0,0.0,0.0,0.0,0.0,0.0,0.0,0.0,0.0,0.0,0.0,0.0,0.0,0.0,0.0,0.0,0.0,0.0,0.0,0.0,0.0,0.0,0.0,0.0,0.0,0.0,0.0,0.0,0.0,0.0,0.0,0.0,0.0,0.0,0.0,0.0,0.0,0.0,0.0,0.0,0.0,0.0,0.0,0.0,0.0,0.0,0.0,0.0,0.0,0.0,0.0,0.0,0.0,0.0,0.0,0.0,0.0,0.0,0.0,0.0,0.0,0.0,0.0,0.0,0.0,0.0,0.0,0.0,0.0,0.0,0.0,0.0,0.0,0.0,0.0,0.0,0.0,0.0,0.0,0.0,0.0,0.0,0.0,0.0,0.0,0.0,0.0,0.0,0.0,0.0,0.0,0.0,0.0,0.0,0.0,-0.9777,-1.1652,-1.3623,-1.3987,-1.2827,-1.0337,-0.8315,0.0,0.0,0.0,0.0,0.0,0.0,0.0,0.0,0.0,0.0,0.0,0.0,0.0,0.0,0.0,0.0,0.0,0.0,0.0,0.0,0.0,0.0,0.0,0.0,0.0,0.0,0.0,0.0,0.0,0.0,0.0,0.0,0.0,0.0,0.0,0.0,0.0,0.0,0.0,0.0,0.0,0.0,0.0,0.0,0.0,0.0,0.0,0.0,0.0,0.0,0.0,0.0,0.0,0.0,0.0,0.0,0.0,0.0,0.0,0.0,0.0,0.0,0.0,0.0,0.0,0.0,0.0,0.0,0.0,0.0,0.0,0.0,0.0,0.0,0.0,0.0,0.0,0.0,0.0,0.0,0.0,0.0,0.0,0.0,0.0,0.0,0.0,0.0,0.0,0.0,0.0,0.0,0.0,0.0,0.0,0.0,0.0,0.0,0.0,0.0,0.0,0.0,0.0,0.0,0.0,0.0,0.0,0.0,-1.1338,-1.252,-1.4947,-1.6099,-1.5956,-1.299,-1.0311,0.0,0.0,0.0,0.0,0.0,0.0,0.0,0.0,0.0,0.0,0.0,0.0,0.0,0.0,0.0,0.0,0.0,0.0,0.0,0.0,0.0,0.0,0.0,0.0,0.0,0.0,0.0,0.0,0.0,0.0,0.0,0.0,0.0,0.0,0.0,0.0,0.0,0.0,0.0,0.0,0.0,0.0,0.0,0.0,0.0,0.0,0.0,0.0,0.0,0.0,0.0,0.0,0.0,0.0,0.0,0.0,0.0,0.0,0.0,0.0,0.0,0.0,0.0,0.0,0.0,0.0,0.0,0.0,0.0,0.0,0.0,0.0,0.0,0.0,0.0,0.0,0.0,0.0,0.0,0.0,0.0,0.0,0.0,0.0,0.0,0.0,0.0,0.0,0.0,0.0,0.0,0.0,0.0,0.0,0.0,0.0,0.0,0.0,0.0,0.0,0.0,0.0,0.0,0.0,0.0,0.0,0.0,0.0,-1.2974,-1.4577,-1.6782,-1.7575,-1.6929,-1.3686,-1.1258,0.0,0.0,0.0,0.0,0.0,0.0,0.0,0.0,0.0,0.0,0.0,0.0,0.0,0.0,0.0,0.0,0.0,0.0,0.0,0.0,0.0,0.0,0.0,0.0,0.0,0.0,0.0,0.0,0.0,0.0,0.0,0.0,0.0,0.0,0.0,0.0,0.0,0.0,0.0,0.0,0.0,0.0,0.0,0.0,0.0,0.0,0.0,0.0,0.2384,0.0,0.0,0.0,0.0,0.0,0.0,0.0,0.0,0.0,0.0,0.0,0.0,0.0,0.0,0.0,0.0,0.0,0.0,0.0,0.0,0.0,0.0,0.0,0.0,0.0,0.0,0.0,0.0,0.0,0.0,0.0,0.0,0.0,0.0,0.0,0.0,0.0,0.0,0.0,0.0,0.0,0.0,0.0,0.0,0.0,0.0,0.0,0.0,0.0,0.0,0.0,0.0,0.0,0.0,0.0,0.0,0.0,0.0,0.0,-1.4452,-1.6427,-1.8271,-1.8708,-1.7725,-1.5426,-1.3121,0.0,0.0,0.0,0.0,0.0,0.0,0.0,0.0,0.0,0.0,0.0,0.0,0.0,0.0,0.0,0.0,0.0,0.0,0.0,0.0,0.0,0.0,0.0,0.0,0.0,0.0,0.0,0.0,0.0,0.0,0.0,0.0,0.0,0.0,0.0,0.0,0.0,0.0,0.0,0.0,0.0,0.0,0.0,0.0,0.0,0.0,0.0,0.0,0.0,0.0,0.0,0.0,0.0,0.0,0.0,0.0,0.0,0.0,0.0,0.0,0.0,0.0,0.0,0.0,0.0,0.0,0.0,0.0,0.0,0.0,0.0,0.0,0.0,0.0,0.0,0.0,0.0,0.0,0.0,0.0,0.0,0.0,0.0,0.0,0.0,0.0,0.0,0.0,0.0,0.0,0.0,0.0,0.0,0.0,0.0,0.0,0.0,0.0,0.0,0.0,0.0,0.0,0.0,0.0,0.0,0.0,0.0,-1.3465,-1.5954,-1.8137,-1.9633,-1.993,-1.8894,-1.7468,-1.5145,-1.1811,0.0,0.0,0.0,0.0,0.0,0.0,0.0,0.0,0.0,0.0,0.0,0.0,0.0,0.0,0.0,0.0,0.0,0.0,0.0,0.0,0.0,0.0,0.0,0.0,0.0,0.0,0.0,0.0,0.0,0.0,0.0,0.0,0.0,0.0,0.0,0.0,0.0,0.0,0.4291,0.416,0.0,0.0,0.0,0.0,0.0,0.0,0.0,0.0,-0.223,0.0,0.0,0.0,0.0,0.0,0.0,0.0,0.0,0.0,0.0,0.0,0.0,0.0,0.0,0.0,0.0,0.0,0.0,0.0,0.0,0.0,0.0,0.0,0.0,0.0,0.0,0.0,0.0,0.0,0.0,0.0,0.0,0.0,0.0,0.0,0.0,0.0,0.0,0.0,0.0,0.0,0.0,0.0,0.0,0.0,0.0,0.0,0.0,0.0,0.0,0.0,0.0,0.0,0.0,0.0,0.0,-1.2979,-1.5383,-1.7893,-2.0639,-2.1634,-2.1692,-2.0845,-1.9085,-1.6704,-1.3665,0.0,0.0,0.0,0.0,0.0,0.0,0.0,0.0,0.0,0.0,0.0,0.0,0.0,0.0,0.0,0.0,0.0,0.0,0.0,0.0,0.0,0.0,0.0,0.0,0.0,0.0,0.0,0.0,0.0,0.0,0.0,0.0,0.0,0.0,0.0,0.0,0.0,0.0,0.0,0.1019,0.0753,0.0,0.0,0.0,0.0,0.0,0.0,0.0,0.0,-0.6519,0.0,0.0,0.0,0.0,0.0,0.0,0.0,0.0,0.0,0.0,0.0,0.0,0.0,0.0,0.0,0.0,0.0,0.0,0.0,0.0,0.0,0.0,0.0,0.0,0.0,0.0,0.0,0.0,0.0,0.0,0.0,0.0,0.0,0.0,0.0,0.0,0.0,0.0,0.0,0.0,0.0,0.0,0.0,0.0,0.0,0.0,0.0,0.0,0.0,0.0,0.0,0.0,0.0,0.0,0.0,-1.4568,-1.7227,-1.9838,-2.2257,-2.3029,-2.2929,-2.1895,-1.9988,-1.75,0.0,0.0,0.0,0.0,0.0,0.0,0.0,0.0,0.0,0.0,0.0,0.0,0.0,0.0,0.0,0.0,0.0,0.0,0.0,0.0,0.0,0.0,0.0,0.0,0.0,0.0,0.0,0.0,0.0,0.0,0.0,0.0,0.0,0.0,0.0,0.0,0.0,0.0,0.0,0.0,-0.2409,-0.3743,-0.3529,0.0,0.0,0.0,0.0,0.0,0.0,-0.8704,-0.7799,0.0,0.0,0.0,0.0,0.0,0.0,0.0,0.0,0.0,0.0,0.0,0.0,0.0,0.0,0.0,0.0,0.0,0.0,0.0,0.0,0.0,0.0,0.0,0.0,0.0,0.0,0.0,0.0,0.0,0.0,0.0,0.0,0.0,0.0,0.0,0.0,0.0,0.0,0.0,0.0,0.0,0.0,0.0,0.0,0.0,0.0,0.0,0.0,0.0,0.0,0.0,0.0,0.0,0.0,0.0,-1.6007,-1.8862,-2.1447,-2.3393,-2.3945,-2.3746,-2.2811,-2.0647,-1.7965,0.0,0.0,0.0,0.0,0.0,0.0,0.0,0.0,0.0,0.0,0.0,0.0,0.0,0.0,0.0,0.0,0.0,0.0,0.0,0.0,0.0,0.0,0.0,0.0,0.0,0.0,0.0,0.0,0.0,0.0,0.0,0.0,0.0,0.0,0.0,0.0,0.0,0.0,0.0,0.0,0.0,-0.7175,-0.628,-0.6661,0.0,0.0,0.0,0.0,-1.1773,-1.0654,0.0,0.0,0.0,0.0,0.0,0.0,0.0,0.0,0.0,0.0,0.0,0.0,0.0,0.0,0.0,0.0,0.0,0.0,0.0,0.0,0.0,0.0,0.0,0.0,0.0,0.0,0.0,0.0,0.0,0.0,0.0,0.0,0.0,0.0,0.0,0.0,0.0,0.0,0.0,0.0,0.0,0.0,0.0,0.0,0.0,0.0,0.0,0.0,0.0,0.0,0.0,0.0,0.0,0.0,0.0,0.0,-1.71,-2.0004,-2.2329,-2.3998,-2.4152,-2.4143,-2.3926,-2.0657,-1.7964,0.0,0.0,0.0,0.0,0.0,0.0,0.0,0.0,0.0,0.0,0.0,0.0,0.0,0.0,0.0,0.0,0.0,0.0,0.0,0.0,0.0,0.0,0.0,0.0,0.0,0.0,0.0,0.0,0.0,0.0,0.0,0.0,0.0,0.0,0.0,0.0,0.0,0.0,0.0,0.0,0.0,-0.6782,-0.8567,-0.8302,-0.8064,0.0,0.0,-1.1976,-1.325,-1.3957,0.0,0.0,0.0,0.0,0.0,0.0,0.0,0.0,0.0,0.0,0.0,0.0,0.0,0.0,0.0,0.0,0.0,0.0,0.0,0.0,0.0,0.0,0.0,0.0,0.0,0.0,0.0,0.0,0.0,0.0,0.0,0.0,0.0,0.0,0.0,0.0,0.0,0.0,0.0,0.0,0.0,0.0,0.0,0.0,0.0,0.0,0.0,0.0,0.0,0.0,0.0,0.0,0.0,0.0,0.0,-1.5891,-1.829,-2.1131,-2.3082,-2.4143,-2.4161,-2.4161,-2.4152,-2.0951,-1.834,0.0,0.0,0.0,0.0,0.0,0.0,0.0,0.0,0.0,0.0,0.0,0.0,0.0,0.0,0.0,0.0,0.0,0.0,0.0,0.0,0.0,0.0,0.0,0.0,0.0,0.0,0.0,0.0,0.0,0.0,0.0,0.0,0.0,0.0,0.0,0.0,0.0,0.0,0.0,0.0,0.0,0.0,-1.119,-1.1818,0.0,0.0,0.0,-1.4143,-1.4866,0.0,0.0,0.0,0.0,0.0,0.0,0.0,0.0,0.0,0.0,0.0,0.0,0.0,0.0,0.0,0.0,0.0,0.0,0.0,0.0,0.0,0.0,0.0,0.0,0.0,0.0,0.0,0.0,0.0,0.0,0.0,0.0,0.0,0.0,0.0,0.0,0.0,0.0,0.0,0.0,0.0,0.0,0.0,0.0,0.0,0.0,0.0,0.0,0.0,0.0,0.0,0.0,0.0,0.0,0.0,0.0,0.0,-1.9363,-2.2455,-2.4322,-2.4726,-2.4529,-2.444,-2.4412,-2.1501,0.0,0.0,0.0,0.0,0.0,0.0,0.0,0.0,0.0,0.0,0.0,0.0,0.0,0.0,0.0,0.0,0.0,0.0,0.0,0.0,0.0,0.0,0.0,0.0,0.0,0.0,0.0,-0.3898,0.0,0.0,0.0,0.0,0.0,0.0,0.0,0.0,0.0,0.0,0.0,0.0,0.0,0.0,-1.174,-1.3357,-1.4755,-1.5822,0.0,0.0,-1.6302,-1.7141,-1.7915,-1.7553,0.0,0.0,0.0,0.0,0.0,0.0,0.0,0.0,0.0,0.0,0.0,0.0,0.0,0.0,0.0,0.0,0.0,0.0,0.0,0.0,0.0,0.0,0.0,0.0,0.0,0.0,0.0,0.0,0.0,0.0,0.0,0.0,0.0,0.0,0.0,0.0,0.0,0.0,0.0,0.0,0.0,0.0,0.0,0.0,0.0,0.0,0.0,0.0,0.0,0.0,0.0,0.0,0.0,0.0,-1.8984,-2.0437,-2.4263,-2.6244,-2.636,-2.5586,-2.5197,-2.5187,-2.2775,-2.028,0.0,0.0,0.0,0.0,0.0,0.0,0.0,0.0,0.0,0.0,0.0,0.0,0.0,0.0,0.0,0.0,0.0,0.0,0.0,0.0,0.0,0.0,0.0,0.0,0.0,0.0,0.0,0.0,0.0,0.0,0.0,0.0,0.0,0.0,0.0,0.0,0.0,0.0,0.0,0.0,0.0,-1.2796,-1.4456,-1.5856,-1.6989,0.0,-1.8272,-1.884,-1.9983,-2.1018,-2.0662,-1.7331,0.0,0.0,0.0,0.0,0.0,0.0,0.0,0.0,0.0,0.0,0.0,0.0,0.0,0.0,0.0,0.0,0.0,0.0,0.0,0.0,0.0,0.0,0.0,0.0,0.0,0.0,0.0,0.0,0.0,0.0,0.0,0.0,0.0,0.0,0.0,0.0,0.0,0.0,0.0,0.0,0.0,0.0,0.0,0.0,0.0,0.0,0.0,0.0,0.0,0.0,0.0,0.0,0.0,-1.9393,-2.0959,-2.3998,-2.5548,-2.5548,-2.5268,-2.4893,-2.4525,-2.2907,-2.0859,0.0,0.0,0.0,0.0,0.0,0.0,0.0,0.0,0.0,0.0,0.0,0.0,0.0,0.0,0.0,0.0,0.0,0.0,0.0,0.0,0.0,0.0,0.0,0.0,0.0,0.0,0.0,0.0,-0.7511,-0.8143,-0.7837,0.0,0.0,0.0,0.0,0.0,0.0,0.0,0.0,0.0,0.0,-1.5522,-1.7809,-1.9512,0.0,0.0,-2.0918,-2.1063,-2.0397,-2.1185,-2.0693,-1.7407,-1.594,0.0,0.0,0.0,0.0,0.0,0.0,0.0,0.0,0.0,0.0,0.0,0.0,0.0,0.0,0.0,0.0,0.0,0.0,0.0,0.0,0.0,0.0,0.0,0.0,0.0,0.0,0.0,0.0,0.0,0.0,0.0,0.0,0.0,0.0,0.0,0.0,0.0,0.0,0.0,0.0,0.0,0.0,0.0,0.0,0.0,0.0,0.0,0.0,0.0,0.0,0.0,0.0,-2.013,-2.1602,-2.4328,-2.5673,-2.5684,-2.5492,-2.5047,-2.4293,-2.3442,-2.1771,0.0,0.0,0.0,0.0,0.0,0.0,0.0,0.0,0.0,0.0,0.0,0.0,0.0,0.0,0.0,0.0,0.0,0.0,0.0,0.0,0.0,0.0,0.0,0.0,0.0,0.0,0.0,0.0,-0.8931,-0.922,-0.8641,0.0,0.0,0.0,0.0,0.0,0.0,0.0,0.0,0.0,0.0,-1.7915,-1.9784,-2.1457,-2.2328,-2.1519,-2.1881,-2.1668,-2.0384,-2.0603,-2.0218,-1.7858,0.0,0.0,0.0,0.0,0.0,0.0,0.0,0.0,0.0,0.0,0.0,0.0,0.0,0.0,0.0,0.0,0.0,0.0,0.0,0.0,0.0,0.0,0.0,0.0,0.0,0.0,0.0,-1.2656,0.0,0.0,-1.1873,0.0,0.0,0.0,0.0,0.0,0.0,0.0,0.0,0.0,0.0,0.0,0.0,0.0,0.0,0.0,0.0,0.0,0.0,0.0,0.0,0.0,0.0,-2.1312,-2.2647,-2.5636,-2.7194,-2.7194,-2.6494,-2.5743,-2.5078,-2.4375,-2.2964,-2.0957,0.0,0.0,0.0,0.0,0.0,0.0,0.0,0.0,0.0,0.0,0.0,0.0,0.0,0.0,0.0,0.0,0.0,0.0,0.0,0.0,0.0,0.0,0.0,0.0,0.0,0.0,-0.8411,-0.9284,-0.9379,0.0,0.0,0.0,0.0,0.0,0.0,0.0,0.0,0.0,-1.3903,-1.7116,-1.9437,-1.9836,-2.0886,-2.1522,-2.1091,-2.056,-2.0223,-2.0109,-1.9946,-1.9504,0.0,0.0,0.0,0.0,0.0,0.0,0.0,0.0,0.0,0.0,0.0,0.0,0.0,0.0,0.0,0.0,0.0,0.0,0.0,0.0,0.0,0.0,0.0,0.0,0.0,0.0,0.0,-1.5827,-1.4431,0.0,0.0,0.0,0.0,0.0,0.0,0.0,0.0,0.0,0.0,0.0,-1.7887,-1.8408,0.0,0.0,0.0,0.0,0.0,0.0,0.0,0.0,0.0,0.0,0.0,0.0,-2.124,-2.2439,-2.4977,-2.6365,-2.6376,-2.6119,-2.5398,-2.4243,-2.4267,-2.2646,-1.9233,0.0,0.0,0.0,0.0,0.0,0.0,0.0,0.0,0.0,0.0,0.0,0.0,0.0,0.0,0.0,0.0,0.0,0.0,0.0,0.0,0.0,0.0,0.0,0.0,0.0,-0.8676,0.0,0.0,0.0,0.0,0.0,0.0,0.0,0.0,0.0,0.0,-1.2707,-1.488,-1.6746,-1.8352,-1.9723,-2.069,-2.1666,-2.2473,0.0,0.0,0.0,0.0,0.0,0.0,0.0,0.0,0.0,0.0,0.0,0.0,0.0,0.0,-1.2376,-1.0659,-1.0934,-1.1444,-1.1515,0.0,0.0,0.0,0.0,0.0,0.0,0.0,0.0,0.0,0.0,0.0,0.0,0.0,0.0,-1.9143,-1.8047,-1.847,0.0,0.0,0.0,0.0,0.0,0.0,0.0,0.0,-2.0295,-2.0739,-2.0665,-2.1124,-2.124,0.0,-2.116,-1.986,0.0,0.0,0.0,0.0,0.0,0.0,0.0,0.0,-2.1565,-2.2679,-2.4757,-2.5895,-2.5895,-2.5895,-2.538,-2.4251,-2.3968,-2.2226,-1.8776,-1.6872,-1.4976,0.0,0.0,0.0,0.0,0.0,0.0,0.0,0.0,0.0,0.0,0.0,0.0,0.0,0.0,0.0,0.0,0.0,0.0,0.0,0.0,0.0,0.0,0.0,-1.0453,0.0,0.0,0.0,0.0,0.0,0.0,0.0,0.0,0.0,-1.3591,-1.5642,-1.7781,-1.9147,-2.0107,-2.079,-2.0995,0.0,0.0,0.0,0.0,0.0,0.0,0.0,-1.9878,-1.947,-2.0207,-2.0729,-2.064,-1.9668,-1.855,-1.7251,0.0,0.0,-1.3931,-1.4068,-1.4619,-1.4605,-1.4628,-1.4667,-1.4832,-1.5041,-1.5195,0.0,0.0,0.0,0.0,0.0,0.0,0.0,0.0,-2.2574,-2.283,0.0,-2.2433,0.0,0.0,0.0,0.0,-1.9286,-2.0809,0.0,0.0,-2.389,-2.4706,-2.4128,-2.3867,-2.3831,-2.3867,-2.3298,-2.2827,-2.2333,-2.0601,0.0,0.0,0.0,0.0,0.0,0.0,-2.2275,-2.3479,-2.5104,-2.5895,-2.5895,-2.5895,-2.5549,-2.4786,-2.3407,-2.1603,-1.9641,-1.8014,-1.6546,-1.5127,-1.2765,0.0,0.0,0.0,0.0,0.0,0.0,0.0,0.0,0.0,0.0,0.0,0.0,0.0,0.0,0.0,0.0,0.0,0.0,0.0,0.0,-1.232,0.0,0.0,0.0,0.0,0.0,0.0,0.0,0.0,0.0,-1.6741,-1.6807,-1.8701,-2.033,-2.0826,0.0,0.0,0.0,0.0,-2.246,-2.0449,-2.0374,-2.0348,-1.9796,-2.0511,-2.1482,-2.2408,0.0,0.0,-2.292,-2.1738,-2.0672,-1.9449,-1.9821,-1.9591,-1.6795,-1.6587,-1.6795,-1.6932,-1.6975,-1.7005,-1.7042,-1.7309,-1.7507,-2.7102,0.0,0.0,0.0,0.0,-2.3207,-2.3809,-2.4705,-2.4952,-2.5535,-2.6255,-2.441,0.0,0.0,0.0,0.0,0.0,0.0,-2.2835,-2.3268,-2.4381,-2.4776,-2.4756,-2.5265,-2.5482,-2.5539,-2.5518,-2.5507,-2.5346,-2.4442,-2.2696,-1.9928,0.0,0.0,0.0,0.0,-2.2994,-2.401,-2.5256,-2.5895,-2.5895,-2.5895,-2.52,-2.3627,-2.1894,-2.0237,-1.8761,-1.7669,-1.6402,-1.5146,-1.3814,0.0,0.0,0.0,0.0,0.0,0.0,0.0,0.0,0.0,0.0,0.0,0.0,0.0,0.0,0.0,0.0,0.0,0.0,0.0,-1.3842,-1.3849,-1.3363,0.0,0.0,0.0,0.0,0.0,0.0,0.0,0.0,0.0,-2.1145,-2.1478,-2.1714,0.0,0.0,-2.2266,-2.185,-2.2232,-2.2907,-2.3793,-2.293,0.0,-2.3749,-2.337,-2.3135,-2.384,-2.5661,-2.6447,-2.465,-2.4666,-2.4122,-2.1984,-2.1826,-2.1654,-2.0688,-2.0308,-2.0118,-1.9983,-1.9883,-2.0081,-2.0291,-2.041,-2.0812,-2.9439,-2.7533,-2.5846,-2.5089,-2.5084,-2.5306,-2.5902,-2.6737,-2.6955,-2.7311,-2.7683,-2.6467,-2.5527,-2.4624,-2.2434,0.0,0.0,0.0,-2.4075,-2.468,-2.5068,-2.5263,-2.5404,-2.5855,-2.6051,-2.6117,-2.6206,-2.6332,-2.6332,-2.5852,-2.4577,-2.2434,0.0,-2.1816,-2.1933,-2.2897,-2.3729,-2.4567,-2.542,-2.5895,-2.5906,-2.5644,-2.4765,-2.3096,-2.1516,-2.0085,-1.8896,-1.7878,-1.6819,-1.5896,-1.4821,-1.369,0.0,0.0,0.0,0.0,0.0,0.0,0.0,0.0,0.0,0.0,0.0,-0.8631,-0.8683,0.0,0.0,0.0,-1.2566,-1.4347,-1.5388,-1.5016,0.0,0.0,0.0,0.0,0.0,0.0,0.0,-1.6943,-1.9579,-2.1944,-2.3313,-2.3457,-2.3503,-2.3654,-2.351,-2.3253,-2.2802,0.0,-2.4023,-2.4842,-2.4173,-2.4021,-2.5088,-2.5189,-2.541,-2.6481,-2.7859,-2.8271,-2.6677,-2.6442,-2.5717,-2.3999,-2.3127,-2.2683,-2.2222,-2.2002,-2.1782,-2.1439,-2.1318,-2.1284,-2.1474,-2.1598,-2.2083,-3.0921,-3.0151,-2.8075,-2.722,-2.7207,-2.7207,-2.7727,-2.851,-2.851,-2.8283,-2.7962,-2.8271,-2.7679,-2.6246,-2.5147,0.0,-2.6046,-2.5365,-2.5387,-2.599,-2.5895,-2.5895,-2.5895,-2.5906,-2.5895,-2.5906,-2.5895,-2.5895,-2.5884,-2.5459,-2.5229,-2.5218,-2.4621,-2.4097,-2.3686,-2.4054,-2.4577,-2.5218,-2.5677,-2.5906,-2.5812,-2.5115,-2.4155,-2.3008,-2.1774,-2.061,-1.9546,-1.8249,-1.7377,-1.7008,-1.5807,-1.4712,-1.3829,0.0,0.0,0.0,0.0,0.0,0.0,0.0,0.0,0.0,0.0,0.0,0.0,0.0,0.0,-1.283,-1.5245,0.0,-1.6182,-1.6147,0.0,0.0,0.0,-1.4935,-1.5763,-1.7283,-1.852,-1.9202,0.0,0.0,-2.4068,-2.4851,-2.5344,-2.5346,-2.5476,-2.5036,-2.3795,-2.4957,-2.5515,-2.4648,-2.4551,-2.4756,-2.5095,-2.6284,-2.7793,-2.9301,-2.9973,-2.9523,-2.831,-2.7229,-2.6173,-2.488,-2.3784,-2.2788,-2.223,-2.2108,-2.2002,-2.1668,-2.1439,-2.1211,-2.124,-2.1445,-2.184,-3.1523,-3.0291,-2.9732,-2.9018,-2.816,-2.816,-2.8311,-2.851,-2.851,-2.8443,-2.8351,-2.7983,-2.751,-2.692,-2.6307,-2.6456,-2.7151,-2.6487,-2.6179,-2.6362,-2.6373,-2.6218,-2.5895,-2.5895,-2.5895,-2.5895,-2.5895,-2.5895,-2.5895,-2.5786,-2.5721,-2.5721,-2.5611,-2.5224,-2.4777,-2.4945,-2.524,-2.5732,-2.5841,-2.5633,-2.5115,-2.4059,-2.2921,-2.1774,-2.0619,-1.9729,-1.9012,-1.7606,-1.6911,-1.6919,-1.5622,-1.4618,-1.4213,-1.3199,0.0,0.0,0.0,0.0,0.0,0.0,0.0,0.0,0.0,-1.0295,-1.0622,0.0,-1.2703,0.0,-1.5236,-1.7038,-1.7988,-1.7747,0.0,0.0,-1.6769,-1.6708,-1.7085,-1.8731,-2.0175,-2.0948,-2.285,-2.4522,-2.5431,-2.5935,-2.635,-2.6717,-2.6114,-2.5604,-2.5506,-2.5968,-2.6305,-2.6279,-2.6418,-2.6771,-2.7002,-2.8,-2.8951,-2.9404,-2.9766,-2.9554,-2.8445,-2.7248,-2.6164,-2.4991,-2.368,-2.2788,-2.2456,-2.2116,-2.1782,-2.1668,-2.1439,-2.1211,-2.1211,-2.1276,-2.1647,-3.1603,-3.033,-3.033,-2.9636,-2.851,-2.851,-2.851,-2.851,-2.851,-2.851,-2.8431,-2.7926,-2.7313,-2.6585,-2.6532,-2.6599,-2.6846,-2.6456,-2.6218,-2.6218,-2.6218,-2.6135,-2.5906,-2.5895,-2.5895,-2.5895,-2.5895,-2.5895,-2.5895,-2.5895,-2.5895,-2.5895,-2.5895,-2.5764,-2.5502,-2.5491,-2.5633,-2.5895,-2.5644,-2.5285,-2.4861,-2.3357,-2.2133,-2.1076,-1.9928,-1.897,-1.8194,-1.7266,-1.6614,-1.6227,-1.5432,-1.4743,-1.4057,-1.3263,-1.2524,0.0,0.0,0.0,0.0,0.0,0.0,0.0,0.0,0.0,0.0,0.0,-1.4142,-1.4917,-1.6553,-1.7915,-1.8316,-1.8193,-1.8013,-1.7959,-1.783,-1.8067,-1.9004,-2.0656,-2.2051,-2.2965,-2.4635,-2.5974,-2.6582,-2.6784,-2.6976,-2.7251,-2.6774,-2.6476,-2.6572,-2.6784,-2.689,-2.7092,-2.7177,-2.7417,-2.7852,-2.8524,-2.9073,-2.929,-2.9694,-2.9774,-2.9112,-2.8019,-2.6924,-2.5744,-2.4437,-2.3239,-2.2562,-2.2116,-2.1774,-2.1546,-2.1325,-2.1211,-2.1211,-2.1211,-2.1521,-3.1394,-3.0343,-3.0253,-2.9543,-2.851,-2.851,-2.851,-2.851,-2.851,-2.851,-2.8431,-2.8042,-2.7129,-2.5945,-2.6337,-2.6389,-2.603,-2.5997,-2.5979,-2.5979,-2.5979,-2.599,-2.5895,-2.5895,-2.5895,-2.5895,-2.5895,-2.5895,-2.5895,-2.5895,-2.5895,-2.5895,-2.5895,-2.5895,-2.5906,-2.5812,-2.5812,-2.5728,-2.52,-2.4765,-2.4584,-2.2775,-2.1429,-2.0674,-1.9491,-1.8362,-1.7453,-1.7079,-1.6448,-1.5301,-1.5197,-1.4724,-1.3761,-1.3153,-1.2569,0.0,-1.1529,0.0,0.0,0.0,0.0,0.0,0.0,0.0,0.0,-1.4389,-1.57,-1.7224,-1.8226,-1.8608,-1.8256,-1.8133,-1.8235,-1.8454,-1.8556,-1.9059,-2.0538,-2.2291,-2.3692,-2.4688,-2.6264,-2.7272,-2.7262,-2.7272,-2.7272,-2.7262,-2.7262,-2.7167,-2.7262,-2.7262,-2.7262,-2.7272,-2.7272,-2.7396,-2.7748,-2.8214,-2.868,-2.9125,-2.957,-2.9922,-2.9984,-2.8784,-2.758,-2.6599,-2.5194,-2.3896,-2.2335,-2.1995,-2.1774,-2.1325,-2.1211,-2.1211,-2.1211,-2.1211,-2.1306,-3.1294,-3.0241,-2.9741,-2.9143,-2.851,-2.851,-2.851,-2.851,-2.851,-2.851,-2.8431,-2.8042,-2.7129,-2.5957,-2.6337,-2.6682,-2.6905,-2.6599,-2.6373,-2.6373,-2.6362,-2.6218,-2.5895,-2.5895,-2.5895,-2.5895,-2.5895,-2.5895,-2.5895,-2.5895,-2.5895,-2.5895,-2.5895,-2.5895,-2.5906,0.0,0.0,0.0,-2.4956,-2.4241,-2.2911,-2.1792,-2.0806,-1.971,-1.8633,0.0,-1.7167,-1.6367,-1.5658,-1.5116,-1.4463,0.0,0.0,0.0,0.0,0.0,0.0,0.0,0.0,0.0,0.0,0.0,-1.335,-1.4374,-1.3923,-1.5594,-1.7129,-1.8055,-1.8344,-1.8671,-1.9058,-1.908,-1.9088,-1.9088,-1.908,-1.931,-1.9975,-2.1887,-2.3493,-2.389,-2.5858,-2.7262,-2.7262,-2.7272,-2.7272,-2.7272,-2.7272,-2.7272,-2.7272,-2.7272,-2.7272,-2.7272,-2.7272,-2.7282,-2.7376,-2.7779,-2.8245,-2.8669,-2.9125,-2.9549,-2.9671,-2.8232,-2.6915,-2.6372,-2.442,-2.2675,-2.2116,-2.166,-2.1439,-2.1211,-2.1211,-2.1211,-2.1211,-2.1211,-2.1233,-3.0833,-2.9871,-2.9496,-2.904,0.0,-2.851,-2.851,-2.851,-2.851,-2.851,-2.8431,-2.7857,-2.6909,-2.5931,-2.6135,-2.629,-2.6539,-2.6302,-2.6218,-2.6207,-2.6207,-2.6135,-2.5895,-2.5895,-2.5895,-2.5895,-2.5895,-2.5895,-2.5895,-2.5895,-2.5895,-2.5895,-2.5895,-2.5895,-2.5906,-2.5211,-2.469,-2.4327,-2.38,-2.3096,-2.2208,-2.0944,-1.9783,-1.8645,-1.7943,0.0,0.0,0.0,0.0,0.0,0.0,0.0,0.0,-1.2856,0.0,-1.2379,-1.1814,-1.1516,-1.1732,-1.1754,-1.1904,-1.1995,-1.4196,-1.5661,-1.589,-1.7468,-1.8534,-1.881,-1.8927,-1.9096,-1.9257,-1.9272,-1.9272,-1.9272,-1.9272,-1.9583,-2.0483,-2.1684,-2.2793,-2.3683,-2.5373,-2.6476,-2.6476,-2.6965,-2.7262,-2.7272,-2.7272,-2.7262,-2.7272,-2.7272,-2.7272,-2.7272,-2.7272,-2.7272,-2.7303,-2.7634,-2.7976,-2.8188,-2.8421,-2.8601,-2.875,-2.7554,-2.6372,-2.5735,-2.4206,-2.2998,-2.223,-2.1774,-2.1325,-2.1211,-2.1211,-2.1211,-2.1211,-2.1211,-2.1211,-3.024,-2.9419,-2.9263,-2.8973,-2.851,-2.851,-2.851,-2.851,-2.851,0.0,0.0,-2.7615,-2.6699,-2.5913,-2.5942,-2.5895,-2.5895,-2.5895,-2.5895,-2.5895,-2.5895,-2.5895,-2.5895,-2.5895,-2.5895,-2.5895,-2.5895,-2.5895,-2.5895,-2.5895,-2.5812,-2.5728,-2.5738,-2.5644,-2.5295,-2.468,-2.4069,-2.327,-2.2473,-2.1863,-2.1596,-2.0107,-1.8854,-1.783,-1.7244,-1.6375,-1.5232,-1.495,-1.4591,-1.4134,-1.387,-1.3356,-1.2562,-1.2232,-1.1994,-1.1753,-1.1511,-1.1606,-1.2161,-1.2178,-1.2364,-1.2856,-1.4793,-1.651,-1.786,-1.9008,-1.9576,-1.9383,-1.9583,-1.9576,-1.9279,-1.9376,-1.9376,-1.9376,-1.9383,-1.9879,-2.0885,-2.1489,-2.2282,-2.3285,-2.459,-2.5401,-2.5489,-2.6081,-2.6764,-2.6668,-2.6562,-2.6764,-2.6764,-2.6764,-2.6774,-2.6572,-2.6466,-2.6668,-2.6709,-2.6825,-2.7215,-2.716,-2.7186,-2.7168,-2.7103,-2.6654,-2.5809,-2.4872,-2.4214,-2.3328,-2.2222,-2.1774,-2.1546,-2.1218,-2.1211,-2.1211,-2.1211,-2.1211,-2.1211,-2.9137,-2.9341,-2.8816,-2.8578,-2.851,-2.851,-2.851,-2.851,-2.851,-2.8515,-2.8462,-2.7569,-2.6685,-2.5903,-2.5902,-2.5895,-2.5895,-2.5895,-2.5895,-2.5895,-2.5895,-2.5895,-2.5895,-2.5895,-2.5895,-2.5895,-2.5895,-2.5895,-2.5895,-2.5906,-2.5633,-2.5115,-2.5031,-2.4433,-2.3319,-2.2658,-2.2041,-2.1436,-2.1765,-2.1418,-2.0192,-1.906,-1.8155,-1.7552,-1.64,-1.5521,-1.4957,-1.4681,-1.4321,-1.3973,-1.3513,-1.3152,-1.2989,-1.1662,-1.1292,-1.2103,-1.1461,-1.1283,-1.2091,-1.228,-1.3048,-1.4465,-1.5435,-1.638,-1.7528,-1.8916,-1.9583,-1.9376,-1.9576,-1.9576,-1.9383,-1.9472,-1.9576,-1.968,-1.9887,-2.0086,-2.0277,-2.1293,-2.2089,-2.2291,-2.3493,-2.4295,-2.4393,-2.459,-2.4777,-2.4679,-2.4875,-2.4679,-2.4777,-2.5382,-2.5489,-2.4786,-2.4581,-2.4581,-2.4796,-2.4618,-2.5013,-2.5161,-2.5479,-2.57,-2.5793,-2.5098,-2.4488,-2.4103,-2.2998,-2.223,-2.1782,-2.1554,-2.1318,-2.1211,-2.1211,-2.1211,-2.1211,-2.1211,-2.1211,-2.8163,-2.8053,-2.8035,-2.8077,-2.8114,-2.839,-2.8259,-2.7846,-2.7765,-2.8101,-2.8393,-2.7592,-2.6696,-2.5937,-2.5913,-2.5895,-2.5895,-2.5895,-2.5895,-2.5906,-2.5549,-2.5369,-2.5295,-2.4946,-2.4935,-2.5285,-2.538,-2.538,-2.538,-2.538,-2.5031,-2.4327,-2.4327,-2.3627,-2.2413,-2.2129,-2.123,-1.9621,-2.0339,-2.0167,-1.908,-1.8279,-1.746,-1.635,-1.5749,-1.5133,-1.4589,-1.449,-1.4303,-1.4129,-1.3174,-1.2558,-1.2278,-1.0933,-1.0285,-1.0571,-1.0223,-1.042,-1.1376,-1.1995,-1.2762,-1.3511,-1.4476,-1.5227,-1.566,-1.8297,-1.968,-1.9383,-1.968,-1.9783,-1.9383,-1.9376,-1.948,-1.948,-1.968,-1.9983,-2.0086,-2.0696,-2.131,-2.1514,-2.2509,-2.3211,-2.3203,-2.3701,-2.4088,-2.4088,-2.4088,-2.389,-2.3302,-2.361,-2.4007,-2.4088,-2.4088,-2.4088,-2.4088,-2.4088,-2.417,-2.4454,-2.4194,-2.4174,-2.413,-2.3553,-2.3086,-2.2958,-2.2222,-2.1782,-2.1668,-2.1439,-2.1211,-2.1211,-2.1211,-2.1211,-2.1211,-2.1211,-2.1211,-2.725,-2.6971,-2.7368,-2.7609,-2.7675,-2.7901,-2.774,-2.7174,-2.6928,-2.7195,-2.7743,-2.6996,-2.6202,-2.5471,-2.5411,-2.5464,-2.5454,-2.5464,-2.5464,-2.5369,-2.4861,-2.468,-2.4584,-2.4069,-2.4166,-2.4721,-2.469,-2.47,-2.4807,-2.47,-2.4251,-2.3541,-2.3066,-2.2356,-2.1587,-2.1132,-2.0042,-1.8326,-1.8619,-1.8619,-1.7971,-1.7505,-1.656,-1.5527,-1.5248,-1.4867,-1.4394,-1.4298,-1.4298,-1.4298,-1.3125,-1.215,-1.156,-1.0194,-0.9275,-0.9105,-0.8958,-0.9556,-1.0826,-1.167,-1.2223,-1.2659,-1.363,-1.4272,-1.4589,-1.7331,-1.9138,-1.9056,-1.9576,-1.9776,-1.9376,-1.9376,-1.9376,-1.9376,-1.9583,-1.9887,-2.0086,-2.03,-2.0514,-2.0806,-2.142,-2.1912,-2.2224,-2.2811,-2.3203,-2.3103,-2.3294,-2.2902,-2.2114,-2.192,-2.2308,-2.2902,-2.3294,-2.3194,-2.3294,-2.3203,-2.3103,-2.3194,-2.2818,-2.249,-2.2429,-2.2134,-2.1934,-2.1904,-2.1782,-2.1554,-2.1554,-2.1439,-2.1211,-2.1211,-2.1211,-2.1211,-2.1211,-2.0859,-2.0974,-2.6528,-2.6899,-2.6896,-2.7284,-2.7538,-2.6892,-2.676,-2.6964,-2.608,-2.5782,-2.5923,-2.5338,-2.4648,-2.4039,-2.4049,-2.4059,-2.4059,-2.3973,-2.4059,-2.4059,-2.3887,-2.3887,-2.3887,-2.38,-2.4034,-2.4461,-2.411,-2.411,-2.4471,-2.4024,-2.3551,-2.2687,-2.081,-1.9909,-1.9877,-1.858,-1.7662,-1.739,-1.7037,-1.6864,-1.677,-1.6008,-1.5527,-1.5439,-1.4771,-1.4388,-1.4298,-1.4298,-1.4298,-1.4202,-1.3238,-1.236,-1.1468,-0.9801,-0.8832,-0.8752,-0.8299,-0.8813,-1.0596,-1.1129,-1.1782,-1.3098,-1.3738,-1.4272,-1.4793,-1.5956,-1.7022,-1.7681,-1.8945,-1.9472,-1.9376,-1.9472,-1.9576,-1.9576,-1.9879,-2.0078,-2.0086,-2.0086,-2.0189,-2.0189,-2.0388,-2.0395,-2.0814,-2.1011,-2.1019,-2.1208,-2.1208,-2.1105,-2.0696,-2.0593,-2.0593,-2.0688,-2.0901,-2.1113,-2.1113,-2.0822,-2.1011,-2.0814,-2.0755,-2.0969,-2.1079,-2.122,-2.1272,-2.136,-2.1203,-2.1081,-2.1089,-2.1211,-2.0981,-2.0622,-2.0737,-2.1089,-2.0974,-2.0263,-1.991,-2.5456,-2.5304,-2.5608,-2.5727,-2.58,-2.5723,-2.5392,-2.5013,-2.4777,-2.4272,-2.367,-2.3339,-2.2911,-2.263,-2.3441,-2.38,-2.38,-2.38,-2.38,-2.38,-2.3377,-2.3222,-2.3125,-2.2775,-2.2901,-2.3583,-2.3349,-2.3349,-2.3388,-2.2334,-2.1221,-2.0223,-1.919,-1.8656,-1.8303,-1.7669,-1.6922,-1.6183,-1.6001,-1.5724,-1.5343,-1.5343,-1.5153,-1.4777,-1.449,-1.4298,-1.4202,-1.3709,-1.3318,-1.3221,-1.1458,-1.0284,-0.9985,-0.8315,-0.7332,-0.7444,-0.7846,-0.8371,-0.9326,-0.9926,-1.0789,-1.1891,-1.2219,-1.2644,-1.3403,-1.4471,-1.5227,-1.5767,-1.7457,-1.8624,-1.8422,-1.8952,-1.948,-1.948,-1.968,-1.9887,-1.9879,-1.9975,-2.0086,-2.0086,-2.0086,-2.0086,-2.0197,-2.03,-2.03,-2.0292,-2.03,-2.0197,-2.0086,-2.0086,-2.0086,-2.0181,-2.0292,-2.0403,-2.03,-2.03,-2.0189,-2.0109,-2.0185,-2.0302,-2.033,-2.0644,-2.0862,-2.0874,-2.038,-2.0134,-2.0026,-1.9325,-1.8971,-1.9087,-1.8971,-1.8971,-1.8971,-1.85,-1.85,-2.4636,-2.4177,-2.4289,-2.4343,-2.4292,-2.4415,-2.4069,-2.3512,-2.3488,-2.3027,-2.2204,-2.2008,-2.1859,-2.1839,-2.2824,-2.3193,-2.3193,-2.3193,-2.3193,-2.3202,-2.2706,-2.253,-2.2441,-2.1998,-2.182,-2.2087,-2.2078,-2.1989,-2.1731,-2.0322,-1.9023,-1.8303,-1.7602,-1.7238,-1.7008,-1.6734,-1.5988,-1.5242,-1.5051,-1.4867,-1.4394,-1.4573,-1.4567,-1.4292,-1.4004,-1.3908,-1.3811,-1.2829,-1.2145,-1.2145,-1.0083,-0.8905,-0.8609,-0.7428,-0.6637,-0.6456,-0.7276,-0.7886,-0.8207,-0.9029,-1.0025,-1.0806,-1.1025,-1.1358,-1.2237,-1.2985,-1.3408,-1.384,-1.5654,-1.6929,-1.7252,-1.7891,-1.8311,-1.8415,-1.8729,-1.9153,-1.9146,-1.9465,-1.9879,-1.9879,-1.9879,-1.9879,-1.9983,-2.0078,-2.0078,-1.9975,-1.9665,-1.945,-1.9346,-1.9138,-1.8812,-1.8923,-1.8923,-1.9242,-1.9768,-1.9561,-1.9554,-1.9346,-1.9168,-1.8745,-1.9135,-1.9339,-1.9534,-1.9025,-1.8909,-1.8822,-1.8732,-1.7917,-1.7325,-1.7449,-1.7331,-1.7443,-1.7683,-1.7214,-1.6979,-2.412,-2.3963,-2.3338,-2.3263,-2.3678,-2.2924,-2.2948,-2.3223,-2.2339,-2.2004,-2.2069,-2.1741,-2.1722,-2.1606,-2.1713,-2.182,-2.182,-2.19,-2.1909,-2.182,-2.1731,-2.1741,-2.1731,-2.1642,-2.106,-2.0296,-2.0413,-1.9877,-1.8756,-1.7872,-1.7687,-1.784,-1.5846,-1.5181,-1.5859,-1.5134,-1.4484,-1.449,-1.4394,-1.4292,-1.4106,-1.3318,-1.3312,-1.3902,-1.3312,-1.2727,-1.2635,-1.1556,-1.0877,-1.0877,-0.9899,-0.911,-0.8414,-0.7826,-0.7135,-0.6559,-0.6769,-0.722,-0.7995,-0.855,-0.9379,-1.0378,-1.048,-1.1046,-1.1932,-1.1686,-1.1782,-1.2436,-1.3619,-1.4798,-1.5755,-1.618,-1.6393,-1.6393,-1.7147,-1.7681,-1.7681,-1.8527,-1.9272,-1.916,-1.9049,-1.9049,-1.9465,-1.9983,-1.9665,-1.9354,-1.8722,-1.7989,-1.7779,-1.6929,-1.6493,-1.6387,-1.6599,-1.6922,-1.893,-1.8722,-1.7989,-1.7779,-1.7371,-1.6461,-1.6531,-1.6692,-1.7055,-1.7313,-1.7438,-1.7475,-1.7418,-1.7331,-1.7097,-1.6979,-1.6862,-1.6862,-1.6509,-1.6161,-1.5806,-2.3084,-2.2563,-2.1756,-2.1553,-2.1727,-2.1629,-2.1629,-2.1627,-2.1126,-2.1062,-2.1139,-2.0288,-2.0119,-2.0468,-2.0019,-2.0538,-2.1642,-2.1731,-2.1365,-2.0907,-2.0817,-2.0447,-1.9894,-1.9803,-1.9928,-1.9779,-1.9463,-1.8688,-1.7576,-1.7181,-1.6626,-1.5893,-1.5,-1.4721,-1.4854,-1.458,-1.4298,-1.4196,-1.3613,-1.3312,-1.3221,-1.2242,-1.1858,-1.2047,-1.1853,-1.1658,-1.1463,-1.0391,-0.9698,-0.9497,-0.8421,-0.7633,-0.7335,-0.7033,-0.6736,-0.6458,-0.6665,-0.6904,-0.7249,-0.7566,-0.8269,-0.9382,-0.8806,-0.902,-0.9908,-1.0241,-1.068,-1.1455,-1.1887,-1.2644,-1.3722,-1.5007,-1.5861,-1.5968,-1.6293,-1.6505,-1.6605,-1.6929,-1.714,-1.714,-1.7134,-1.7134,-1.745,-1.7338,-1.7338,-1.7233,-1.6922,-1.6605,-1.6505,-1.608,-1.5755,-1.5861,-1.5968,-1.6174,-1.6922,-1.7022,-1.6605,-1.6499,-1.6199,-1.6092,-1.6054,-1.6047,-1.639,-1.6434,-1.6362,-1.6132,-1.6188,-1.5688,-1.5693,-1.5456,-1.5337,-1.5569,-1.4981,-1.4986,-1.4634,-2.2134,-2.1385,-2.0867,-2.0576,-2.0605,-2.0562,-2.0443,-2.0107,-1.9689,-1.9765,-1.9821,-1.9011,-1.8999,-1.9336,-1.9012,-1.9438,-2.0727,-2.0727,-2.0447,-1.9894,-1.9795,-1.943,-1.888,-1.8796,-1.8827,-1.869,-1.79,-1.703,-1.6285,-1.6089,-1.5527,-1.4682,-1.4592,-1.4298,-1.3902,-1.3806,-1.3709,-1.3221,-1.2533,-1.2242,-1.2052,-1.1072,-1.0489,-1.0293,-1.0096,-0.9989,-1.0092,-0.9015,-0.8326,-0.8021,-0.7235,-0.6642,-0.6642,-0.6542,-0.6442,-0.6461,-0.6665,-0.6804,-0.6831,-0.7021,-0.7598,-0.8269,-0.7697,-0.7575,-0.8342,-0.9016,-0.9801,-1.0464,-1.0684,-1.1013,-1.1773,-1.328,-1.4465,-1.4793,-1.5114,-1.5334,-1.5334,-1.5761,-1.5968,-1.6074,-1.6074,-1.5968,-1.5861,-1.5968,-1.5968,-1.5861,-1.5648,-1.5334,-1.5334,-1.5007,-1.4793,-1.4787,-1.4578,-1.4578,-1.4787,-1.468,-1.5108,-1.5114,-1.4793,-1.49,-1.5053,-1.5241,-1.5342,-1.5367,-1.5281,-1.4945,-1.4636,-1.4138,-1.3808,-1.3569,-1.4043,-1.4396,-1.4162,-1.3923,-1.3684,-2.1308,-2.0634,-2.0566,-2.0411,-2.0245,-1.9576,-1.929,-1.9071,-1.833,-1.8161,-1.8314,-1.8182,-1.8214,-1.8632,-1.8411,-1.8696,-1.8788,-1.8788,-1.8788,-1.8788,-1.8788,-1.8696,-1.8511,-1.8419,-1.7863,-1.6951,-1.5534,-1.4879,-1.4777,-1.458,-1.4292,-1.4202,-1.4004,-1.3511,-1.2727,-1.263,-1.2242,-1.1658,-1.1268,-1.117,-1.1077,-0.9903,-0.9217,-0.9019,-0.8028,-0.7928,-0.8707,-0.763,-0.7042,-0.6842,-0.6642,-0.6437,-0.6239,-0.625,-0.6456,-0.6488,-0.6673,-0.679,-0.6834,-0.7027,-0.7265,-0.7379,-0.7263,-0.7254,-0.7467,-0.8029,-0.8813,-0.9581,-0.9798,-0.9908,-1.0127,-1.0895,-1.1778,-1.2436,-1.3516,-1.4164,-1.4374,-1.5114,-1.5861,-1.5648,-1.5535,-1.5755,-1.5755,-1.5535,-1.5322,-1.5221,-1.4691,-1.4164,-1.4164,-1.3511,-1.2654,-1.2545,-1.2753,-1.2856,-1.2644,-1.2432,-1.3192,-1.3619,-1.3192,-1.3083,-1.3325,-1.3451,-1.3431,-1.3424,-1.2919,-1.2658,-1.2631,-1.2341,-1.2586,-1.2466,-1.2955,-1.2955,-1.259,-1.2225,-1.2715,-1.9923,-1.9608,-1.9036,-1.8798,-1.8798,-1.839,-1.8066,-1.7859,-1.7004,-1.6861,-1.7075,-1.657,-1.6458,-1.6686,-1.6757,-1.6756,-1.6756,-1.6756,-1.7124,-1.7598,-1.7692,-1.7404,-1.685,-1.6567,-1.6197,-1.5642,-1.5172,-1.449,-1.3703,-1.3516,-1.3119,-1.2344,-1.215,-1.2047,-1.1658,-1.1658,-1.1468,-1.1175,-1.0485,-0.9998,-0.9805,-0.8726,-0.7935,-0.7537,-0.725,-0.7153,-0.715,-0.6954,-0.6756,-0.6458,-0.6461,-0.5751,-0.4734,-0.5648,-0.6398,-0.6578,-0.6714,-0.6844,-0.6934,-0.7062,-0.7154,-0.7154,-0.7154,-0.7152,-0.7149,-0.7482,-0.8039,-0.8699,-0.892,-0.9144,-0.9691,-1.0021,-1.057,-1.145,-1.2327,-1.2866,-1.2866,-1.3181,-1.3403,-1.3506,-1.3506,-1.3506,-1.3506,-1.3506,-1.3388,-1.3501,-1.3078,-1.2866,-1.2758,-1.2427,-1.2114,-1.1673,-1.1564,-1.1114,-1.0891,-1.0777,-1.1101,-1.1869,-1.1769,-1.1778,-1.1919,-1.2009,-1.1858,-1.1536,-1.0981,-1.0782,-1.0737,-1.0767,-1.1008,-1.0763,-1.0521,-1.04,-1.04,-1.0642,-1.1129,-1.8816,-1.8727,-1.8238,-1.7997,-1.7917,-1.7423,-1.7107,-1.6722,-1.5829,-1.5611,-1.577,-1.548,-1.5402,-1.555,-1.5422,-1.5248,-1.5255,-1.5261,-1.533,-1.5602,-1.6379,-1.6197,-1.5635,-1.4867,-1.4286,-1.3908,-1.3715,-1.3221,-1.2441,-1.2339,-1.195,-1.1365,-1.117,-1.0974,-1.0685,-1.0587,-1.0489,-0.9998,-0.9217,-0.8829,-0.8638,-0.7846,-0.7256,-0.6959,-0.6865,-0.6258,-0.5448,-0.616,-0.6263,-0.5653,-0.5866,-0.5356,-0.3527,-0.383,-0.4776,-0.6321,-0.6747,-0.6861,-0.698,-0.7086,-0.7154,-0.7154,-0.7154,-0.7154,-0.7154,-0.7043,-0.7152,-0.7595,-0.7485,-0.7593,-0.8029,-0.8468,-0.9023,-0.9691,-1.0566,-1.1004,-1.1114,-1.0887,-1.0887,-1.0996,-1.0887,-1.0773,-1.0773,-1.0773,-1.0777,-1.0777,-1.0777,-1.0777,-1.0777,-1.0668,-1.0449,-1.0123,-0.9896,-0.9563,-0.9233,-0.9123,-0.9127,-0.9786,-1.0449,-1.0785,-1.1021,-1.1023,-1.0952,-1.0566,-1.0115,-0.9968,-0.9795,-0.9428,-0.9428,-0.8821,-0.8456,-0.9064,-0.9428,-0.9306,-0.967,-1.7917,-1.7917,-1.7836,-1.7674,-1.7594,-1.6632,-1.6131,-1.5794,-1.4734,-1.4314,-1.4415,-1.448,-1.4747,-1.4916,-1.4331,-1.4196,-1.4196,-1.4196,-1.3607,-1.3403,-1.4268,-1.4956,-1.4758,-1.3698,-1.2732,-1.195,-1.156,-1.1272,-1.1175,-1.117,-1.1072,-1.0783,-1.0681,-1.0386,-0.9505,-0.941,-0.8817,-0.8035,-0.764,-0.765,-0.7865,-0.7059,-0.6662,-0.6773,-0.6472,-0.566,-0.4541,-0.5567,-0.5363,-0.363,-0.4649,-0.4549,-0.2924,-0.1109,-0.2244,-0.5311,-0.6238,-0.6457,-0.6671,-0.6656,-0.6707,-0.6707,-0.6707,-0.7043,-0.6594,-0.6262,-0.6262,-0.6374,-0.5929,-0.5592,-0.5815,-0.6369,-0.7035,-0.7479,-0.8579,-0.9127,-0.8903,-0.8566,-0.8786,-0.8903,-0.8459,-0.8125,-0.8455,-0.8455,-0.8345,-0.8345,-0.8455,-0.8566,-0.8566,-0.8786,-0.8235,-0.8125,-0.8241,-0.802,-0.7802,-0.7578,-0.7581,-0.7802,-0.8579,-0.9133,-0.9621,-0.9619,-0.9315,-0.9111,-0.8948,-0.8784,-0.8459,-0.7728,-0.7606,-0.7362,-0.7606,-0.8334,-0.8213,-0.7728,-0.7606,-1.7025,-1.6935,-1.6221,-1.5906,-1.5816,-1.5151,-1.4894,-1.4643,-1.3633,-1.3076,-1.2874,-1.2831,-1.2763,-1.2487,-1.2914,-1.3125,-1.3119,-1.2926,-1.2732,-1.2339,-1.2431,-1.263,-1.263,-1.2242,-1.1755,-1.1268,-1.0974,-1.0779,-1.0096,-0.9899,-0.9509,-0.8825,-0.8817,-0.8322,-0.7428,-0.7329,-0.7033,-0.6539,-0.6439,-0.6756,-0.7071,-0.5746,-0.4632,-0.4437,-0.5562,-0.5874,-0.5567,-0.6088,-0.4556,-0.1211,-0.1313,-0.1515,-0.0,-0.0,-0.0,-0.1899,-0.3324,-0.4365,-0.4764,-0.491,-0.4921,-0.5033,-0.5033,-0.4585,-0.4247,-0.5144,-0.5481,-0.5592,-0.5483,-0.5371,-0.5371,-0.5594,-0.5704,-0.5592,-0.7249,-0.8462,-0.8235,-0.8125,-0.8125,-0.8238,-0.8017,-0.7793,-0.7683,-0.7683,-0.7683,-0.7793,-0.7683,-0.7683,-0.7462,-0.7462,-0.7241,-0.7027,-0.703,-0.6589,-0.6366,-0.6144,-0.6033,-0.6033,-0.648,-0.7043,-0.7556,-0.7772,-0.7232,-0.6577,-0.6561,-0.6508,-0.5782,-0.5051,-0.5172,-0.5902,-0.5782,-0.6025,-0.5538,-0.5049,-0.5172,-1.5966,-1.5545,-1.4901,-1.4398,-1.388,-1.3548,-1.3372,-1.3112,-1.2437,-1.2009,-1.1824,-1.1876,-1.1823,-1.1655,-1.1742,-1.1869,-1.1838,-1.1658,-1.117,-1.0583,-1.0293,-1.0391,-1.0681,-1.0779,-1.0485,-0.9899,-0.9899,-0.9209,-0.8418,-0.8219,-0.7624,-0.6825,-0.6628,-0.6331,-0.5829,-0.5729,-0.5834,-0.5839,-0.5842,-0.6258,-0.729,-0.5861,-0.3731,-0.2622,-0.3131,-0.374,-0.3639,-0.3643,-0.2427,-0.0,-0.0,-0.0,-0.0,-0.0,-0.0,-0.0,-0.1194,-0.1976,-0.2116,-0.2573,-0.2908,-0.3131,-0.3469,-0.3357,-0.3018,-0.3914,-0.5037,-0.4475,-0.459,-0.4592,-0.4702,-0.4814,-0.4702,-0.459,-0.5919,-0.6914,-0.6581,-0.6137,-0.6246,-0.6357,-0.6357,-0.6135,-0.6135,-0.6246,-0.6248,-0.6026,-0.5917,-0.5915,-0.5915,-0.6137,-0.6248,-0.5922,-0.559,-0.5258,-0.5035,-0.4923,-0.4923,-0.4923,-0.5075,-0.5522,-0.5939,-0.6256,-0.5907,-0.5425,-0.4767,-0.4195,-0.4073,-0.395,-0.4195,-0.4561,-0.395,-0.395,-0.395,-0.395,-0.395,-1.465,-1.3964,-1.3886,-1.3275,-1.2425,-1.2089,-1.2003,-1.1655,-1.1316,-1.1154,-1.1121,-1.1398,-1.1282,-1.1666,-1.0707,-1.0509,-1.0583,-1.0092,-0.9106,-0.8319,-0.7925,-0.812,-0.8704,-0.9008,-0.8513,-0.7826,-0.7637,-0.7132,-0.6631,-0.6331,-0.5929,-0.5527,-0.5227,-0.4926,-0.5031,-0.4929,-0.5031,-0.5035,-0.4736,-0.5046,-0.5766,-0.5056,-0.3232,-0.0,-0.0,-0.0,-0.0,-0.0,-0.0101,-0.0,0.0202,-0.0,-0.0,-0.0,-0.0,-0.0,-0.0,0.011,0.0558,-0.0447,-0.0894,-0.1118,-0.2573,-0.3021,-0.1789,-0.2797,-0.3583,-0.291,-0.3136,-0.3249,-0.3586,-0.392,-0.4033,-0.381,-0.4257,-0.4369,-0.4369,-0.3923,-0.3811,-0.4257,-0.3921,-0.3699,-0.3587,-0.3587,-0.3699,-0.4808,-0.4587,-0.4698,-0.4698,-0.4698,-0.4587,-0.4367,-0.4033,-0.381,-0.3811,-0.3811,-0.381,-0.3926,-0.4092,-0.4465,-0.4993,-0.5184,-0.515,-0.4744,-0.43,-0.4073,-0.395,-0.395,-0.395,-0.395,-0.395,-0.395,-0.395,-0.395,-0.395,-1.319,-1.2936,-1.2607,-1.2351,-1.2009,-1.1671,-1.1413,-1.1235,-1.0544,-1.0202,-1.0076,-0.9714,-0.9639,-0.9655,-0.9354,-0.9356,-0.9205,-0.8216,-0.6825,-0.5722,-0.5525,-0.5625,-0.6121,-0.6725,-0.6526,-0.5827,-0.5525,-0.5325,-0.5125,-0.5227,-0.5329,-0.5534,-0.5033,-0.5338,-0.4638,-0.4435,-0.3934,-0.2826,-0.2523,-0.222,-0.1817,-0.0,-0.0,-0.0,-0.0,-0.0,-0.0,-0.0,-0.0,0.1014,0.1434,0.1449,0.0835,0.0746,0.0758,0.0766,0.0776,0.1005,0.1344,0.1233,0.1121,0.0784,-0.0224,-0.0672,-0.0112,-0.056,-0.1233,-0.1233,-0.1458,-0.1905,-0.2465,-0.2575,-0.2912,-0.325,-0.3587,-0.3698,-0.3698,-0.3699,-0.3698,-0.3698,-0.3699,-0.3587,-0.3587,-0.3587,-0.3587,-0.3587,-0.3587,-0.3587,-0.3587,-0.3587,-0.3587,-0.3587,-0.3587,-0.3587,-0.3587,-0.359,-0.3485,-0.3503,-0.3549,-0.325,-0.3767,-0.4535,-0.4482,-0.4281,-0.4064,-0.395,-0.395,-0.395,-0.395,-0.395,-0.395,-0.395,-0.395,-0.395,-0.395,-1.2425,-1.1997,-1.1666,-1.1241,-1.0722,-1.0381,-1.012,-0.9946,-0.9519,-0.8986,-0.8656,-0.8585,-0.8303,-0.758,-0.7773,-0.7724,-0.7195,-0.6326,-0.5525,-0.4922,-0.4824,-0.4524,-0.4124,-0.4628,-0.4726,-0.4624,-0.4824,-0.4624,-0.4225,-0.4126,-0.4128,-0.383,-0.3627,-0.3124,-0.3027,-0.2927,-0.2524,-0.1919,-0.1516,-0.0303,0.2324,-0.0,-0.0,-0.0,-0.0,0.0909,-0.0,-0.0,-0.0,0.3788,0.3846,0.3046,0.1583,0.1294,0.1315,0.1329,0.1337,0.1458,0.1683,0.1795,0.1795,0.1907,0.1234,0.1009,0.1009,0.0897,0.0448,-0.0112,-0.0673,-0.1121,-0.1569,-0.1569,-0.1905,-0.213,-0.2354,-0.2353,-0.2466,-0.3026,-0.3587,-0.3587,-0.3587,-0.3587,-0.3587,-0.3363,-0.3475,-0.3475,-0.3475,-0.3475,-0.3587,-0.3587,-0.3587,-0.3587,-0.3587,-0.3587,-0.3587,-0.3482,-0.327,-0.3302,-0.335,-0.2697,-0.2379,-0.3257,-0.4036,-0.3812,-0.3579,-0.395,-0.395,-0.395,-0.3826,-0.3826,-0.3826,-0.395,-0.395,-0.395,-0.395,-1.1826,-1.1068,-1.0809,-1.0125,-0.9078,-0.8732,-0.8468,-0.8208,-0.8124,-0.758,-0.7146,-0.7882,-0.7333,-0.6128,-0.5989,-0.564,-0.5088,-0.4726,-0.4423,-0.4024,-0.3924,-0.3524,-0.3123,-0.3123,-0.3425,-0.4225,-0.4124,-0.3624,-0.3224,-0.3225,-0.2925,-0.1716,-0.0707,-0.0101,0.0202,-0.0101,-0.0202,-0.0303,-0.0303,0.111,0.4347,0.2523,-0.0,-0.0,-0.0,0.2522,0.5567,0.6816,0.7379,0.6635,0.6661,0.5122,0.333,0.2394,0.2319,0.2463,0.2575,0.2688,0.28,0.2576,0.2576,0.2354,0.1905,0.1905,0.2017,0.1794,0.1234,0.0785,0.0112,-0.0336,-0.0673,-0.0673,-0.0785,-0.1009,-0.1009,-0.0897,-0.1121,-0.2353,-0.2802,-0.3026,-0.269,-0.2578,-0.2802,-0.269,-0.3026,-0.325,-0.325,-0.325,-0.325,-0.325,-0.2914,-0.2802,-0.2578,-0.2466,-0.2578,-0.2583,-0.2481,-0.2519,-0.2674,-0.2126,-0.144,-0.2065,-0.2822,-0.32,-0.3208,-0.3331,-0.3455,-0.3208,-0.3331,-0.3579,-0.3826,-0.395,-0.395,-0.395,-0.3826,-1.0202,-0.9864,-0.9689,-0.8899,-0.7845,-0.7492,-0.6962,-0.6254,-0.6343,-0.5985,-0.5897,-0.6624,-0.6406,-0.5361,-0.4549,-0.4075,-0.3497,-0.3321,-0.292,-0.2218,-0.2117,-0.1917,-0.1714,-0.1614,-0.1917,-0.2019,-0.2119,-0.2017,-0.1917,-0.1919,-0.1615,-0.1111,0.0605,0.2522,0.3636,0.3635,0.242,0.2217,0.2217,0.3228,0.3934,0.4643,0.4036,0.2923,0.2821,0.3731,0.5067,0.719,0.8313,0.8133,0.8375,0.7385,0.5999,0.5076,0.4784,0.4467,0.447,0.436,0.436,0.4582,0.4693,0.4357,0.313,0.2573,0.2798,0.2465,0.2129,0.1682,0.1346,0.1009,0.0224,0.0224,-0.0224,-0.0561,-0.0673,-0.0673,-0.0785,-0.1121,-0.1345,-0.1233,-0.1233,-0.1569,-0.1793,-0.1905,-0.2017,-0.2017,-0.2017,-0.2017,-0.1905,-0.1793,-0.1569,-0.1345,-0.1234,-0.1234,-0.1234,-0.1349,-0.1356,-0.138,-0.1402,-0.1305,-0.0843,-0.1099,-0.1476,-0.1602,-0.1973,-0.2343,-0.2466,-0.2466,-0.259,-0.2714,-0.3208,-0.3826,-0.3455,-0.3085,-0.3455,-0.8623,-0.8277,-0.8101,-0.7573,-0.6779,-0.6517,-0.6163,-0.5722,-0.5722,-0.5275,-0.5008,-0.5382,-0.4947,-0.3769,-0.3041,-0.2333,-0.1698,-0.1511,-0.0907,-0.0101,0.0101,0.0101,0.0202,0.0202,-0.0,-0.0101,-0.0202,-0.0302,-0.0504,-0.0101,0.0101,0.0504,0.2016,0.4038,0.5665,0.5358,0.4847,0.4845,0.4845,0.4843,0.4841,0.6163,0.5854,0.5546,0.5247,0.5567,0.634,0.731,0.8495,0.852,0.8669,0.8435,0.7844,0.7332,0.6589,0.5695,0.5472,0.5472,0.5472,0.5361,0.5361,0.5248,0.4244,0.4021,0.4246,0.4026,0.3358,0.28,0.2018,0.1683,0.1121,0.1233,0.0897,0.0673,0.0561,0.0561,0.0448,0.0448,0.0561,0.0561,-0.0224,-0.0785,-0.1009,-0.1121,-0.1009,-0.0897,-0.0785,-0.0673,-0.0561,-0.0448,-0.0224,-0.0336,-0.0336,-0.0448,-0.0337,-0.0339,-0.0341,-0.0231,-0.0235,-0.0239,-0.0121,-0.0245,0.0123,0.037,-0.0123,-0.111,-0.1479,-0.1602,-0.1726,-0.1726,-0.2096,-0.2343,-0.2343,-0.2343,-0.259,-0.739,-0.7037,-0.6776,-0.6337,-0.5716,-0.5542,-0.5275,-0.5097,-0.5008,-0.4383,-0.3671,-0.395,-0.3301,-0.18,-0.1061,-0.0491,0.0302,0.0302,0.0806,0.131,0.1613,0.1813,0.2014,0.2013,0.1711,0.1308,0.2214,0.1913,0.2116,0.2417,0.2518,0.2922,0.3629,0.4541,0.5967,0.6266,0.6472,0.6472,0.657,0.6564,0.6659,0.6859,0.7059,0.7172,0.729,0.7459,0.784,0.8163,0.8391,0.8638,0.8747,0.8811,0.8913,0.8937,0.8042,0.6478,0.6142,0.6142,0.6142,0.6253,0.6475,0.6586,0.6255,0.6033,0.5695,0.5475,0.4916,0.4137,0.3469,0.3023,0.3022,0.2799,0.2799,0.28,0.2799,0.2688,0.2465,0.2465,0.2465,0.1905,0.0785,0.056,0.0672,0.0784,0.1009,0.1009,0.1121,0.0785,0.0897,0.0896,0.0896,0.056,0.0448,0.0336,0.0338,0.0569,0.0575,0.0701,0.0593,0.0603,0.0731,0.074,0.1234,0.1482,0.0987,-0.0,-0.037,-0.0616,-0.0739,-0.074,-0.0863,-0.1109,-0.1479,-0.1602,-0.1603,-0.7037,-0.6779,-0.6334,-0.5539,-0.4565,-0.4476,-0.3851,-0.296,-0.2959,-0.2601,-0.1972,-0.2156,-0.1559,-0.019,0.0691,0.1203,0.1409,0.1612,0.1913,0.2316,0.2517,0.2618,0.2517,0.2316,0.2718,0.2816,0.4533,0.5655,0.5148,0.5251,0.5557,0.5555,0.5448,0.616,0.6261,0.6556,0.6751,0.6748,0.6948,0.7045,0.7144,0.715,0.7256,0.7284,0.7462,0.7654,0.8033,0.8286,0.8451,0.8713,0.8845,0.891,0.8937,0.8937,0.8826,0.8602,0.8491,0.8488,0.8266,0.8152,0.8263,0.8377,0.839,0.8054,0.7374,0.6478,0.5919,0.6026,0.5582,0.525,0.5139,0.547,0.5582,0.5359,0.5027,0.4806,0.4585,0.4027,0.4029,0.4029,0.3131,0.3134,0.3246,0.3137,0.3138,0.3138,0.2913,0.2578,0.2242,0.2129,0.2129,0.1905,0.1683,0.1572,0.1588,0.1603,0.1742,0.1887,0.1796,0.1579,0.1714,0.1851,0.1851,0.1975,0.1481,0.1481,0.1357,0.0986,0.0493,0.0247,0.0123,-0.0493,-0.0986,-0.0986,-0.0616,-0.4643,-0.5008,-0.4739,-0.4208,-0.3497,-0.3318,-0.2689,-0.1792,-0.1523,-0.0985,-0.0358,-0.0627,-0.0,0.124,0.1685,0.1914,0.2418,0.282,0.3324,0.3725,0.4024,0.4225,0.4427,0.4427,0.4427,0.483,0.5639,0.6042,0.6453,0.6456,0.6456,0.6456,0.6453,0.6345,0.645,0.6542,0.6642,0.6842,0.7042,0.7238,0.7459,0.761,0.7658,0.787,0.8001,0.8203,0.8312,0.8398,0.8652,0.8818,0.892,0.8933,0.8937,0.8937,0.8937,0.8937,0.8819,0.8819,0.8826,0.9158,0.9272,0.9382,0.9389,0.9158,0.8706,0.7811,0.703,0.7138,0.6581,0.6359,0.6359,0.6251,0.6251,0.6248,0.6692,0.6251,0.5917,0.5806,0.5472,0.5475,0.5475,0.5365,0.5144,0.4477,0.4142,0.403,0.3807,0.3583,0.3249,0.3026,0.3138,0.325,0.3144,0.3038,0.2968,0.3006,0.3051,0.3216,0.3146,0.3059,0.3071,0.3083,0.3207,0.3206,0.3081,0.2959,0.296,0.2344,0.148,0.1233,0.0987,0.074,0.0493,0.0617,0.0987,-0.2419,-0.2869,-0.2868,-0.269,-0.2423,-0.2063,-0.1344,-0.0537,-0.0358,0.0268,0.0898,0.0905,0.1574,0.2483,0.257,0.3022,0.3627,0.3927,0.4533,0.5135,0.5636,0.5837,0.5737,0.5937,0.6037,0.6539,0.6442,0.6839,0.7129,0.703,0.7033,0.6539,0.6542,0.6539,0.6637,0.6839,0.7039,0.7733,0.8223,0.8542,0.88,0.8895,0.8874,0.8859,0.8873,0.8906,0.8689,0.8764,0.8845,0.9548,0.9151,0.9375,1.0131,1.0025,1.0135,1.0127,1.0221,1.0112,1.0014,0.9915,0.9706,0.971,0.9816,0.9926,0.982,0.9034,0.8692,0.8692,0.8134,0.7689,0.7357,0.747,0.7692,0.7802,0.7689,0.736,0.7027,0.7138,0.6914,0.6695,0.6805,0.7141,0.6697,0.5699,0.5144,0.4921,0.4698,0.4589,0.4477,0.4367,0.47,0.4921,0.4931,0.4841,0.4916,0.4765,0.4727,0.4564,0.4634,0.4669,0.4676,0.48,0.4798,0.4677,0.4555,0.4433,0.431,0.3329,0.2469,0.2467,0.2343,0.2467,0.2345,0.2346,0.2346,-0.0985,-0.0897,-0.0897,-0.1075,-0.1164,-0.0447,0.0268,0.0894,0.0984,0.1164,0.1713,0.232,0.2928,0.3267,0.3951,0.4431,0.4734,0.5233,0.5436,0.5636,0.6034,0.6337,0.6437,0.6637,0.6637,0.7039,0.7444,0.8031,0.8414,0.8506,0.7822,0.6939,0.7332,0.7138,0.7338,0.7832,0.8326,0.9122,0.992,1.06,1.0897,1.0905,1.0795,1.0244,1.0184,0.9877,0.8824,0.9261,0.9768,1.0891,1.0355,1.057,1.1755,1.1542,1.1542,1.1964,1.1715,1.172,1.1959,1.0664,1.0029,1.026,1.037,1.0366,1.037,1.0366,1.0249,1.0135,0.9578,0.9801,1.0021,1.0355,0.9691,0.9467,0.9133,0.9023,0.8803,0.8803,0.8582,0.8137,0.8137,0.8472,0.8472,0.7584,0.6811,0.6475,0.6364,0.6364,0.6364,0.6364,0.6586,0.6811,0.6818,0.6873,0.6977,0.6864,0.6528,0.6379,0.6346,0.6499,0.651,0.651,0.639,0.6512,0.639,0.6023,0.5535,0.4923,0.4312,0.3943,0.3698,0.333,0.3207,0.3083,0.3207,0.0269,-0.0,0.0718,0.0537,-0.0358,0.009,0.0896,0.1879,0.2149,0.2617,0.3287,0.3942,0.4307,0.4475,0.4858,0.5336,0.5336,0.5636,0.5837,0.5937,0.6237,0.6734,0.7132,0.763,0.8031,0.8528,0.9133,0.943,0.9505,0.9788,0.969,0.93,0.9103,0.9099,0.93,0.9308,0.9903,1.0336,1.0996,1.1516,1.1692,1.2064,1.2002,1.1773,1.2075,1.2065,1.1657,1.1602,1.1959,1.2186,1.1864,1.2512,1.327,1.2832,1.3048,1.348,1.3116,1.3234,1.3136,1.1511,1.0206,1.0472,1.0586,1.0586,1.07,1.0582,1.0586,1.0692,1.0692,1.0692,1.0692,1.0692,1.0468,1.0692,1.0582,1.0468,1.0249,1.0025,0.9915,0.9247,0.9467,0.9805,0.9805,0.9691,0.8806,0.814,0.8029,0.8026,0.8026,0.7925,0.8152,0.8187,0.8205,0.8204,0.8332,0.823,0.8239,0.8216,0.8187,0.8204,0.8224,0.8102,0.7978,0.8099,0.8099,0.7734,0.737,0.6639,0.5904,0.4925,0.4312,0.3821,0.3698,0.3821,0.3944,0.1345,0.1344,0.2151,0.1702,0.0715,0.1343,0.2326,0.3312,0.3846,0.4435,0.5262,0.5371,0.5475,0.5679,0.5981,0.6129,0.6329,0.6728,0.693,0.7226,0.7524,0.7922,0.8418,0.881,0.9103,1.0105,1.1133,1.1541,1.0974,1.1058,1.1356,1.1648,1.1648,1.1351,1.0672,1.1165,1.1389,1.1589,1.2183,1.2597,1.2908,1.3272,1.3309,1.3239,1.3403,1.3234,1.3023,1.2935,1.3367,1.3588,1.3593,1.3804,1.4126,1.4341,1.4234,1.4443,1.455,1.4657,1.4218,1.2911,1.1163,1.087,1.1223,1.1013,1.0802,1.0692,1.0692,1.0692,1.0692,1.0692,1.0692,1.0692,1.0692,1.0692,1.0692,1.0578,1.0578,1.0468,1.0468,1.0359,1.0582,1.0468,1.0468,1.0249,0.9915,0.9361,0.9361,0.9357,0.9247,0.9265,0.9182,0.9234,0.93,0.9343,0.9401,0.95,0.9717,0.995,0.9916,0.9802,0.9815,0.9569,0.9569,0.9812,0.9815,0.9572,0.9083,0.8349,0.7004,0.5536,0.5049,0.4561,0.4559,0.4682,0.4559,0.215,0.3129,0.322,0.2683,0.2146,0.3753,0.4741,0.5188,0.5808,0.6508,0.6923,0.6502,0.6533,0.6943,0.7279,0.7316,0.7518,0.8411,0.8905,0.8905,0.9103,0.9698,0.9887,0.9976,1.0271,1.1096,1.2217,1.2813,1.2538,1.2533,1.3119,1.3607,1.3511,1.3022,1.1463,1.2242,1.2747,1.3138,1.3992,1.4583,1.4985,1.5163,1.5007,1.4798,1.4759,1.4674,1.4347,1.4132,1.4669,1.5209,1.4669,1.5209,1.6505,1.6074,1.618,1.6929,1.7041,1.7259,1.7153,1.5204,1.3352,1.1711,1.2068,1.2091,1.1122,1.0907,1.1017,1.1232,1.1013,1.0798,1.0802,1.0692,1.0692,1.0692,1.0692,1.0692,1.0692,1.0692,1.0692,1.0911,1.0802,1.0692,1.0692,1.0692,1.0692,1.0468,1.0582,1.0578,1.0249,1.0158,0.9968,1.0085,1.0175,1.0352,1.0405,1.0977,1.1332,1.1583,1.1405,1.1039,1.1042,1.0917,1.116,1.1409,1.1163,1.0675,1.0429,1.0183,0.8471,0.7006,0.6035,0.5548,0.5546,0.5421,0.5298,0.3667,0.4111,0.4556,0.4554,0.4461,0.4996,0.5622,0.6077,0.6615,0.7175,0.7557,0.7653,0.8006,0.8477,0.8667,0.8707,0.8909,0.9205,0.9698,0.9797,1.0288,1.0774,1.1063,1.1351,1.1643,1.2554,1.3482,1.3688,1.3437,1.3522,1.3806,1.4298,1.4394,1.4106,1.3613,1.3829,1.4128,1.4475,1.5071,1.5644,1.5987,1.6292,1.6424,1.6199,1.6299,1.6187,1.5855,1.5749,1.618,1.6611,1.6074,1.6611,1.7477,1.6935,1.7153,1.7575,1.7582,1.7589,1.7589,1.6611,1.5524,1.411,1.3249,1.3378,1.2955,1.2955,1.2635,1.2096,1.1873,1.166,1.0907,1.0798,1.0798,1.0692,1.0692,1.0692,1.0692,1.0692,1.0802,1.1021,1.1131,1.0911,1.0802,1.1017,1.1126,1.1017,1.1017,1.0802,1.0578,1.0598,1.052,1.0699,1.0838,1.1137,1.1419,1.1545,1.163,1.1727,1.1651,1.1651,1.1772,1.1776,1.1776,1.1651,1.1655,1.1655,1.1163,1.0671,0.9694,0.8474,0.738,0.6405,0.616,0.6037,0.5671,0.4736,0.5267,0.5622,0.6154,0.6596,0.6416,0.6599,0.7146,0.772,0.8249,0.8753,0.9129,0.9502,0.982,1.0092,1.0194,1.0194,1.0886,1.1082,1.1179,1.1463,1.2052,1.2543,1.2737,1.3022,1.3727,1.3925,1.4016,1.4016,1.4202,1.4298,1.449,1.4598,1.4666,1.46,1.488,1.5083,1.5357,1.5815,1.6087,1.645,1.6727,1.7047,1.7067,1.7272,1.7378,1.7483,1.7589,1.7589,1.7589,1.7589,1.7589,1.7589,1.7582,1.7694,1.7687,1.7793,1.7905,1.8016,1.801,1.6922,1.5949,1.531,1.5244,1.5154,1.4826,1.404,1.3491,1.3275,1.2847,1.22,1.1987,1.1878,1.1878,1.1987,1.1987,1.1769,1.1873,1.1664,1.1882,1.1782,1.1564,1.1345,1.1345,1.1564,1.1455,1.1345,1.1126,1.0916,1.0945,1.1019,1.1222,1.1278,1.1454,1.1508,1.1663,1.1732,1.1768,1.1776,1.1776,1.1776,1.1776,1.1776,1.1776,1.1776,1.1655,1.153,1.0917,1.0183,0.9204,0.823,0.75,0.7016,0.6771,0.665,0.5542,0.6416,0.6505,0.7305,0.8296,0.7845,0.8025,0.8668,0.9276,0.9913,1.0672,1.0207,1.0583,1.1137,1.1272,1.1272,1.1468,1.2457,1.2754,1.3044,1.3136,1.363,1.3727,1.3913,1.4004,1.4106,1.4304,1.4208,1.4298,1.4394,1.449,1.47,1.4942,1.5152,1.5369,1.5652,1.5786,1.6042,1.6221,1.6588,1.6826,1.6916,1.706,1.7279,1.7391,1.749,1.7589,1.7694,1.7687,1.7687,1.7687,1.7687,1.7687,1.7687,1.7799,1.801,1.8213,1.8331,1.8443,1.8429,1.8325,1.7569,1.7239,1.749,1.7316,1.6474,1.5441,1.4995,1.4776,1.4674,1.4352,1.4245,1.4132,1.4245,1.425,1.403,1.3593,1.3485,1.3171,1.3176,1.2965,1.2753,1.2644,1.2536,1.2422,1.2313,1.2209,1.1778,1.1577,1.1313,1.1428,1.157,1.162,1.1532,1.1696,1.1968,1.176,1.1776,1.1776,1.1776,1.1776,1.1776,1.1776,1.1776,1.1776,1.1776,1.1651,1.1285,1.0671,0.9815,0.9329,0.8596,0.8111,0.8111,0.7989,0.7054,0.7492,0.8021,0.8552,0.9087,0.9253,0.9253,0.9196,0.9812,1.0553,1.1236,1.1551,1.197,1.2549,1.2554,1.2651,1.3044,1.334,1.3545,1.3835,1.4106,1.4208,1.4208,1.4292,1.4298,1.4292,1.4292,1.4382,1.449,1.449,1.4962,1.5172,1.5615,1.5875,1.619,1.648,1.6665,1.681,1.7038,1.7321,1.7502,1.7674,1.7681,1.7786,1.7905,1.801,1.8003,1.8108,1.8108,1.8108,1.8108,1.8213,1.8213,1.8213,1.8213,1.8318,1.8318,1.8429,1.8541,1.8653,1.875,1.8743,1.8527,1.8688,1.864,1.7973,1.6922,1.6493,1.628,1.6062,1.5743,1.553,1.563,1.563,1.5636,1.5316,1.4984,1.4877,1.4669,1.4572,1.4471,1.4256,1.4148,1.3712,1.3604,1.3388,1.3176,1.2856,1.2469,1.2211,1.193,1.2192,1.2164,1.2186,1.209,1.2242,1.201,1.1776,1.2014,1.2014,1.2014,1.2014,1.1897,1.1776,1.1776,1.1776,1.1776,1.1405,1.1039,1.1285,1.0917,1.0061,0.9329,0.9329,0.9083,0.8715,0.9152,0.9593,0.9941,1.0212,1.0294,1.0494,1.0968,1.091,1.1049,1.1636,1.2536,1.329,1.3686,1.3998,1.4376,1.4758,1.5038,1.5045,1.4573,1.4765,1.4675,1.458,1.4441,1.4441,1.4543,1.4632,1.4791,1.5121,1.5798,1.6271,1.6669,1.6957,1.7355,1.7786,1.8338,1.8571,1.8482,1.8473,1.8647,1.883,1.9109,1.9213,1.9013,1.9027,1.8826,1.8722,1.8722,1.8422,1.8422,1.8422,1.8624,1.9027,1.9435,1.9849,2.0048,2.0151,2.0254,2.0364,2.0372,1.9834,1.9413,1.9546,1.9598,1.9301,1.866,1.8108,1.7786,1.7674,1.7555,1.7022,1.6599,1.6698,1.6797,1.6698,1.6493,1.638,1.6274,1.6174,1.618,1.5974,1.5867,1.5541,1.5102,1.4888,1.5001,1.5114,1.49,1.4229,1.3691,1.3102,1.279,1.2882,1.2831,1.2738,1.2728,1.2612,1.2612,1.2733,1.2733,1.2492,1.2251,1.2251,1.2014,1.1776,1.1897,1.2014,1.1897,1.1651,1.1897,1.2018,1.1281,1.0671,1.055,1.0183,1.0351,1.0961,1.1047,1.1327,1.171,1.1382,1.2198,1.3762,1.2513,1.1905,1.2482,1.3582,1.4447,1.4937,1.5514,1.5981,1.6257,1.6532,1.6344,1.5589,1.5981,1.5798,1.5386,1.4836,1.5341,1.5266,1.5563,1.6216,1.6706,1.7203,1.7684,1.8442,1.8721,1.9055,1.9501,1.9951,2.0365,2.0828,2.046,2.0499,2.1017,2.1448,2.1643,2.1347,2.0743,2.0135,1.9937,1.9332,1.8632,1.8729,1.8833,1.9339,2.0112,2.1151,2.1676,2.1996,2.1895,2.1777,2.1785,2.1785,2.1103,2.0578,2.0381,2.0261,1.9887,1.9279,1.8743,1.8639,1.8527,1.852,1.8094,1.7989,1.7989,1.8094,1.7989,1.7884,1.7667,1.766,1.7562,1.7463,1.7358,1.7252,1.714,1.6704,1.628,1.6611,1.6617,1.6511,1.6095,1.5264,1.4616,1.3848,1.366,1.3622,1.3594,1.3564,1.3449,1.3569,1.3569,1.3449,1.3089,1.2848,1.2603,1.2487,1.2492,1.2255,1.2251,1.2255,1.2376,1.2376,1.2376,1.2139,1.1893,1.1768,1.1285,1.0539,1.1042,1.174,1.2371,1.3082,1.3155,1.3868,1.4955,1.4662,1.4733,1.5107,1.5631,1.5967,1.6344,1.6821,1.7196,1.7468,1.784,1.7654,1.7375,1.7382,1.7196,1.7095,1.6635,1.6743,1.7375,1.7785,1.7948,1.8118,1.8326,1.8737,1.9263,1.9773,2.0385,2.0851,2.1304,2.1963,2.2793,2.2785,2.2072,2.187,2.1752,2.1643,2.1752,2.1456,2.1566,2.1269,2.0775,2.0971,2.1269,2.057,2.0719,2.103,2.1921,2.2636,2.3007,2.2937,2.2902,2.2793,2.2894,2.234,2.1845,2.1464,2.0869,2.038,1.968,1.9376,1.9272,1.9279,1.9168,1.9168,1.9175,1.9175,1.9175,1.9279,1.9063,1.8952,1.8848,1.8743,1.8639,1.8534,1.8534,1.8422,1.8206,1.7779,1.7674,1.7674,1.7609,1.7349,1.6755,1.6447,1.5727,1.4712,1.4559,1.45,1.4629,1.4748,1.4282,1.4162,1.4047,1.3808,1.3564,1.3324,1.3329,1.3329,1.2973,1.2973,1.3209,1.3213,1.2973,1.2973,1.2853,1.2973,1.2848,1.2371,1.2589,1.2687,1.2899,1.3716,1.4764,1.4816,1.5604,1.6904,1.715,1.7576,1.7766,1.7394,1.7289,1.7654,1.8041,1.8596,1.8872,1.9155,1.8972,1.878,1.8688,1.8403,1.828,1.8241,1.8172,1.8611,1.9379,1.9646,1.9413,2.0076,2.0611,2.1009,2.1475,2.1856,2.2336,2.2865,2.3484,2.4313,2.4501,2.3989,2.3194,2.3375,2.3484,2.3493,2.3185,2.3094,2.2693,2.219,2.2089,2.2484,2.2282,2.234,2.2689,2.3448,2.4134,2.4378,2.426,2.3908,2.3908,2.3809,2.3592,2.3203,2.3518,2.3444,2.1996,2.1285,2.038,2.0181,1.9376,1.9272,1.9272,1.9279,1.9279,1.9279,1.9272,1.9168,1.9168,1.9063,1.9063,1.9063,1.8959,1.8959,1.8848,1.8848,1.8527,1.8527,1.8632,1.8632,1.8393,1.836,1.8077,1.7808,1.6819,1.6334,1.6615,1.6391,1.6161,1.5693,1.4992,1.4753,1.4748,1.4277,1.4043,1.4043,1.3923,1.3569,1.3569,1.3928,1.3808,1.3453,1.3453,1.3569,1.3688,1.3808,1.3329,1.5249,1.507,1.4733,1.5472,1.6949,1.6667,1.7462,1.9052,1.9678,2.0068,2.0232,1.9039,1.8588,1.8872,1.9438,2.0192,2.0564,2.0456,2.0175,1.9994,1.9903,1.9795,1.967,1.9555,1.967,1.9861,2.0529,2.0808,2.0872,2.1635,2.2432,2.3151,2.3734,2.407,2.4478,2.4889,2.5226,2.5411,2.5606,2.58,2.5907,2.5917,2.5616,2.5314,2.5011,2.4393,2.4088,2.3493,2.2894,2.3294,2.3791,2.3934,2.4221,2.4846,2.5304,2.5547,2.5547,2.5421,2.5528,2.5518,2.5109,2.4951,2.5741,2.522,2.3628,2.2584,2.1684,2.0987,2.0181,1.968,1.968,1.9583,1.9583,1.9583,1.9583,1.9583,1.9583,1.9583,1.9583,1.948,1.9583,1.9583,1.948,1.948,1.948,1.948,1.9487,1.9487,1.9493,1.9784,1.9692,1.9757,1.9426,1.9037,1.8474,1.7917,1.7449,1.7103,1.6514,1.6042,1.5688,1.5806,1.5456,1.4634,1.4515,1.4634,1.4282,1.4406,1.4167,1.4047,1.4286,1.4406,1.4406,1.4406,1.4167,1.6262,1.7629,1.8194,1.8654,1.8916,1.9024,1.9499,2.0155,2.0899,2.148,2.1765,2.1774,2.115,2.0275,2.0835,2.1203,2.1203,2.1383,2.1463,2.1275,2.1266,2.1266,2.1248,2.1042,2.1606,2.1793,2.1802,2.2078,2.2368,2.298,2.3615,2.4113,2.4893,2.5307,2.569,2.6004,2.6197,2.638,2.6476,2.6668,2.6486,2.6496,2.64,2.6197,2.6197,2.5897,2.5489,2.4698,2.4707,2.5011,2.5304,2.5344,2.5528,2.5751,2.611,2.6334,2.6334,2.6207,2.6207,2.6217,2.58,2.58,2.6132,2.5508,2.4393,2.3881,2.3185,2.2894,2.2089,2.1302,2.1097,2.0798,2.0704,2.0609,2.0506,2.0403,2.0411,2.0411,2.0411,2.0411,2.0411,2.0411,2.0403,2.0403,2.0403,2.0411,2.0308,2.0315,2.0369,2.0711,2.1194,2.1258,2.1339,2.0195,1.8971,1.8855,1.8506,1.8273,1.804,1.7331,1.7214,1.78,1.7331,1.6279,1.6048,1.6172,1.5817,1.5348,1.5235,1.5235,1.524,1.5364,1.5245,1.5002,1.4764]},{"header":{"parameterUnit":"m.s-1","parameterCategory":1,"la1":31.0,"la2":29.5877,"lo1":-88.7671,"lo2":-86.6584,"dy":0.0162,"dx":0.0185,"nx":115,"ny":88,"refTime":"2023-03-20T06:00:00:Z","depth":0,"parameterNumber":3,"parameterNumberName":"V-component_of_WINDS"},"data":[0.0,0.0,0.0,0.0,0.0,0.0,0.0,0.0,0.0,0.0,0.0,0.0,0.0,0.0,0.0,0.0,0.0,0.0,0.0,0.0,0.0,0.0,0.0,0.0,0.0,0.0,0.0,0.0,0.0,0.0,0.0,0.0,0.0,0.0,0.0,0.0,0.0,0.0,0.0,0.0,0.0,0.0,0.0,0.0,0.0,0.0,0.0,0.0,0.0,0.0,0.0,0.0,0.0,0.0,0.0,0.0,0.0,0.0,0.0,0.0,0.0,0.0,0.0,0.0,0.0,0.0,0.0,0.0,0.0,0.0,0.0,0.0,0.0,0.0,0.0,0.0,0.0,0.0,0.0,0.0,0.0,0.0,0.0,0.0,0.0,0.0,0.0,0.0,0.0,0.0,0.0,0.0,0.0,0.0,0.0,0.0,0.0,0.0,0.0,0.0,0.0,0.0,0.0,0.0,0.0,0.0,0.0,0.0,0.0,0.0,0.0,0.0,0.0,0.0,0.0,0.0,0.0,0.0,0.0,0.0,0.0,0.0,0.0,0.0,0.0,0.0,0.0,0.0,0.0,0.0,0.0,0.0,0.0,0.0,0.0,0.0,0.0,0.0,0.0,0.0,0.0,0.0,0.0,0.0,0.0,0.0,0.0,0.0,0.0,0.0,0.0,0.0,0.0,0.0,0.0,0.0,0.0,0.0,0.0,0.0,0.0,0.0,0.0,0.0,0.0,0.0,0.0,0.0,0.0,0.0,0.0,0.0,0.0,0.0,0.0,0.0,0.0,0.0,0.0,0.0,0.0,0.0,0.0,0.0,0.0,0.0,0.0,0.0,0.0,0.0,0.0,0.0,0.0,0.0,0.0,0.0,0.0,0.0,0.0,0.0,0.0,0.0,0.0,0.0,0.0,0.0,0.0,0.0,0.0,0.0,0.0,0.0,0.0,0.0,0.0,0.0,0.0,0.0,0.0,0.0,0.0,0.0,0.0,0.0,0.0,0.0,0.0,0.0,0.0,0.0,0.0,0.0,0.0,0.0,0.0,0.0,0.0,0.0,0.0,0.0,0.0,0.0,0.0,0.0,0.0,0.0,0.0,0.0,0.0,0.0,0.0,0.0,0.0,0.0,0.0,0.0,0.0,0.0,0.0,0.0,0.0,0.0,0.0,0.0,0.0,0.0,0.0,0.0,0.0,0.0,0.0,0.0,0.0,0.0,0.0,0.0,0.0,0.0,0.0,0.0,0.0,0.0,0.0,0.0,0.0,0.0,0.0,0.0,0.0,0.0,0.0,0.0,0.0,0.0,0.0,0.0,0.0,0.0,0.0,0.0,0.0,0.0,0.0,0.0,0.0,0.0,0.0,0.0,0.0,0.0,0.0,0.0,0.0,0.0,0.0,0.0,0.0,0.0,0.0,0.0,0.0,0.0,0.0,0.0,0.0,0.0,0.0,0.0,0.0,0.0,0.0,0.0,0.0,0.0,0.0,0.0,0.0,0.0,0.0,0.0,0.0,0.0,0.0,0.0,0.0,0.0,0.0,0.0,0.0,0.0,0.0,0.0,0.0,0.0,0.0,0.0,0.0,0.0,0.0,0.0,0.0,0.0,0.0,0.0,0.0,0.0,0.0,0.0,0.0,0.0,0.0,0.0,0.0,0.0,0.0,0.0,0.0,0.0,0.0,0.0,0.0,0.0,0.0,0.0,0.0,0.0,0.0,0.0,0.0,0.0,0.0,0.0,0.0,0.0,0.0,0.0,0.0,0.0,0.0,0.0,0.0,0.0,0.0,0.0,0.0,0.0,0.0,0.0,0.0,0.0,0.0,0.0,0.0,0.0,0.0,0.0,0.0,0.0,0.0,0.0,0.0,0.0,0.0,0.0,0.0,0.0,0.0,0.0,0.0,0.0,0.0,0.0,0.0,0.0,0.0,0.0,0.0,0.0,0.0,0.0,0.0,0.0,0.0,0.0,0.0,0.0,0.0,0.0,0.0,0.0,0.0,0.0,0.0,0.0,0.0,0.0,0.0,0.0,0.0,0.0,0.0,0.0,0.0,0.0,0.0,0.0,0.0,0.0,0.0,0.0,0.0,0.0,0.0,0.0,0.0,0.0,0.0,0.0,0.0,0.0,0.0,0.0,0.0,0.0,0.0,0.0,0.0,0.0,0.0,0.0,0.0,0.0,0.0,0.0,0.0,0.0,0.0,0.0,0.0,0.0,0.0,0.0,0.0,0.0,0.0,0.0,0.0,0.0,0.0,0.0,0.0,0.0,0.0,0.0,0.0,0.0,0.0,0.0,0.0,0.0,0.0,0.0,0.0,0.0,0.0,0.0,0.0,0.0,0.0,0.0,0.0,0.0,0.0,0.0,0.0,0.0,0.0,0.0,0.0,0.0,0.0,0.0,0.0,0.0,0.0,0.0,0.0,0.0,0.0,0.0,0.0,0.0,0.0,0.0,0.0,0.0,0.0,0.0,0.0,0.0,0.0,0.0,0.0,0.0,0.0,0.0,0.0,0.0,0.0,0.0,0.0,0.0,0.0,0.0,0.0,0.0,0.0,0.0,0.0,0.0,0.0,0.0,0.0,0.0,0.0,0.0,0.0,0.0,0.0,0.0,0.0,0.0,0.0,0.0,0.0,0.0,0.0,0.0,0.0,0.0,0.0,0.0,0.0,0.0,0.0,0.0,0.0,0.0,0.0,0.0,0.0,0.0,0.0,0.0,0.0,0.0,0.0,0.0,0.0,0.0,0.0,0.0,0.0,0.0,0.0,0.0,0.0,0.0,0.0,0.0,0.0,0.0,0.0,0.0,0.0,0.0,0.0,0.0,0.0,0.0,0.0,0.0,0.0,0.0,0.0,0.0,0.0,0.0,0.0,0.0,0.0,0.0,0.0,0.0,0.0,0.0,0.0,0.0,0.0,0.0,0.0,0.0,0.0,0.0,0.0,0.0,0.0,0.0,0.0,0.0,0.0,0.0,0.0,0.0,0.0,0.0,0.0,0.0,0.0,0.0,0.0,0.0,0.0,0.0,0.0,0.0,0.0,0.0,0.0,0.0,0.0,0.0,0.0,0.0,0.0,0.0,0.0,0.0,0.0,0.0,0.0,0.0,0.0,0.0,0.0,0.0,0.0,0.0,0.0,0.0,0.0,0.0,0.0,0.0,0.0,0.0,0.0,0.0,0.0,0.0,0.0,0.0,0.0,0.0,0.0,0.0,0.0,0.0,0.0,0.0,0.0,0.0,0.0,0.0,0.0,0.0,0.0,0.0,0.0,0.0,0.0,0.0,0.0,0.0,0.0,0.0,0.0,0.0,0.0,0.0,0.0,0.0,0.0,0.0,0.0,0.0,0.0,0.0,0.0,0.0,0.0,0.0,0.0,0.0,0.0,0.0,0.0,0.0,0.0,0.0,0.0,0.0,0.0,0.0,0.0,0.0,0.0,0.0,0.0,0.0,0.0,0.0,0.0,0.0,0.0,0.0,0.0,0.0,0.0,0.0,0.0,0.0,0.0,0.0,0.0,0.0,0.0,0.0,0.0,0.0,0.0,0.0,0.0,0.0,0.0,0.0,0.0,0.0,0.0,0.0,0.0,0.0,0.0,0.0,0.0,0.0,0.0,0.0,0.0,0.0,0.0,0.0,0.0,0.0,0.0,0.0,0.0,0.0,0.0,0.0,0.0,0.0,0.0,0.0,0.0,0.0,0.0,0.0,0.0,0.0,0.0,0.0,0.0,0.0,0.0,0.0,0.0,0.0,0.0,0.0,0.0,0.0,0.0,0.0,0.0,0.0,0.0,0.0,0.0,0.0,0.0,0.0,0.0,0.0,0.0,0.0,0.0,0.0,0.0,0.0,0.0,0.0,0.0,0.0,0.0,0.0,0.0,0.0,0.0,0.0,0.0,0.0,0.0,0.0,0.0,0.0,0.0,0.0,0.0,0.0,0.0,0.0,0.0,0.0,0.0,0.0,0.0,0.0,0.0,0.0,0.0,0.0,0.0,0.0,0.0,0.0,0.0,0.0,0.0,0.0,0.0,0.0,0.0,0.0,0.0,0.0,0.0,0.0,0.0,0.0,0.0,0.0,0.0,0.0,0.0,0.0,0.0,0.0,0.0,0.0,0.0,0.0,0.0,0.0,0.0,0.0,0.0,0.0,0.0,0.0,0.0,0.0,0.0,0.0,0.0,0.0,0.0,0.0,0.0,0.0,0.0,0.0,0.0,0.0,0.0,0.0,0.0,0.0,0.0,0.0,0.0,0.0,0.0,0.0,0.0,0.0,-3.4505,0.0,0.0,0.0,0.0,0.0,0.0,0.0,0.0,0.0,0.0,0.0,0.0,0.0,0.0,0.0,0.0,0.0,0.0,0.0,0.0,0.0,0.0,0.0,0.0,0.0,0.0,0.0,0.0,0.0,0.0,0.0,0.0,0.0,0.0,0.0,0.0,0.0,0.0,0.0,0.0,0.0,0.0,0.0,0.0,0.0,0.0,0.0,0.0,0.0,0.0,0.0,0.0,0.0,0.0,0.0,0.0,0.0,0.0,0.0,0.0,0.0,0.0,0.0,0.0,0.0,0.0,0.0,0.0,0.0,0.0,0.0,0.0,0.0,0.0,0.0,0.0,0.0,0.0,0.0,0.0,0.0,0.0,0.0,0.0,0.0,0.0,0.0,0.0,0.0,0.0,0.0,0.0,0.0,0.0,0.0,0.0,0.0,0.0,0.0,0.0,0.0,0.0,0.0,0.0,0.0,0.0,0.0,0.0,0.0,0.0,-3.2953,-3.2571,-3.3394,-3.3847,-3.3876,0.0,0.0,0.0,0.0,0.0,0.0,0.0,0.0,0.0,0.0,0.0,0.0,0.0,0.0,0.0,0.0,0.0,0.0,0.0,0.0,0.0,0.0,0.0,0.0,0.0,0.0,0.0,0.0,0.0,0.0,0.0,0.0,0.0,0.0,0.0,0.0,0.0,0.0,0.0,0.0,0.0,0.0,0.0,0.0,0.0,0.0,0.0,0.0,0.0,0.0,0.0,0.0,0.0,0.0,0.0,0.0,0.0,0.0,0.0,0.0,0.0,0.0,0.0,0.0,0.0,0.0,0.0,0.0,0.0,0.0,0.0,0.0,0.0,0.0,0.0,0.0,0.0,0.0,0.0,0.0,0.0,0.0,0.0,0.0,0.0,0.0,0.0,0.0,0.0,0.0,0.0,0.0,0.0,0.0,0.0,0.0,0.0,0.0,0.0,0.0,0.0,0.0,0.0,0.0,0.0,0.0,0.0,0.0,0.0,0.0,0.0,0.0,-3.2766,-3.3515,-3.3907,0.0,0.0,0.0,0.0,0.0,0.0,0.0,0.0,0.0,0.0,0.0,0.0,0.0,0.0,0.0,0.0,0.0,0.0,0.0,0.0,0.0,0.0,0.0,0.0,0.0,0.0,0.0,0.0,0.0,0.0,0.0,0.0,0.0,0.0,0.0,0.0,0.0,0.0,0.0,0.0,0.0,0.0,0.0,0.0,0.0,0.0,0.0,0.0,0.0,0.0,0.0,0.0,0.0,0.0,0.0,0.0,0.0,0.0,0.0,0.0,0.0,0.0,0.0,0.0,0.0,0.0,0.0,0.0,0.0,0.0,0.0,0.0,0.0,0.0,0.0,0.0,0.0,0.0,0.0,0.0,0.0,0.0,0.0,0.0,0.0,0.0,0.0,0.0,0.0,0.0,0.0,0.0,0.0,0.0,0.0,0.0,0.0,0.0,0.0,0.0,0.0,0.0,0.0,0.0,0.0,0.0,0.0,0.0,0.0,0.0,-3.1718,-3.095,-3.253,0.0,-3.5533,0.0,0.0,0.0,0.0,0.0,0.0,0.0,0.0,0.0,0.0,0.0,0.0,0.0,0.0,0.0,0.0,0.0,0.0,0.0,0.0,0.0,0.0,0.0,0.0,0.0,0.0,0.0,0.0,0.0,0.0,0.0,0.0,0.0,0.0,0.0,0.0,0.0,0.0,0.0,0.0,0.0,0.0,0.0,0.0,0.0,0.0,0.0,0.0,0.0,0.0,0.0,0.0,0.0,0.0,0.0,0.0,0.0,0.0,0.0,0.0,0.0,0.0,0.0,0.0,0.0,0.0,0.0,0.0,0.0,0.0,0.0,0.0,0.0,0.0,0.0,0.0,0.0,0.0,0.0,0.0,0.0,0.0,0.0,0.0,0.0,0.0,0.0,0.0,0.0,0.0,0.0,0.0,0.0,0.0,0.0,0.0,0.0,0.0,0.0,0.0,0.0,0.0,0.0,0.0,0.0,0.0,0.0,0.0,0.0,0.0,-3.1155,-3.0807,-3.2498,-3.4207,0.0,0.0,0.0,0.0,0.0,0.0,0.0,0.0,0.0,0.0,0.0,0.0,0.0,0.0,0.0,0.0,0.0,0.0,0.0,0.0,0.0,0.0,0.0,0.0,0.0,0.0,0.0,0.0,0.0,0.0,0.0,0.0,0.0,0.0,0.0,0.0,0.0,0.0,0.0,0.0,0.0,0.0,0.0,0.0,0.0,0.0,0.0,0.0,0.0,0.0,0.0,0.0,0.0,0.0,0.0,0.0,0.0,0.0,0.0,0.0,0.0,0.0,0.0,0.0,0.0,0.0,0.0,0.0,0.0,0.0,0.0,0.0,0.0,0.0,0.0,0.0,0.0,0.0,0.0,0.0,0.0,0.0,0.0,0.0,0.0,0.0,0.0,0.0,0.0,0.0,0.0,0.0,0.0,0.0,0.0,0.0,0.0,0.0,0.0,0.0,0.0,0.0,0.0,0.0,0.0,0.0,0.0,0.0,0.0,0.0,-3.083,-3.0914,-3.1204,-3.2625,-3.4101,-3.5603,0.0,0.0,0.0,0.0,0.0,0.0,0.0,0.0,0.0,0.0,0.0,0.0,0.0,0.0,0.0,0.0,0.0,0.0,0.0,0.0,0.0,0.0,0.0,0.0,0.0,0.0,0.0,0.0,0.0,0.0,0.0,0.0,0.0,0.0,0.0,0.0,0.0,0.0,0.0,0.0,0.0,0.0,0.0,0.0,0.0,0.0,0.0,0.0,0.0,0.0,0.0,0.0,0.0,0.0,0.0,0.0,0.0,0.0,0.0,0.0,0.0,0.0,0.0,0.0,0.0,0.0,0.0,0.0,0.0,0.0,0.0,0.0,0.0,0.0,0.0,0.0,0.0,0.0,0.0,0.0,0.0,0.0,0.0,0.0,0.0,0.0,0.0,0.0,0.0,0.0,0.0,0.0,0.0,0.0,0.0,0.0,0.0,0.0,0.0,0.0,0.0,0.0,0.0,0.0,0.0,0.0,0.0,0.0,-3.0791,-3.0858,-3.127,-3.1992,-3.291,-3.3844,0.0,0.0,0.0,0.0,0.0,0.0,0.0,0.0,0.0,0.0,0.0,0.0,0.0,0.0,0.0,0.0,0.0,0.0,0.0,0.0,0.0,0.0,0.0,0.0,0.0,0.0,0.0,0.0,0.0,0.0,0.0,0.0,0.0,0.0,0.0,0.0,0.0,0.0,0.0,0.0,0.0,0.0,0.0,0.0,0.0,0.0,0.0,0.0,0.0,0.0,0.0,0.0,0.0,0.0,0.0,0.0,0.0,0.0,0.0,0.0,0.0,0.0,0.0,0.0,0.0,0.0,0.0,0.0,0.0,0.0,0.0,0.0,0.0,0.0,0.0,0.0,0.0,0.0,0.0,0.0,0.0,0.0,0.0,0.0,0.0,0.0,0.0,0.0,0.0,0.0,0.0,0.0,0.0,0.0,0.0,0.0,0.0,0.0,0.0,0.0,0.0,0.0,0.0,0.0,0.0,0.0,0.0,0.0,0.0,-3.0858,-3.0886,-3.128,-3.2063,-3.2414,-3.3229,0.0,0.0,0.0,0.0,0.0,0.0,0.0,0.0,0.0,0.0,0.0,0.0,0.0,0.0,0.0,0.0,0.0,0.0,0.0,0.0,0.0,0.0,0.0,0.0,0.0,0.0,0.0,0.0,0.0,0.0,0.0,0.0,0.0,0.0,0.0,0.0,0.0,0.0,0.0,0.0,0.0,0.0,0.0,0.0,0.0,0.0,0.0,0.0,0.0,0.0,0.0,0.0,0.0,0.0,0.0,0.0,0.0,0.0,0.0,0.0,0.0,0.0,0.0,0.0,0.0,0.0,0.0,0.0,0.0,0.0,0.0,0.0,0.0,0.0,0.0,0.0,0.0,0.0,0.0,0.0,0.0,0.0,0.0,0.0,0.0,0.0,0.0,0.0,0.0,0.0,0.0,0.0,0.0,0.0,0.0,0.0,0.0,0.0,0.0,0.0,0.0,0.0,0.0,0.0,0.0,0.0,0.0,0.0,0.0,-3.0853,0.0,-3.1132,-3.1641,-3.1953,-3.2655,0.0,0.0,0.0,0.0,0.0,0.0,0.0,0.0,0.0,0.0,0.0,0.0,0.0,0.0,0.0,0.0,0.0,0.0,0.0,0.0,0.0,0.0,0.0,0.0,0.0,0.0,0.0,0.0,0.0,0.0,0.0,0.0,0.0,0.0,0.0,0.0,0.0,0.0,0.0,0.0,0.0,0.0,0.0,0.0,0.0,0.0,0.0,0.0,0.0,0.0,0.0,0.0,0.0,0.0,0.0,0.0,0.0,0.0,0.0,0.0,0.0,0.0,0.0,0.0,0.0,0.0,0.0,0.0,0.0,0.0,0.0,0.0,0.0,0.0,0.0,0.0,0.0,0.0,0.0,0.0,0.0,0.0,0.0,0.0,0.0,0.0,0.0,0.0,0.0,0.0,0.0,0.0,0.0,0.0,0.0,0.0,0.0,0.0,0.0,0.0,0.0,0.0,0.0,0.0,0.0,0.0,0.0,0.0,-3.0055,-3.0797,-3.0875,-3.0948,-3.088,-3.1686,-3.2123,0.0,0.0,0.0,0.0,0.0,0.0,0.0,0.0,0.0,0.0,0.0,0.0,0.0,0.0,0.0,0.0,0.0,0.0,0.0,0.0,0.0,0.0,0.0,0.0,0.0,0.0,0.0,0.0,0.0,0.0,0.0,0.0,0.0,0.0,0.0,0.0,0.0,0.0,0.0,0.0,0.0,0.0,0.0,0.0,0.0,0.0,0.0,0.0,0.0,0.0,0.0,0.0,0.0,0.0,0.0,0.0,0.0,0.0,0.0,0.0,0.0,0.0,0.0,0.0,0.0,0.0,0.0,0.0,0.0,0.0,0.0,0.0,0.0,0.0,0.0,0.0,0.0,0.0,0.0,0.0,0.0,0.0,0.0,0.0,0.0,0.0,0.0,0.0,0.0,0.0,0.0,0.0,0.0,0.0,0.0,0.0,0.0,0.0,0.0,0.0,0.0,0.0,0.0,0.0,0.0,0.0,0.0,0.0,0.0,-3.1641,-3.221,-3.2525,-3.2519,-3.2196,-3.231,0.0,0.0,0.0,0.0,0.0,0.0,0.0,0.0,0.0,0.0,0.0,0.0,0.0,0.0,0.0,0.0,0.0,0.0,0.0,0.0,0.0,0.0,0.0,0.0,0.0,0.0,0.0,0.0,0.0,0.0,0.0,0.0,0.0,0.0,0.0,0.0,0.0,0.0,0.0,0.0,0.0,0.0,0.0,0.0,0.0,0.0,0.0,0.0,0.0,0.0,0.0,0.0,0.0,0.0,0.0,0.0,0.0,0.0,0.0,0.0,0.0,0.0,0.0,0.0,0.0,0.0,0.0,0.0,0.0,0.0,0.0,0.0,0.0,0.0,0.0,0.0,0.0,0.0,0.0,0.0,0.0,0.0,0.0,0.0,0.0,0.0,0.0,0.0,0.0,0.0,0.0,0.0,0.0,0.0,0.0,0.0,0.0,0.0,0.0,0.0,0.0,0.0,0.0,0.0,0.0,0.0,0.0,0.0,0.0,-3.4642,-3.4854,-3.4971,-3.499,-3.4156,-3.3557,-3.3278,0.0,0.0,0.0,0.0,0.0,0.0,0.0,0.0,0.0,0.0,0.0,0.0,0.0,0.0,0.0,0.0,0.0,0.0,0.0,0.0,0.0,0.0,0.0,0.0,0.0,0.0,0.0,0.0,0.0,0.0,0.0,0.0,0.0,0.0,0.0,0.0,0.0,0.0,0.0,0.0,0.0,0.0,0.0,0.0,0.0,0.0,0.0,0.0,0.0,0.0,0.0,0.0,0.0,0.0,0.0,0.0,0.0,0.0,0.0,0.0,0.0,0.0,0.0,0.0,0.0,0.0,0.0,0.0,0.0,0.0,0.0,0.0,0.0,0.0,0.0,0.0,0.0,0.0,0.0,0.0,0.0,0.0,0.0,0.0,0.0,0.0,0.0,0.0,0.0,0.0,0.0,0.0,0.0,0.0,0.0,0.0,0.0,0.0,0.0,0.0,0.0,0.0,0.0,0.0,0.0,0.0,0.0,0.0,-3.9231,-3.8623,-3.8232,-3.804,-3.7132,-3.5646,0.0,0.0,0.0,0.0,0.0,0.0,0.0,0.0,0.0,0.0,0.0,0.0,0.0,0.0,0.0,0.0,0.0,0.0,0.0,0.0,0.0,0.0,0.0,0.0,0.0,0.0,0.0,0.0,0.0,0.0,0.0,0.0,0.0,0.0,0.0,0.0,0.0,0.0,0.0,0.0,0.0,0.0,0.0,0.0,0.0,0.0,0.0,0.0,0.0,0.0,0.0,0.0,0.0,0.0,0.0,0.0,0.0,0.0,0.0,0.0,0.0,0.0,0.0,0.0,0.0,0.0,0.0,0.0,0.0,0.0,0.0,0.0,0.0,0.0,0.0,0.0,0.0,0.0,0.0,0.0,0.0,0.0,0.0,0.0,0.0,0.0,0.0,0.0,0.0,0.0,0.0,0.0,0.0,0.0,0.0,0.0,0.0,0.0,0.0,0.0,0.0,0.0,0.0,0.0,0.0,0.0,0.0,0.0,0.0,-4.2177,-4.368,-4.3383,-4.1161,-3.8718,-3.7175,0.0,0.0,0.0,0.0,0.0,0.0,0.0,0.0,0.0,0.0,0.0,0.0,0.0,0.0,0.0,0.0,0.0,0.0,0.0,0.0,0.0,0.0,0.0,0.0,0.0,0.0,0.0,0.0,0.0,0.0,0.0,0.0,0.0,0.0,0.0,0.0,0.0,0.0,0.0,0.0,0.0,0.0,0.0,0.0,0.0,0.0,0.0,0.0,0.0,0.0,0.0,0.0,0.0,0.0,0.0,0.0,0.0,0.0,0.0,0.0,0.0,0.0,0.0,0.0,0.0,0.0,0.0,0.0,0.0,0.0,0.0,0.0,0.0,0.0,0.0,0.0,0.0,0.0,0.0,0.0,0.0,0.0,0.0,0.0,0.0,0.0,0.0,0.0,0.0,0.0,0.0,0.0,0.0,0.0,0.0,0.0,0.0,0.0,0.0,0.0,0.0,0.0,0.0,0.0,0.0,0.0,0.0,0.0,-4.1521,-4.3869,-4.636,-4.6843,-4.5106,-4.1848,-3.9545,0.0,0.0,0.0,0.0,0.0,0.0,0.0,0.0,0.0,0.0,0.0,0.0,0.0,0.0,0.0,0.0,0.0,0.0,0.0,0.0,0.0,0.0,0.0,0.0,0.0,0.0,0.0,0.0,0.0,0.0,0.0,0.0,0.0,0.0,0.0,0.0,0.0,0.0,0.0,0.0,0.0,0.0,0.0,0.0,0.0,0.0,0.0,0.0,0.0,0.0,0.0,0.0,0.0,0.0,0.0,0.0,0.0,0.0,0.0,0.0,0.0,0.0,0.0,0.0,0.0,0.0,0.0,0.0,0.0,0.0,0.0,0.0,0.0,0.0,0.0,0.0,0.0,0.0,0.0,0.0,0.0,0.0,0.0,0.0,0.0,0.0,0.0,0.0,0.0,0.0,0.0,0.0,0.0,0.0,0.0,0.0,0.0,0.0,0.0,0.0,0.0,0.0,0.0,0.0,0.0,0.0,0.0,0.0,-4.3064,-4.4766,-4.7406,-4.882,-4.8744,-4.5303,-4.2136,0.0,0.0,0.0,0.0,0.0,0.0,0.0,0.0,0.0,0.0,0.0,0.0,0.0,0.0,0.0,0.0,0.0,0.0,0.0,0.0,0.0,0.0,0.0,0.0,0.0,0.0,0.0,0.0,0.0,0.0,0.0,0.0,0.0,0.0,0.0,0.0,0.0,0.0,0.0,0.0,0.0,0.0,0.0,0.0,0.0,0.0,0.0,0.0,0.0,0.0,0.0,0.0,0.0,0.0,0.0,0.0,0.0,0.0,0.0,0.0,0.0,0.0,0.0,0.0,0.0,0.0,0.0,0.0,0.0,0.0,0.0,0.0,0.0,0.0,0.0,0.0,0.0,0.0,0.0,0.0,0.0,0.0,0.0,0.0,0.0,0.0,0.0,0.0,0.0,0.0,0.0,0.0,0.0,0.0,0.0,0.0,0.0,0.0,0.0,0.0,0.0,0.0,0.0,0.0,0.0,0.0,0.0,0.0,-4.3109,-4.5884,-4.739,-4.8288,-4.8477,-4.5118,-4.2761,0.0,0.0,0.0,0.0,0.0,0.0,0.0,0.0,0.0,0.0,0.0,0.0,0.0,0.0,0.0,0.0,0.0,0.0,0.0,0.0,0.0,0.0,0.0,0.0,0.0,0.0,0.0,0.0,0.0,0.0,0.0,0.0,0.0,0.0,0.0,0.0,0.0,0.0,0.0,0.0,0.0,0.0,0.0,0.0,0.0,0.0,0.0,0.0,-4.3665,0.0,0.0,0.0,0.0,0.0,0.0,0.0,0.0,0.0,0.0,0.0,0.0,0.0,0.0,0.0,0.0,0.0,0.0,0.0,0.0,0.0,0.0,0.0,0.0,0.0,0.0,0.0,0.0,0.0,0.0,0.0,0.0,0.0,0.0,0.0,0.0,0.0,0.0,0.0,0.0,0.0,0.0,0.0,0.0,0.0,0.0,0.0,0.0,0.0,0.0,0.0,0.0,0.0,0.0,0.0,0.0,0.0,0.0,0.0,-4.3193,-4.5754,-4.6983,-4.7797,-4.8046,-4.5771,-4.3942,0.0,0.0,0.0,0.0,0.0,0.0,0.0,0.0,0.0,0.0,0.0,0.0,0.0,0.0,0.0,0.0,0.0,0.0,0.0,0.0,0.0,0.0,0.0,0.0,0.0,0.0,0.0,0.0,0.0,0.0,0.0,0.0,0.0,0.0,0.0,0.0,0.0,0.0,0.0,0.0,0.0,0.0,0.0,0.0,0.0,0.0,0.0,0.0,0.0,0.0,0.0,0.0,0.0,0.0,0.0,0.0,0.0,0.0,0.0,0.0,0.0,0.0,0.0,0.0,0.0,0.0,0.0,0.0,0.0,0.0,0.0,0.0,0.0,0.0,0.0,0.0,0.0,0.0,0.0,0.0,0.0,0.0,0.0,0.0,0.0,0.0,0.0,0.0,0.0,0.0,0.0,0.0,0.0,0.0,0.0,0.0,0.0,0.0,0.0,0.0,0.0,0.0,0.0,0.0,0.0,0.0,0.0,-4.0537,-4.3245,-4.5461,-4.6536,-4.7237,-4.7661,-4.6411,-4.4938,-4.3321,0.0,0.0,0.0,0.0,0.0,0.0,0.0,0.0,0.0,0.0,0.0,0.0,0.0,0.0,0.0,0.0,0.0,0.0,0.0,0.0,0.0,0.0,0.0,0.0,0.0,0.0,0.0,0.0,0.0,0.0,0.0,0.0,0.0,0.0,0.0,0.0,0.0,0.0,-3.9985,-4.1314,0.0,0.0,0.0,0.0,0.0,0.0,0.0,0.0,-4.6431,0.0,0.0,0.0,0.0,0.0,0.0,0.0,0.0,0.0,0.0,0.0,0.0,0.0,0.0,0.0,0.0,0.0,0.0,0.0,0.0,0.0,0.0,0.0,0.0,0.0,0.0,0.0,0.0,0.0,0.0,0.0,0.0,0.0,0.0,0.0,0.0,0.0,0.0,0.0,0.0,0.0,0.0,0.0,0.0,0.0,0.0,0.0,0.0,0.0,0.0,0.0,0.0,0.0,0.0,0.0,0.0,-3.936,-4.0873,-4.3198,-4.6355,-4.6395,-4.6519,-4.6819,-4.5791,-4.4382,-4.269,0.0,0.0,0.0,0.0,0.0,0.0,0.0,0.0,0.0,0.0,0.0,0.0,0.0,0.0,0.0,0.0,0.0,0.0,0.0,0.0,0.0,0.0,0.0,0.0,0.0,0.0,0.0,0.0,0.0,0.0,0.0,0.0,0.0,0.0,0.0,0.0,0.0,0.0,0.0,-4.2449,-4.3118,0.0,0.0,0.0,0.0,0.0,0.0,0.0,0.0,-4.7898,0.0,0.0,0.0,0.0,0.0,0.0,0.0,0.0,0.0,0.0,0.0,0.0,0.0,0.0,0.0,0.0,0.0,0.0,0.0,0.0,0.0,0.0,0.0,0.0,0.0,0.0,0.0,0.0,0.0,0.0,0.0,0.0,0.0,0.0,0.0,0.0,0.0,0.0,0.0,0.0,0.0,0.0,0.0,0.0,0.0,0.0,0.0,0.0,0.0,0.0,0.0,0.0,0.0,0.0,0.0,-3.9488,-4.1847,-4.4039,-4.6143,-4.5938,-4.5988,-4.6424,-4.5426,-4.3864,0.0,0.0,0.0,0.0,0.0,0.0,0.0,0.0,0.0,0.0,0.0,0.0,0.0,0.0,0.0,0.0,0.0,0.0,0.0,0.0,0.0,0.0,0.0,0.0,0.0,0.0,0.0,0.0,0.0,0.0,0.0,0.0,0.0,0.0,0.0,0.0,0.0,0.0,0.0,0.0,-4.4133,-4.504,-4.7486,0.0,0.0,0.0,0.0,0.0,0.0,-4.8741,-4.8557,0.0,0.0,0.0,0.0,0.0,0.0,0.0,0.0,0.0,0.0,0.0,0.0,0.0,0.0,0.0,0.0,0.0,0.0,0.0,0.0,0.0,0.0,0.0,0.0,0.0,0.0,0.0,0.0,0.0,0.0,0.0,0.0,0.0,0.0,0.0,0.0,0.0,0.0,0.0,0.0,0.0,0.0,0.0,0.0,0.0,0.0,0.0,0.0,0.0,0.0,0.0,0.0,0.0,0.0,0.0,-3.937,-4.2614,-4.4712,-4.5665,-4.5511,-4.5615,-4.6003,-4.4786,-4.3105,0.0,0.0,0.0,0.0,0.0,0.0,0.0,0.0,0.0,0.0,0.0,0.0,0.0,0.0,0.0,0.0,0.0,0.0,0.0,0.0,0.0,0.0,0.0,0.0,0.0,0.0,0.0,0.0,0.0,0.0,0.0,0.0,0.0,0.0,0.0,0.0,0.0,0.0,0.0,0.0,0.0,-4.6619,-4.9368,-4.8155,0.0,0.0,0.0,0.0,-4.8112,-4.9071,0.0,0.0,0.0,0.0,0.0,0.0,0.0,0.0,0.0,0.0,0.0,0.0,0.0,0.0,0.0,0.0,0.0,0.0,0.0,0.0,0.0,0.0,0.0,0.0,0.0,0.0,0.0,0.0,0.0,0.0,0.0,0.0,0.0,0.0,0.0,0.0,0.0,0.0,0.0,0.0,0.0,0.0,0.0,0.0,0.0,0.0,0.0,0.0,0.0,0.0,0.0,0.0,0.0,0.0,0.0,0.0,-3.9802,-4.2414,-4.43,-4.5372,-4.5423,-4.5406,-4.5477,-4.3553,-4.1812,0.0,0.0,0.0,0.0,0.0,0.0,0.0,0.0,0.0,0.0,0.0,0.0,0.0,0.0,0.0,0.0,0.0,0.0,0.0,0.0,0.0,0.0,0.0,0.0,0.0,0.0,0.0,0.0,0.0,0.0,0.0,0.0,0.0,0.0,0.0,0.0,0.0,0.0,0.0,0.0,0.0,-4.6066,-4.9855,-4.8315,-4.6929,0.0,0.0,-4.8484,-4.9022,-5.0327,0.0,0.0,0.0,0.0,0.0,0.0,0.0,0.0,0.0,0.0,0.0,0.0,0.0,0.0,0.0,0.0,0.0,0.0,0.0,0.0,0.0,0.0,0.0,0.0,0.0,0.0,0.0,0.0,0.0,0.0,0.0,0.0,0.0,0.0,0.0,0.0,0.0,0.0,0.0,0.0,0.0,0.0,0.0,0.0,0.0,0.0,0.0,0.0,0.0,0.0,0.0,0.0,0.0,0.0,0.0,-3.8129,-4.0366,-4.3325,-4.5057,-4.5406,-4.5441,-4.5441,-4.5423,-4.3195,-4.1435,0.0,0.0,0.0,0.0,0.0,0.0,0.0,0.0,0.0,0.0,0.0,0.0,0.0,0.0,0.0,0.0,0.0,0.0,0.0,0.0,0.0,0.0,0.0,0.0,0.0,0.0,0.0,0.0,0.0,0.0,0.0,0.0,0.0,0.0,0.0,0.0,0.0,0.0,0.0,0.0,0.0,0.0,-4.9453,-4.9226,0.0,0.0,0.0,-4.9321,-4.9006,0.0,0.0,0.0,0.0,0.0,0.0,0.0,0.0,0.0,0.0,0.0,0.0,0.0,0.0,0.0,0.0,0.0,0.0,0.0,0.0,0.0,0.0,0.0,0.0,0.0,0.0,0.0,0.0,0.0,0.0,0.0,0.0,0.0,0.0,0.0,0.0,0.0,0.0,0.0,0.0,0.0,0.0,0.0,0.0,0.0,0.0,0.0,0.0,0.0,0.0,0.0,0.0,0.0,0.0,0.0,0.0,0.0,-4.0144,-4.36,-4.5266,-4.5069,-4.5177,-4.5247,-4.5196,-4.336,0.0,0.0,0.0,0.0,0.0,0.0,0.0,0.0,0.0,0.0,0.0,0.0,0.0,0.0,0.0,0.0,0.0,0.0,0.0,0.0,0.0,0.0,0.0,0.0,0.0,0.0,0.0,-3.871,0.0,0.0,0.0,0.0,0.0,0.0,0.0,0.0,0.0,0.0,0.0,0.0,0.0,0.0,-4.6651,-4.8993,-4.9814,-5.0182,0.0,0.0,-4.9802,-4.9085,-5.0241,-5.0265,0.0,0.0,0.0,0.0,0.0,0.0,0.0,0.0,0.0,0.0,0.0,0.0,0.0,0.0,0.0,0.0,0.0,0.0,0.0,0.0,0.0,0.0,0.0,0.0,0.0,0.0,0.0,0.0,0.0,0.0,0.0,0.0,0.0,0.0,0.0,0.0,0.0,0.0,0.0,0.0,0.0,0.0,0.0,0.0,0.0,0.0,0.0,0.0,0.0,0.0,0.0,0.0,0.0,0.0,-3.7259,-3.8639,-4.2238,-4.4112,-4.4088,-4.4541,-4.4763,-4.4746,-4.3984,-4.2758,0.0,0.0,0.0,0.0,0.0,0.0,0.0,0.0,0.0,0.0,0.0,0.0,0.0,0.0,0.0,0.0,0.0,0.0,0.0,0.0,0.0,0.0,0.0,0.0,0.0,0.0,0.0,0.0,0.0,0.0,0.0,0.0,0.0,0.0,0.0,0.0,0.0,0.0,0.0,0.0,0.0,-4.6534,-4.8802,-4.9536,-5.0047,0.0,-4.9863,-4.9401,-4.9771,-5.1058,-5.114,-4.8604,0.0,0.0,0.0,0.0,0.0,0.0,0.0,0.0,0.0,0.0,0.0,0.0,0.0,0.0,0.0,0.0,0.0,0.0,0.0,0.0,0.0,0.0,0.0,0.0,0.0,0.0,0.0,0.0,0.0,0.0,0.0,0.0,0.0,0.0,0.0,0.0,0.0,0.0,0.0,0.0,0.0,0.0,0.0,0.0,0.0,0.0,0.0,0.0,0.0,0.0,0.0,0.0,0.0,-3.6473,-3.8203,-4.115,-4.273,-4.273,-4.2896,-4.3115,-4.3348,-4.2856,-4.2065,0.0,0.0,0.0,0.0,0.0,0.0,0.0,0.0,0.0,0.0,0.0,0.0,0.0,0.0,0.0,0.0,0.0,0.0,0.0,0.0,0.0,0.0,0.0,0.0,0.0,0.0,0.0,0.0,-4.6764,-4.7391,-4.6215,0.0,0.0,0.0,0.0,0.0,0.0,0.0,0.0,0.0,0.0,-4.6728,-4.9263,-4.9853,0.0,0.0,-5.019,-4.9621,-4.9243,-4.9909,-4.9649,-4.7184,-4.5967,0.0,0.0,0.0,0.0,0.0,0.0,0.0,0.0,0.0,0.0,0.0,0.0,0.0,0.0,0.0,0.0,0.0,0.0,0.0,0.0,0.0,0.0,0.0,0.0,0.0,0.0,0.0,0.0,0.0,0.0,0.0,0.0,0.0,0.0,0.0,0.0,0.0,0.0,0.0,0.0,0.0,0.0,0.0,0.0,0.0,0.0,0.0,0.0,0.0,0.0,0.0,0.0,-3.5579,-3.7415,-4.0091,-4.1488,-4.1504,-4.1599,-4.1892,-4.2289,-4.2074,-4.1821,0.0,0.0,0.0,0.0,0.0,0.0,0.0,0.0,0.0,0.0,0.0,0.0,0.0,0.0,0.0,0.0,0.0,0.0,0.0,0.0,0.0,0.0,0.0,0.0,0.0,0.0,0.0,0.0,-4.7607,-4.7432,-4.4978,0.0,0.0,0.0,0.0,0.0,0.0,0.0,0.0,0.0,0.0,-4.7286,-4.8967,-4.9643,-4.9857,-4.9787,-4.9436,-4.8954,-4.8021,-4.8246,-4.7921,-4.6221,0.0,0.0,0.0,0.0,0.0,0.0,0.0,0.0,0.0,0.0,0.0,0.0,0.0,0.0,0.0,0.0,0.0,0.0,0.0,0.0,0.0,0.0,0.0,0.0,0.0,0.0,0.0,-3.2128,0.0,0.0,-3.1133,0.0,0.0,0.0,0.0,0.0,0.0,0.0,0.0,0.0,0.0,0.0,0.0,0.0,0.0,0.0,0.0,0.0,0.0,0.0,0.0,0.0,0.0,-3.4609,-3.5894,-3.8916,-4.0507,-4.0507,-4.0992,-4.1399,-4.1737,-4.2219,-4.2515,-4.2496,0.0,0.0,0.0,0.0,0.0,0.0,0.0,0.0,0.0,0.0,0.0,0.0,0.0,0.0,0.0,0.0,0.0,0.0,0.0,0.0,0.0,0.0,0.0,0.0,0.0,0.0,-4.5379,-4.6146,-4.5588,0.0,0.0,0.0,0.0,0.0,0.0,0.0,0.0,0.0,-4.3762,-4.6709,-4.8412,-4.7594,-4.8613,-4.8912,-4.7372,-4.7286,-4.707,-4.6247,-4.6147,-4.623,0.0,0.0,0.0,0.0,0.0,0.0,0.0,0.0,0.0,0.0,0.0,0.0,0.0,0.0,0.0,0.0,0.0,0.0,0.0,0.0,0.0,0.0,0.0,0.0,0.0,0.0,0.0,-3.5135,-3.5056,0.0,0.0,0.0,0.0,0.0,0.0,0.0,0.0,0.0,0.0,0.0,-3.8359,-3.7742,0.0,0.0,0.0,0.0,0.0,0.0,0.0,0.0,0.0,0.0,0.0,0.0,-3.3664,-3.5054,-3.7737,-3.9088,-3.9104,-3.9276,-3.9676,-4.0347,-4.0992,-4.1709,-4.2448,0.0,0.0,0.0,0.0,0.0,0.0,0.0,0.0,0.0,0.0,0.0,0.0,0.0,0.0,0.0,0.0,0.0,0.0,0.0,0.0,0.0,0.0,0.0,0.0,0.0,-4.4633,0.0,0.0,0.0,0.0,0.0,0.0,0.0,0.0,0.0,0.0,-4.2557,-4.4471,-4.6324,-4.6888,-4.7324,-4.7868,-4.7542,-4.7382,0.0,0.0,0.0,0.0,0.0,0.0,0.0,0.0,0.0,0.0,0.0,0.0,0.0,0.0,-4.5394,-4.5266,-4.5542,-4.5899,-4.6184,0.0,0.0,0.0,0.0,0.0,0.0,0.0,0.0,0.0,0.0,0.0,0.0,0.0,0.0,-3.6385,-3.6396,-3.548,0.0,0.0,0.0,0.0,0.0,0.0,0.0,0.0,-3.878,-3.9628,-3.9909,-3.9313,-3.8716,0.0,-3.6835,-3.5103,0.0,0.0,0.0,0.0,0.0,0.0,0.0,0.0,-3.3526,-3.4923,-3.7227,-3.8391,-3.8391,-3.8391,-3.8711,-3.9382,-4.0488,-4.1581,-4.2673,-4.2559,-4.2,0.0,0.0,0.0,0.0,0.0,0.0,0.0,0.0,0.0,0.0,0.0,0.0,0.0,0.0,0.0,0.0,0.0,0.0,0.0,0.0,0.0,0.0,0.0,-4.4832,0.0,0.0,0.0,0.0,0.0,0.0,0.0,0.0,0.0,-4.214,-4.3566,-4.514,-4.6801,-4.6801,-4.6694,-4.688,0.0,0.0,0.0,0.0,0.0,0.0,0.0,-4.3871,-4.3476,-4.4085,-4.4964,-4.5819,-4.6054,-4.6495,-4.772,0.0,0.0,-4.741,-4.7491,-4.7815,-4.8146,-4.8221,-4.8352,-4.8894,-4.9197,-4.9702,0.0,0.0,0.0,0.0,0.0,0.0,0.0,0.0,-3.5778,-3.6009,0.0,-3.6074,0.0,0.0,0.0,0.0,-3.5155,-3.6968,0.0,0.0,-4.0557,-4.1527,-4.0961,-4.0117,-3.9661,-3.9525,-3.8019,-3.6887,-3.609,-3.4287,0.0,0.0,0.0,0.0,0.0,0.0,-3.4137,-3.5473,-3.7394,-3.8391,-3.8391,-3.8391,-3.86,-3.9094,-4.0747,-4.2171,-4.3099,-4.2958,-4.3105,-4.3623,-4.1111,0.0,0.0,0.0,0.0,0.0,0.0,0.0,0.0,0.0,0.0,0.0,0.0,0.0,0.0,0.0,0.0,0.0,0.0,0.0,0.0,-4.4052,0.0,0.0,0.0,0.0,0.0,0.0,0.0,0.0,0.0,-4.3051,-4.2941,-4.3791,-4.4609,-4.5435,0.0,0.0,0.0,0.0,-4.4803,-4.2396,-4.2476,-4.2423,-4.1041,-4.1823,-4.3086,-4.4457,0.0,0.0,-4.8597,-4.8538,-4.8407,-4.9059,-5.0319,-5.1037,-5.0194,-4.9934,-5.0194,-5.0972,-5.1102,-5.1195,-5.1306,-5.1732,-5.2324,-3.3319,0.0,0.0,0.0,0.0,-3.4244,-3.5299,-3.6627,-3.7167,-3.7503,-3.7671,-3.7408,0.0,0.0,0.0,0.0,0.0,0.0,-3.8003,-3.911,-4.0378,-4.1234,-4.1611,-4.1028,-4.0779,-4.0674,-3.9483,-3.8721,-3.8476,-3.7458,-3.5284,-3.2204,0.0,0.0,0.0,0.0,-3.474,-3.6104,-3.7621,-3.8391,-3.8391,-3.8391,-3.8805,-3.9714,-4.0961,-4.1956,-4.2637,-4.3459,-4.387,-4.3679,-4.3155,0.0,0.0,0.0,0.0,0.0,0.0,0.0,0.0,0.0,0.0,0.0,0.0,0.0,0.0,0.0,0.0,0.0,0.0,0.0,-4.458,-4.4946,-4.44,0.0,0.0,0.0,0.0,0.0,0.0,0.0,0.0,0.0,-4.3839,-4.5541,-4.6832,0.0,0.0,-4.54,-4.4799,-4.4349,-4.4004,-4.3821,-4.3352,0.0,-4.3288,-4.3494,-4.3973,-4.4837,-4.6293,-4.7711,-4.8904,-4.9203,-4.9732,-5.0862,-5.1419,-5.164,-5.1529,-5.1554,-5.1734,-5.2058,-5.2138,-5.2313,-5.286,-5.317,-5.3518,-3.3568,-3.4,-3.3836,-3.4062,-3.4525,-3.4991,-3.5814,-3.6801,-3.727,-3.7591,-3.7755,-3.7451,-3.6798,-3.5997,-3.5728,0.0,0.0,0.0,-3.7972,-3.9115,-3.9539,-4.004,-4.0459,-4.0196,-4.0115,-4.0026,-3.9406,-3.9039,-3.9039,-3.8327,-3.6783,-3.4546,0.0,-3.3434,-3.3614,-3.4593,-3.5682,-3.6766,-3.7864,-3.8391,-3.8408,-3.856,-3.9061,-4.0003,-4.0896,-4.164,-4.2192,-4.3162,-4.3816,-4.3973,-4.3976,-4.342,0.0,0.0,0.0,0.0,0.0,0.0,0.0,0.0,0.0,0.0,0.0,-3.9338,-3.9166,0.0,0.0,0.0,-4.4185,-4.5158,-4.599,-4.5537,0.0,0.0,0.0,0.0,0.0,0.0,0.0,-4.2468,-4.3213,-4.3772,-4.4078,-4.5545,-4.6377,-4.5927,-4.4923,-4.4197,-4.4036,0.0,-4.3338,-4.3685,-4.3165,-4.2892,-4.3453,-4.4071,-4.4912,-4.6099,-4.706,-4.7995,-4.8877,-4.947,-5.0202,-5.1175,-5.164,-5.1858,-5.2036,-5.215,-5.2264,-5.2405,-5.2434,-5.2679,-5.315,-5.3458,-5.3978,-3.3893,-3.4838,-3.4516,-3.4997,-3.5942,-3.5942,-3.6135,-3.6492,-3.6492,-3.6693,-3.6938,-3.6677,-3.6565,-3.6626,-3.6419,0.0,-3.7198,-3.7429,-3.7815,-3.8351,-3.8391,-3.8391,-3.8391,-3.8408,-3.8391,-3.8408,-3.8391,-3.8391,-3.8375,-3.7744,-3.7404,-3.7388,-3.6848,-3.6234,-3.5616,-3.6169,-3.6783,-3.7388,-3.8068,-3.8408,-3.8448,-3.886,-3.9418,-4.0053,-4.0737,-4.1338,-4.1917,-4.2476,-4.3282,-4.4309,-4.4026,-4.3971,-4.4195,0.0,0.0,0.0,0.0,0.0,0.0,0.0,0.0,0.0,0.0,0.0,0.0,0.0,0.0,-4.5491,-4.6572,0.0,-4.733,-4.5915,0.0,0.0,0.0,-4.307,-4.3605,-4.3047,-4.2848,-4.3382,0.0,0.0,-4.387,-4.4374,-4.4342,-4.3462,-4.325,-4.3145,-4.2928,-4.301,-4.2886,-4.2692,-4.2523,-4.2449,-4.2816,-4.4179,-4.5801,-4.7351,-4.7968,-4.8177,-4.8787,-4.9376,-5.0011,-5.0731,-5.1297,-5.179,-5.2054,-5.2084,-5.215,-5.2311,-5.2405,-5.2498,-5.257,-5.3078,-5.3718,-3.3656,-3.4846,-3.4812,-3.5359,-3.6369,-3.6369,-3.64,-3.6492,-3.6492,-3.6569,-3.6616,-3.6799,-3.7008,-3.7223,-3.7396,-3.7435,-3.737,-3.7652,-3.7914,-3.8001,-3.8017,-3.8148,-3.8391,-3.8391,-3.8391,-3.8391,-3.8391,-3.8391,-3.8391,-3.823,-3.8132,-3.8132,-3.797,-3.7572,-3.6907,-3.6983,-3.742,-3.8149,-3.8311,-3.8544,-3.886,-3.9454,-4.0103,-4.0737,-4.1356,-4.1831,-4.2205,-4.2768,-4.3488,-4.4364,-4.4733,-4.4989,-4.5078,-4.2837,0.0,0.0,0.0,0.0,0.0,0.0,0.0,0.0,0.0,-4.0912,-4.1071,0.0,-4.504,0.0,-4.6205,-4.7132,-4.6861,-4.6535,0.0,0.0,-4.5151,-4.4986,-4.5095,-4.4944,-4.4787,-4.4668,-4.4605,-4.4468,-4.427,-4.4249,-4.4071,-4.3598,-4.3893,-4.4125,-4.3956,-4.3866,-4.3779,-4.3521,-4.3322,-4.3473,-4.4064,-4.5469,-4.6557,-4.7057,-4.7636,-4.8227,-4.8776,-4.9411,-4.9993,-5.0677,-5.1367,-5.179,-5.1956,-5.2102,-5.2264,-5.2311,-5.2405,-5.2498,-5.2498,-5.2661,-5.2911,-3.3742,-3.489,-3.5045,-3.5634,-3.6492,-3.6492,-3.6492,-3.6492,-3.6492,-3.6492,-3.6554,-3.6892,-3.7081,-3.7271,-3.7716,-3.7812,-3.7637,-3.796,-3.8148,-3.8148,-3.8148,-3.8205,-3.8408,-3.8391,-3.8391,-3.8391,-3.8391,-3.8391,-3.8391,-3.8391,-3.8391,-3.8391,-3.8391,-3.8197,-3.7809,-3.7792,-3.8003,-3.8391,-3.856,-3.875,-3.9023,-3.9851,-4.0343,-4.0487,-4.1086,-4.1387,-4.135,-4.1683,-4.2178,-4.283,-4.3579,-4.4064,-4.4246,-4.2715,-4.1287,0.0,0.0,0.0,0.0,0.0,0.0,0.0,0.0,0.0,0.0,0.0,-4.5898,-4.557,-4.6745,-4.7286,-4.6797,-4.6782,-4.6621,-4.6182,-4.6148,-4.6161,-4.6163,-4.5855,-4.5462,-4.5072,-4.4673,-4.4316,-4.4023,-4.3923,-4.3805,-4.3611,-4.3906,-4.4064,-4.4006,-4.3923,-4.3881,-4.378,-4.3704,-4.3876,-4.4572,-4.5649,-4.6527,-4.6874,-4.752,-4.8115,-4.845,-4.9023,-4.9588,-5.0254,-5.0946,-5.1589,-5.1889,-5.2102,-5.2246,-5.234,-5.2452,-5.2498,-5.2498,-5.2498,-5.2604,-3.3962,-3.4905,-3.5266,-3.5838,-3.6492,-3.6492,-3.6492,-3.6492,-3.6492,-3.6492,-3.6554,-3.6877,-3.6999,-3.7054,-3.7614,-3.7863,-3.7874,-3.8181,-3.8335,-3.8335,-3.8335,-3.8351,-3.8391,-3.8391,-3.8391,-3.8391,-3.8391,-3.8391,-3.8391,-3.8391,-3.8391,-3.8391,-3.8391,-3.8391,-3.8408,-3.8448,-3.8448,-3.8504,-3.8805,-3.9061,-3.9152,-4.0051,-4.0302,-3.9926,-4.0408,-4.0526,-4.0139,-4.0236,-4.0456,-4.0924,-4.1754,-4.2461,-4.2988,-4.236,-4.1763,0.0,-4.0541,0.0,0.0,0.0,0.0,0.0,0.0,0.0,0.0,-4.5637,-4.6585,-4.7002,-4.7481,-4.7543,-4.6946,-4.6931,-4.6892,-4.6848,-4.6807,-4.6879,-4.6955,-4.6213,-4.5511,-4.5001,-4.4145,-4.3645,-4.3628,-4.3645,-4.3645,-4.3628,-4.3628,-4.3687,-4.3628,-4.3628,-4.3628,-4.3645,-4.3645,-4.3843,-4.4406,-4.5152,-4.5897,-4.6609,-4.7322,-4.7885,-4.7984,-4.8623,-4.9248,-4.9763,-5.0532,-5.1245,-5.1987,-5.2132,-5.2246,-5.2452,-5.2498,-5.2498,-5.2498,-5.2498,-5.2733,-3.4002,-3.4942,-3.5444,-3.5988,-3.6492,-3.6492,-3.6492,-3.6492,-3.6492,-3.6492,-3.6554,-3.6877,-3.6999,-3.707,-3.7614,-3.7754,-3.7546,-3.7812,-3.8017,-3.8017,-3.8001,-3.8148,-3.8391,-3.8391,-3.8391,-3.8391,-3.8391,-3.8391,-3.8391,-3.8391,-3.8391,-3.8391,-3.8391,-3.8391,-3.8408,0.0,0.0,0.0,-3.8985,-3.9365,-4.0086,-3.9928,-3.9967,-4.0411,-4.0187,0.0,-4.0199,-4.051,-4.0789,-4.0972,-4.1414,0.0,0.0,0.0,0.0,0.0,0.0,0.0,0.0,0.0,0.0,0.0,-4.471,-4.4904,-4.5189,-4.5611,-4.6121,-4.6731,-4.687,-4.7098,-4.7469,-4.7524,-4.7542,-4.7542,-4.7524,-4.7494,-4.7345,-4.6406,-4.5614,-4.5407,-4.4339,-4.3628,-4.3628,-4.3645,-4.3645,-4.3645,-4.3645,-4.3645,-4.3645,-4.3645,-4.3645,-4.3645,-4.3645,-4.3661,-4.381,-4.4456,-4.5202,-4.5881,-4.6609,-4.7289,-4.7948,-4.89,-4.9571,-4.9861,-5.0911,-5.184,-5.2102,-5.2293,-5.2405,-5.2498,-5.2498,-5.2498,-5.2498,-5.2498,-5.2552,-3.4394,-3.5285,-3.5623,-3.6022,0.0,-3.6492,-3.6492,-3.6492,-3.6492,-3.6492,-3.6554,-3.6968,-3.7207,-3.7206,-3.785,-3.8075,-3.7902,-3.8091,-3.8148,-3.8132,-3.8132,-3.8205,-3.8391,-3.8391,-3.8391,-3.8391,-3.8391,-3.8391,-3.8391,-3.8391,-3.8391,-3.8391,-3.8391,-3.8391,-3.8408,-3.8821,-3.9131,-3.9312,-3.961,-4.0003,-4.048,-4.0665,-4.0787,-4.0913,-4.0778,0.0,0.0,0.0,0.0,0.0,0.0,0.0,0.0,-4.2717,0.0,-4.3893,-4.4089,-4.4531,-4.5363,-4.5861,-4.6448,-4.7231,-4.7168,-4.6805,-4.6149,-4.6411,-4.6753,-4.7148,-4.7143,-4.7265,-4.7663,-4.7699,-4.7699,-4.7699,-4.7699,-4.7572,-4.7107,-4.6501,-4.5968,-4.5494,-4.4618,-4.4064,-4.4064,-4.3789,-4.3628,-4.3645,-4.3645,-4.3628,-4.3645,-4.3645,-4.3645,-4.3645,-4.3645,-4.3645,-4.3694,-4.4224,-4.4771,-4.5329,-4.6379,-4.7366,-4.7847,-4.895,-4.9861,-5.0237,-5.1035,-5.1654,-5.2054,-5.2246,-5.2452,-5.2498,-5.2498,-5.2498,-5.2498,-5.2498,-5.2498,-3.4787,-3.5688,-3.5816,-3.61,-3.6492,-3.6492,-3.6492,-3.6492,-3.6492,0.0,0.0,-3.715,-3.743,-3.7528,-3.8101,-3.8391,-3.8391,-3.8391,-3.8391,-3.8391,-3.8391,-3.8391,-3.8391,-3.8391,-3.8391,-3.8391,-3.8391,-3.8391,-3.8391,-3.8391,-3.8448,-3.8504,-3.852,-3.856,-3.8766,-3.9115,-3.947,-3.9902,-4.0334,-4.0689,-4.0832,-4.1455,-4.1611,-4.1253,-4.1375,-4.1306,-4.1013,-4.1075,-4.1204,-4.1342,-4.1452,-4.1723,-4.2071,-4.231,-4.2886,-4.3863,-4.4915,-4.6121,-4.7451,-4.8393,-4.9132,-4.9712,-4.915,-4.8291,-4.714,-4.7342,-4.7554,-4.7675,-4.7572,-4.7554,-4.7717,-4.7657,-4.7657,-4.7657,-4.7675,-4.7407,-4.6908,-4.6613,-4.6196,-4.5699,-4.5054,-4.4669,-4.4597,-4.4276,-4.3889,-4.3948,-4.3989,-4.3889,-4.3889,-4.3889,-4.3906,-4.4006,-4.4047,-4.3948,-4.4015,-4.4424,-4.4849,-4.5202,-4.6617,-4.7776,-4.815,-4.909,-5.0111,-5.0714,-5.1052,-5.1485,-5.2036,-5.2246,-5.234,-5.2516,-5.2498,-5.2498,-5.2498,-5.2498,-5.2498,-3.5033,-3.5752,-3.6226,-3.6414,-3.6492,-3.6492,-3.6492,-3.6492,-3.6492,-3.6662,-3.6925,-3.7257,-3.7584,-3.7867,-3.8222,-3.8391,-3.8391,-3.8391,-3.8391,-3.8391,-3.8391,-3.8391,-3.8391,-3.8391,-3.8391,-3.8391,-3.8391,-3.8391,-3.8391,-3.8408,-3.8544,-3.886,-3.8914,-3.9292,-3.9986,-4.0252,-4.0594,-4.096,-4.072,-4.0926,-4.1631,-4.1345,-4.126,-4.1351,-4.1107,-4.0967,-4.1093,-4.1172,-4.1298,-4.1459,-4.159,-4.2033,-4.2819,-4.3907,-4.487,-4.5568,-4.7283,-4.8389,-4.8496,-4.9254,-4.9561,-4.9227,-4.8952,-4.8603,-4.8159,-4.7715,-4.7572,-4.7657,-4.7554,-4.7554,-4.7675,-4.7597,-4.7554,-4.7511,-4.7425,-4.732,-4.7196,-4.6724,-4.631,-4.6213,-4.5614,-4.5214,-4.5161,-4.5054,-4.493,-4.4984,-4.4875,-4.4984,-4.493,-4.4635,-4.4597,-4.4947,-4.5037,-4.5037,-4.4964,-4.5106,-4.5357,-4.61,-4.6927,-4.7829,-4.851,-4.9794,-5.077,-5.1105,-5.1654,-5.2054,-5.2264,-5.2358,-5.2434,-5.2498,-5.2498,-5.2498,-5.2498,-5.2498,-5.2498,-3.4469,-3.511,-3.5723,-3.5938,-3.5984,-3.6338,-3.6662,-3.6952,-3.7013,-3.6955,-3.7002,-3.7288,-3.76,-3.7915,-3.8238,-3.8391,-3.8391,-3.8391,-3.8391,-3.8408,-3.86,-3.8694,-3.8766,-3.8969,-3.8952,-3.875,-3.8711,-3.8711,-3.8711,-3.8711,-3.8914,-3.9312,-3.9312,-3.9714,-4.0434,-4.0546,-4.1001,-4.1839,-4.1472,-4.1578,-4.211,-4.2038,-4.2152,-4.2595,-4.2404,-4.2441,-4.2673,-4.2686,-4.2749,-4.2848,-4.309,-4.3436,-4.3901,-4.4678,-4.5452,-4.6249,-4.7586,-4.8503,-4.8789,-4.9485,-4.9797,-4.9558,-4.9265,-4.9038,-4.8922,-4.7977,-4.7511,-4.7675,-4.7511,-4.7468,-4.7675,-4.7657,-4.7615,-4.7615,-4.7511,-4.7363,-4.732,-4.7035,-4.676,-4.6666,-4.6151,-4.5802,-4.5784,-4.5528,-4.5303,-4.5303,-4.5303,-4.5407,-4.5734,-4.5597,-4.539,-4.5303,-4.5303,-4.5303,-4.5303,-4.5303,-4.5458,-4.575,-4.6725,-4.7701,-4.8662,-4.9939,-5.0951,-5.1565,-5.2036,-5.2264,-5.2311,-5.2405,-5.2498,-5.2498,-5.2498,-5.2498,-5.2498,-5.2498,-5.2498,-3.3952,-3.4522,-3.5029,-3.5337,-3.5582,-3.6198,-3.6812,-3.7401,-3.7578,-3.7603,-3.7492,-3.7673,-3.7946,-3.83,-3.8574,-3.8655,-3.8639,-3.8655,-3.8655,-3.8694,-3.9023,-3.9115,-3.9152,-3.947,-3.9435,-3.9181,-3.9131,-3.9148,-3.9127,-3.9148,-3.9382,-3.9765,-3.9952,-4.0331,-4.0814,-4.103,-4.1552,-4.24,-4.2315,-4.2315,-4.2595,-4.2788,-4.3142,-4.3545,-4.3664,-4.3795,-4.3974,-4.4005,-4.4005,-4.4005,-4.4308,-4.4565,-4.4701,-4.5052,-4.5589,-4.6301,-4.7184,-4.8043,-4.8834,-4.9562,-4.9952,-4.9843,-4.9566,-4.9365,-4.9252,-4.8272,-4.7669,-4.7765,-4.7554,-4.745,-4.7657,-4.7657,-4.7657,-4.7657,-4.7572,-4.7425,-4.732,-4.7249,-4.7178,-4.7007,-4.6731,-4.6459,-4.6332,-4.6003,-4.5784,-4.5835,-4.5716,-4.5935,-4.6363,-4.6477,-4.6249,-4.5935,-4.5716,-4.5767,-4.5716,-4.5784,-4.5835,-4.5767,-4.6783,-4.7957,-4.8933,-5.0008,-5.1054,-5.1916,-5.2264,-5.2358,-5.2358,-5.2405,-5.2498,-5.2498,-5.2498,-5.2498,-5.2498,-5.2618,-5.2572,-3.3802,-3.4429,-3.458,-3.4922,-3.5566,-3.6178,-3.6832,-3.7456,-3.8124,-3.8585,-3.8796,-3.8832,-3.9065,-3.942,-3.9437,-3.9454,-3.9454,-3.9506,-3.9454,-3.9454,-3.9558,-3.9558,-3.9558,-3.961,-3.9606,-3.9528,-3.9537,-3.9537,-3.9545,-3.959,-3.9782,-4.0303,-4.1063,-4.1507,-4.1674,-4.2226,-4.2639,-4.2772,-4.2976,-4.3087,-4.3123,-4.3391,-4.3545,-4.3597,-4.3828,-4.3955,-4.4005,-4.4005,-4.4005,-4.4036,-4.4335,-4.4568,-4.4745,-4.514,-4.5438,-4.5554,-4.6472,-4.7549,-4.8804,-4.9687,-5.0038,-4.975,-4.9537,-4.9365,-4.915,-4.8744,-4.8403,-4.8249,-4.7788,-4.7597,-4.7657,-4.7597,-4.7554,-4.7554,-4.7407,-4.7302,-4.732,-4.732,-4.7276,-4.7276,-4.7169,-4.7187,-4.7025,-4.6916,-4.6934,-4.6806,-4.6806,-4.6852,-4.7035,-4.708,-4.708,-4.7017,-4.6944,-4.687,-4.687,-4.7043,-4.6916,-4.7025,-4.7734,-4.8514,-4.9359,-5.0297,-5.1355,-5.1889,-5.248,-5.2508,-5.2526,-5.2498,-5.259,-5.269,-5.2645,-5.2526,-5.2572,-5.2787,-5.29,-3.3175,-3.3732,-3.4138,-3.4927,-3.5839,-3.6566,-3.7293,-3.797,-3.8706,-3.9415,-3.9984,-4.002,-3.9884,-3.9595,-3.9597,-3.961,-3.961,-3.961,-3.961,-3.961,-3.9885,-4.002,-4.0054,-4.0254,-4.0272,-4.0035,-4.0037,-4.0037,-4.0104,-4.05,-4.0984,-4.1464,-4.1866,-4.2149,-4.2346,-4.2657,-4.2959,-4.3284,-4.3373,-4.3495,-4.3631,-4.3631,-4.3697,-4.3846,-4.3942,-4.4005,-4.4036,-4.4151,-4.425,-4.4279,-4.4707,-4.4992,-4.5039,-4.5417,-4.5645,-4.5706,-4.6887,-4.8085,-4.9122,-4.9901,-5.0221,-5.0012,-4.9933,-4.9787,-4.9588,-4.9246,-4.9038,-4.8887,-4.8289,-4.7893,-4.7992,-4.7806,-4.7615,-4.7615,-4.7511,-4.7425,-4.7407,-4.7345,-4.732,-4.732,-4.732,-4.732,-4.7294,-4.7249,-4.7249,-4.7232,-4.7249,-4.7294,-4.732,-4.732,-4.732,-4.7258,-4.7232,-4.7205,-4.7249,-4.7249,-4.7276,-4.7374,-4.7553,-4.8119,-4.9081,-4.9839,-5.0678,-5.1665,-5.2407,-5.2795,-5.2857,-5.3096,-5.3203,-5.3162,-5.3203,-5.3203,-5.3203,-5.3348,-5.3348,-3.2841,-3.3277,-3.3895,-3.4766,-3.5845,-3.6539,-3.742,-3.8369,-3.9091,-3.9884,-4.0683,-4.0745,-4.047,-4.0014,-3.9934,-3.9969,-3.9969,-3.9969,-3.9969,-3.9986,-4.0337,-4.0436,-4.0485,-4.0728,-4.0823,-4.068,-4.0662,-4.071,-4.0871,-4.1437,-4.1985,-4.2346,-4.2495,-4.2665,-4.2904,-4.3032,-4.3336,-4.3646,-4.3712,-4.3795,-4.3974,-4.3873,-4.3855,-4.3986,-4.4079,-4.4109,-4.414,-4.4374,-4.4546,-4.4546,-4.5017,-4.5285,-4.5342,-4.561,-4.5771,-4.5935,-4.7275,-4.8424,-4.9044,-4.9932,-5.0399,-5.0298,-5.025,-5.0196,-5.0009,-4.9759,-4.9607,-4.9488,-4.8903,-4.8477,-4.8383,-4.8172,-4.8014,-4.7974,-4.7852,-4.7705,-4.7687,-4.7578,-4.7407,-4.7407,-4.7407,-4.7407,-4.7363,-4.7302,-4.7302,-4.7345,-4.7475,-4.7542,-4.7585,-4.7669,-4.7756,-4.7733,-4.7733,-4.7627,-4.7432,-4.7518,-4.75,-4.7585,-4.7741,-4.8202,-4.8889,-4.9731,-5.0557,-5.1917,-5.2665,-5.3152,-5.3267,-5.3547,-5.372,-5.3701,-5.3739,-5.3683,-5.3624,-5.3777,-5.3851,-3.3198,-3.3287,-3.3799,-3.4489,-3.5104,-3.5811,-3.6904,-3.8271,-3.9086,-3.9901,-4.0645,-4.0888,-4.0853,-4.0849,-4.0836,-4.0823,-4.0823,-4.0758,-4.0776,-4.0823,-4.0871,-4.0888,-4.0871,-4.0918,-4.1111,-4.1385,-4.1393,-4.1674,-4.2126,-4.2361,-4.2438,-4.2544,-4.2951,-4.317,-4.3279,-4.3642,-4.3923,-4.3942,-4.3974,-4.3986,-4.4067,-4.425,-4.4231,-4.4091,-4.4231,-4.4383,-4.443,-4.4682,-4.4872,-4.4872,-4.5118,-4.5284,-4.5399,-4.5543,-4.5696,-4.594,-4.741,-4.8311,-4.8426,-4.9759,-5.0603,-5.0447,-5.0386,-5.0345,-5.0183,-5.012,-5.0038,-4.9879,-4.9529,-4.9169,-4.885,-4.8711,-4.864,-4.864,-4.8421,-4.8249,-4.8249,-4.7951,-4.7699,-4.7723,-4.7747,-4.7747,-4.7578,-4.7363,-4.7475,-4.7603,-4.7834,-4.8114,-4.8192,-4.8477,-4.8586,-4.8621,-4.8549,-4.8458,-4.7752,-4.7834,-4.8114,-4.8192,-4.8382,-4.8844,-4.9767,-5.062,-5.1343,-5.2121,-5.2883,-5.3385,-5.3608,-5.3739,-5.3814,-5.3851,-5.3888,-5.3888,-5.3997,-5.4123,-5.4228,-3.3903,-3.4252,-3.4816,-3.5171,-3.5454,-3.6175,-3.6902,-3.7648,-3.9112,-4.0032,-4.0608,-4.1367,-4.171,-4.1735,-4.1736,-4.1418,-4.0918,-4.0871,-4.1041,-4.1255,-4.13,-4.1463,-4.1709,-4.1753,-4.178,-4.1937,-4.1977,-4.2221,-4.2696,-4.2793,-4.3032,-4.3371,-4.3564,-4.368,-4.3758,-4.3892,-4.4005,-4.4017,-4.4181,-4.4231,-4.4279,-4.4519,-4.4643,-4.4572,-4.4624,-4.4676,-4.4726,-4.5007,-4.5142,-4.5165,-4.5437,-4.5616,-4.5665,-4.5692,-4.5757,-4.5955,-4.7424,-4.8357,-4.8504,-4.9879,-5.0776,-5.0622,-5.0587,-5.0509,-5.0383,-5.0336,-5.0245,-5.0114,-4.9993,-4.9787,-4.948,-4.9085,-4.8816,-4.8781,-4.8694,-4.8623,-4.8568,-4.8477,-4.8402,-4.8402,-4.8384,-4.8384,-4.8271,-4.829,-4.829,-4.8328,-4.8458,-4.8568,-4.8623,-4.8765,-4.885,-4.8816,-4.8781,-4.8692,-4.8458,-4.8403,-4.8568,-4.8604,-4.8767,-4.8802,-4.941,-5.0131,-5.0821,-5.1729,-5.2694,-5.3601,-5.3788,-5.4262,-5.4281,-5.4349,-5.4382,-5.4296,-5.4482,-5.45,-5.4616,-3.4577,-3.5068,-3.5424,-3.5639,-3.569,-3.6344,-3.6881,-3.7421,-3.885,-3.9861,-4.0639,-4.1476,-4.1932,-4.2186,-4.2205,-4.1924,-4.1346,-4.1346,-4.1463,-4.1709,-4.1735,-4.1906,-4.2157,-4.2216,-4.2287,-4.2476,-4.2688,-4.2958,-4.3267,-4.332,-4.3545,-4.3878,-4.3929,-4.4005,-4.4091,-4.4121,-4.4151,-4.4279,-4.4438,-4.4519,-4.4591,-4.4825,-4.4985,-4.503,-4.5074,-4.5058,-4.5055,-4.5323,-4.5475,-4.549,-4.568,-4.581,-4.581,-4.5824,-4.5838,-4.5974,-4.7424,-4.8411,-4.8604,-4.9958,-5.0841,-5.0776,-5.0748,-5.0687,-5.0527,-5.049,-5.0423,-5.031,-5.0264,-5.0193,-5.0,-4.956,-4.9227,-4.915,-4.9052,-4.9005,-4.9005,-4.8869,-4.8781,-4.8746,-4.8746,-4.8781,-4.8816,-4.8781,-4.8781,-4.8816,-4.8885,-4.9005,-4.9005,-4.9085,-4.915,-4.9132,-4.9214,-4.9214,-4.9132,-4.9164,-4.9034,-4.9052,-4.915,-4.9118,-4.9235,-4.9851,-5.0576,-5.1466,-5.2428,-5.3438,-5.415,-5.4666,-5.4871,-5.4931,-5.4791,-5.468,-5.4761,-5.4822,-5.4882,-3.5115,-3.556,-3.5622,-3.5711,-3.5783,-3.6242,-3.6859,-3.7631,-3.8214,-3.9394,-4.0655,-4.1078,-4.164,-4.2096,-4.2342,-4.2239,-4.2198,-4.2198,-4.2198,-4.2198,-4.2198,-4.2239,-4.232,-4.236,-4.2598,-4.3032,-4.3563,-4.3832,-4.3846,-4.3892,-4.3986,-4.4036,-4.4079,-4.4192,-4.4383,-4.4411,-4.4519,-4.4676,-4.4776,-4.48,-4.4843,-4.5137,-4.5302,-4.5342,-4.5528,-4.5545,-4.5323,-4.5596,-4.575,-4.5781,-4.581,-4.58,-4.5847,-4.5924,-4.5935,-4.6167,-4.7482,-4.8314,-4.8624,-4.9997,-5.089,-5.0893,-5.0871,-5.0813,-5.0723,-5.0696,-5.0625,-5.0466,-5.0404,-5.0383,-5.0339,-5.0178,-5.0019,-4.9879,-4.9577,-4.9396,-4.9315,-4.9052,-4.8816,-4.8885,-4.89,-4.885,-4.885,-4.89,-4.8967,-4.9019,-4.9201,-4.9396,-4.9396,-4.9558,-4.9824,-4.9852,-4.9759,-4.9712,-4.9787,-4.986,-4.9665,-4.9529,-4.9665,-4.9693,-4.973,-5.0202,-5.1015,-5.1905,-5.33,-5.4286,-5.4713,-5.5099,-5.5064,-5.5091,-5.5019,-5.5019,-5.5083,-5.5145,-5.5075,-3.5941,-3.6114,-3.6374,-3.6498,-3.6498,-3.6684,-3.704,-3.7443,-3.8417,-3.9246,-3.9983,-4.127,-4.205,-4.2359,-4.2814,-4.3087,-4.3087,-4.3087,-4.2921,-4.275,-4.2711,-4.2808,-4.305,-4.316,-4.3321,-4.3566,-4.3753,-4.3942,-4.4132,-4.421,-4.4289,-4.4511,-4.4565,-4.4572,-4.4676,-4.4676,-4.4745,-4.4819,-4.4966,-4.5096,-4.5159,-4.5419,-4.5584,-4.5651,-4.5777,-4.5812,-4.5793,-4.5843,-4.5892,-4.5955,-4.5974,-4.6009,-4.6007,-4.6002,-4.6259,-4.6806,-4.7773,-4.8701,-4.9339,-5.0248,-5.0906,-5.0906,-5.0906,-5.0887,-5.0867,-5.0819,-5.0754,-5.0625,-5.0587,-5.0567,-5.0445,-5.038,-5.0268,-5.0095,-4.9906,-4.975,-4.975,-4.9627,-4.9588,-4.9539,-4.9539,-4.9539,-4.9539,-4.9539,-4.9531,-4.9521,-4.9674,-4.975,-4.9778,-4.9841,-4.9978,-5.0063,-5.0089,-5.013,-5.0159,-5.0164,-5.0073,-4.9917,-4.9981,-5.0019,-5.0126,-5.0506,-5.1364,-5.2577,-5.3972,-5.4829,-5.5236,-5.5389,-5.5341,-5.537,-5.5416,-5.5439,-5.5439,-5.5393,-5.5317,-3.6533,-3.6557,-3.6781,-3.69,-3.6939,-3.7152,-3.7321,-3.7559,-3.8451,-3.913,-3.9781,-4.1129,-4.2032,-4.2436,-4.3251,-4.3664,-4.3682,-4.3701,-4.3594,-4.3456,-4.3232,-4.3321,-4.3548,-4.3795,-4.3968,-4.4109,-4.417,-4.4279,-4.4484,-4.4493,-4.4599,-4.4751,-4.48,-4.4849,-4.4938,-4.4962,-4.4985,-4.5096,-4.5302,-4.5419,-4.5496,-4.5659,-4.5816,-4.5881,-4.5935,-4.5982,-4.6026,-4.6015,-4.6021,-4.6041,-4.6113,-4.6116,-4.6096,-4.6091,-4.6415,-4.7215,-4.8005,-4.8817,-4.9668,-5.0422,-5.0906,-5.0906,-5.0906,-5.0906,-5.0906,-5.0921,-5.0887,-5.0822,-5.0839,-5.0803,-5.0696,-5.0605,-5.0529,-5.0445,-5.0249,-5.0155,-5.013,-5.014,-5.014,-5.0116,-5.014,-5.0145,-5.0145,-5.0145,-5.0164,-5.0164,-5.0164,-5.0164,-5.0164,-5.0187,-5.0233,-5.032,-5.0325,-5.037,-5.0431,-5.0451,-5.047,-5.0347,-5.0233,-5.0202,-5.0231,-5.077,-5.1525,-5.3119,-5.4578,-5.5122,-5.5549,-5.5593,-5.5593,-5.5692,-5.5749,-5.5653,-5.5593,-5.5613,-5.5551,-3.6939,-3.6939,-3.6978,-3.7055,-3.7094,-3.7577,-3.7774,-3.7895,-3.8382,-3.9061,-3.9877,-4.0891,-4.1646,-4.2415,-4.346,-4.4017,-4.4017,-4.4017,-4.4162,-4.4184,-4.3912,-4.3744,-4.3791,-4.4114,-4.4402,-4.4599,-4.4701,-4.4795,-4.4819,-4.48,-4.4825,-4.4915,-4.4919,-4.4988,-4.5203,-4.5243,-4.5362,-4.5566,-4.5654,-4.5712,-4.5774,-4.5866,-4.5945,-4.6008,-4.6051,-4.6099,-4.6105,-4.6169,-4.6174,-4.6127,-4.6173,-4.6183,-4.6157,-4.6198,-4.6723,-4.7536,-4.8192,-4.9049,-4.9829,-5.056,-5.0947,-5.0947,-5.0947,-5.0921,-5.0942,-5.1004,-5.1004,-5.099,-5.1043,-5.1062,-5.1037,-5.0951,-5.0863,-5.08,-5.0586,-5.047,-5.0491,-5.0509,-5.0471,-5.0491,-5.0547,-5.0582,-5.0528,-5.0528,-5.0546,-5.0546,-5.0528,-5.0509,-5.0509,-5.0471,-5.0564,-5.0582,-5.0603,-5.0638,-5.0692,-5.0706,-5.0726,-5.0692,-5.0586,-5.0509,-5.0677,-5.1273,-5.2163,-5.3725,-5.494,-5.5461,-5.5768,-5.5874,-5.5891,-5.5924,-5.5891,-5.5767,-5.5785,-5.5874,-5.5891,-3.7358,-3.7377,-3.7756,-3.7933,-3.7949,-3.8219,-3.83,-3.8396,-3.8766,-3.9081,-3.9621,-4.1008,-4.1745,-4.2154,-4.3596,-4.4308,-4.4289,-4.4346,-4.4402,-4.4493,-4.4447,-4.4411,-4.4411,-4.4519,-4.465,-4.4776,-4.4849,-4.4896,-4.5074,-4.5118,-4.5222,-4.54,-4.5362,-4.5455,-4.561,-4.5626,-4.5692,-4.5805,-4.5819,-4.5892,-4.5943,-4.597,-4.5998,-4.6076,-4.6131,-4.6171,-4.6169,-4.6242,-4.626,-4.6254,-4.627,-4.6264,-4.6328,-4.6797,-4.748,-4.8322,-4.9067,-4.9887,-5.0636,-5.0994,-5.1111,-5.11,-5.11,-5.1123,-5.1113,-5.1089,-5.1074,-5.1062,-5.1093,-5.1105,-5.1105,-5.1081,-5.1049,-5.1062,-5.0774,-5.0566,-5.0564,-5.0582,-5.0582,-5.0583,-5.0619,-5.0634,-5.0651,-5.0651,-5.0651,-5.0634,-5.0651,-5.0651,-5.0684,-5.0684,-5.0716,-5.0805,-5.0825,-5.0903,-5.0932,-5.0959,-5.0972,-5.0972,-5.0937,-5.0921,-5.1322,-5.2,-5.3143,-5.4546,-5.5433,-5.6029,-5.6188,-5.6317,-5.6286,-5.6155,-5.6188,-5.6142,-5.6232,-5.6297,-5.6286,-3.7844,-3.7998,-3.8318,-3.851,-3.8658,-3.8796,-3.8836,-3.8905,-3.9146,-3.9279,-3.96,-4.0746,-4.1574,-4.2027,-4.3441,-4.4297,-4.4568,-4.4676,-4.48,-4.4943,-4.503,-4.5007,-4.4919,-4.4896,-4.4966,-4.5118,-4.5118,-4.5264,-4.5418,-4.5454,-4.5558,-4.5665,-4.5713,-4.5775,-4.5822,-4.5835,-4.5861,-4.5899,-4.5919,-4.5982,-4.6028,-4.6074,-4.6119,-4.6176,-4.6222,-4.6236,-4.6244,-4.6283,-4.6304,-4.6289,-4.6308,-4.6445,-4.6836,-4.7266,-4.8105,-4.9199,-4.9732,-5.0293,-5.103,-5.1224,-5.1206,-5.1193,-5.1211,-5.1218,-5.118,-5.1159,-5.1139,-5.1152,-5.1181,-5.1201,-5.1171,-5.1161,-5.1171,-5.1181,-5.0966,-5.0801,-5.0845,-5.0901,-5.0868,-5.0854,-5.0854,-5.0881,-5.0881,-5.0868,-5.0887,-5.0914,-5.0946,-5.0927,-5.0927,-5.0901,-5.0887,-5.0985,-5.1042,-5.1097,-5.112,-5.1131,-5.1131,-5.1131,-5.1528,-5.1462,-5.2124,-5.2854,-5.3935,-5.5085,-5.5891,-5.6446,-5.6474,-5.6483,-5.6446,-5.6378,-5.6483,-5.6483,-5.6483,-5.6483,-5.6483,-3.8415,-3.8628,-3.8676,-3.8828,-3.9109,-3.9234,-3.9261,-3.9345,-3.9464,-3.9551,-3.9763,-4.0416,-4.138,-4.2065,-4.3346,-4.4197,-4.4943,-4.5055,-4.5265,-4.5436,-4.5526,-4.5472,-4.5304,-4.5285,-4.538,-4.5543,-4.5635,-4.5677,-4.5733,-4.5775,-4.5809,-4.584,-4.5875,-4.5908,-4.5936,-4.5928,-4.5936,-4.5975,-4.6026,-4.6072,-4.6125,-4.6169,-4.6215,-4.625,-4.6269,-4.6289,-4.6289,-4.6289,-4.6289,-4.6289,-4.6367,-4.6855,-4.75,-4.7656,-4.8574,-4.9785,-5.0195,-5.0605,-5.113,-5.1267,-5.1242,-5.1238,-5.1244,-5.1219,-5.1238,-5.1232,-5.1242,-5.1245,-5.1271,-5.1284,-5.1281,-5.1237,-5.1248,-5.1265,-5.123,-5.122,-5.122,-5.1276,-5.1284,-5.123,-5.1256,-5.1292,-5.13,-5.13,-5.1292,-5.1102,-5.1142,-5.1132,-5.1132,-5.1132,-5.1142,-5.1201,-5.1248,-5.1265,-5.1284,-5.1284,-5.1265,-5.1315,-5.1988,-5.2349,-5.3066,-5.3833,-5.4739,-5.5618,-5.6203,-5.6474,-5.6483,-5.6483,-5.6483,-5.6483,-5.6483,-5.6483,-5.6483,-5.6483,-5.6483,-3.8857,-3.8943,-3.9091,-3.9173,-3.9279,-3.9401,-3.9477,-3.9508,-3.9698,-3.9807,-4.0041,-4.0853,-4.1753,-4.2671,-4.3538,-4.4496,-4.5245,-4.5435,-4.5665,-4.5776,-4.582,-4.5808,-4.5725,-4.5679,-4.5708,-4.5803,-4.582,-4.5844,-4.5867,-4.5875,-4.5883,-4.5898,-4.5956,-4.596,-4.6056,-4.6056,-4.6122,-4.6203,-4.622,-4.6216,-4.6234,-4.625,-4.6289,-4.6289,-4.6289,-4.6289,-4.6289,-4.6289,-4.6289,-4.6454,-4.6931,-4.7439,-4.7825,-4.8822,-4.9643,-5.0131,-5.0795,-5.1162,-5.133,-5.1352,-5.1374,-5.1342,-5.1328,-5.1363,-5.1347,-5.1344,-5.1352,-5.1352,-5.1385,-5.1351,-5.1327,-5.1283,-5.1284,-5.1303,-5.13,-5.1273,-5.1273,-5.1292,-5.1273,-5.1273,-5.1292,-5.13,-5.13,-5.13,-5.13,-5.13,-5.13,-5.13,-5.13,-5.13,-5.13,-5.13,-5.13,-5.13,-5.13,-5.1339,-5.1445,-5.1717,-5.2399,-5.3143,-5.3872,-5.4577,-5.5405,-5.595,-5.6357,-5.6483,-5.6483,-5.6483,-5.6483,-5.6483,-5.6483,-5.6483,-5.6483,-5.6483,-5.6483,-3.9109,-3.9242,-3.9383,-3.9526,-3.967,-3.9781,-3.9848,-3.9892,-4.0036,-4.0119,-4.0291,-4.0826,-4.1741,-4.2989,-4.353,-4.4372,-4.543,-4.5736,-4.582,-4.5869,-4.5899,-4.593,-4.5987,-4.5959,-4.5929,-4.592,-4.5899,-4.592,-4.5978,-4.6007,-4.6026,-4.6091,-4.6088,-4.6125,-4.619,-4.6196,-4.624,-4.6269,-4.6303,-4.6288,-4.627,-4.6289,-4.6289,-4.6289,-4.6289,-4.628,-4.6211,-4.6191,-4.6387,-4.682,-4.754,-4.8087,-4.8353,-4.9417,-5.0217,-5.0764,-5.1076,-5.1385,-5.1398,-5.1394,-5.1394,-5.139,-5.1391,-5.1396,-5.1396,-5.1398,-5.1385,-5.1386,-5.1402,-5.1394,-5.1363,-5.1343,-5.1351,-5.1362,-5.1352,-5.1333,-5.1347,-5.1317,-5.13,-5.13,-5.13,-5.13,-5.13,-5.1316,-5.1308,-5.1308,-5.1308,-5.1308,-5.13,-5.13,-5.13,-5.13,-5.13,-5.13,-5.13,-5.1406,-5.1615,-5.2122,-5.2882,-5.3702,-5.4499,-5.5236,-5.5968,-5.6277,-5.6488,-5.6483,-5.6483,-5.6483,-5.6492,-5.6492,-5.6492,-5.6483,-5.6483,-5.6483,-5.6483,-3.9294,-3.9575,-3.9647,-3.9867,-4.0118,-4.0215,-4.0272,-4.0345,-4.0382,-4.0408,-4.0527,-4.055,-4.1585,-4.2924,-4.3299,-4.433,-4.5537,-4.5929,-4.594,-4.5996,-4.6005,-4.6057,-4.6105,-4.6105,-4.6084,-4.5978,-4.5987,-4.6049,-4.6098,-4.6118,-4.6177,-4.6257,-4.6264,-4.623,-4.6269,-4.6269,-4.6249,-4.6249,-4.6249,-4.6237,-4.6202,-4.622,-4.625,-4.625,-4.623,-4.6201,-4.6169,-4.6298,-4.6587,-4.7212,-4.8155,-4.8735,-4.9165,-4.9845,-5.0572,-5.1269,-5.1283,-5.1297,-5.1291,-5.1302,-5.1302,-5.1352,-5.1351,-5.1351,-5.1347,-5.1375,-5.1391,-5.14,-5.1386,-5.1386,-5.1402,-5.1382,-5.1381,-5.1396,-5.1396,-5.1398,-5.1394,-5.1333,-5.133,-5.1317,-5.1336,-5.1341,-5.133,-5.1336,-5.1317,-5.1303,-5.1303,-5.1303,-5.1303,-5.1303,-5.1323,-5.133,-5.1341,-5.1347,-5.1341,-5.1439,-5.1659,-5.2439,-5.3253,-5.4118,-5.4981,-5.5665,-5.6199,-5.6354,-5.6491,-5.6484,-5.6496,-5.6491,-5.6484,-5.6488,-5.6492,-5.6483,-5.6483,-5.6483,-5.6492,-3.9807,-3.9933,-3.9975,-4.0139,-4.0358,-4.0425,-4.0519,-4.0635,-4.0621,-4.0655,-4.0668,-4.0675,-4.1619,-4.2889,-4.3277,-4.4344,-4.5706,-4.6052,-4.6099,-4.6177,-4.6182,-4.621,-4.6199,-4.6222,-4.621,-4.6245,-4.6221,-4.6206,-4.623,-4.6269,-4.6241,-4.6276,-4.6246,-4.6201,-4.6205,-4.6185,-4.6167,-4.6158,-4.6158,-4.6157,-4.6122,-4.6114,-4.6132,-4.6138,-4.6125,-4.6119,-4.6266,-4.6715,-4.7144,-4.7334,-4.8739,-4.9412,-4.9757,-5.0409,-5.085,-5.1055,-5.1094,-5.1123,-5.1123,-5.1084,-5.1074,-5.1084,-5.1174,-5.1224,-5.1252,-5.1327,-5.1342,-5.1379,-5.1389,-5.1396,-5.1386,-5.1386,-5.1386,-5.1384,-5.1402,-5.1402,-5.14,-5.1374,-5.1369,-5.1372,-5.1372,-5.1363,-5.1355,-5.1351,-5.1347,-5.1347,-5.1347,-5.1347,-5.1351,-5.1355,-5.1363,-5.1369,-5.1391,-5.1391,-5.1391,-5.1525,-5.1779,-5.2697,-5.3536,-5.4379,-5.5208,-5.5946,-5.6367,-5.6481,-5.6508,-5.6494,-5.6489,-5.6489,-5.6484,-5.6497,-5.6491,-5.6492,-5.6496,-5.6498,-5.6496,-4.0139,-4.0232,-4.0267,-4.037,-4.0511,-4.0574,-4.0629,-4.0713,-4.0713,-4.0754,-4.0787,-4.0878,-4.1798,-4.3078,-4.3487,-4.4509,-4.5769,-4.6147,-4.6182,-4.625,-4.625,-4.6211,-4.6191,-4.621,-4.6191,-4.6191,-4.621,-4.621,-4.6228,-4.6191,-4.6191,-4.6189,-4.6167,-4.6152,-4.6138,-4.6135,-4.6113,-4.6094,-4.6094,-4.6074,-4.6055,-4.6035,-4.6016,-4.5995,-4.605,-4.6169,-4.6582,-4.6815,-4.7568,-4.8317,-4.9163,-4.9739,-5.0231,-5.0565,-5.0903,-5.0972,-5.0996,-5.0996,-5.0996,-5.1008,-5.1008,-5.1,-5.1074,-5.1092,-5.1093,-5.115,-5.1238,-5.1291,-5.1367,-5.1398,-5.1394,-5.1372,-5.1398,-5.1402,-5.1384,-5.1384,-5.1385,-5.1385,-5.1384,-5.1384,-5.1386,-5.1381,-5.1396,-5.1394,-5.1396,-5.1398,-5.14,-5.1382,-5.1384,-5.1385,-5.1386,-5.1386,-5.1386,-5.1385,-5.1503,-5.1796,-5.2167,-5.3027,-5.3906,-5.4745,-5.5468,-5.621,-5.6465,-5.6542,-5.6543,-5.6512,-5.6484,-5.6481,-5.6497,-5.6497,-5.6484,-5.6494,-5.6494,-5.6494,-5.6484,-4.0364,-4.0427,-4.0492,-4.0582,-4.0674,-4.0718,-4.0754,-4.0776,-4.0787,-4.084,-4.0929,-4.1021,-4.1941,-4.34,-4.4206,-4.5017,-4.619,-4.619,-4.6184,-4.6173,-4.6183,-4.6136,-4.6128,-4.6108,-4.612,-4.6114,-4.6099,-4.6113,-4.6162,-4.6128,-4.6123,-4.6118,-4.6107,-4.6105,-4.61,-4.604,-4.6051,-4.6051,-4.6018,-4.5979,-4.5926,-4.5896,-4.5866,-4.5928,-4.6028,-4.6436,-4.6848,-4.7507,-4.8201,-4.899,-4.9606,-4.9971,-5.0548,-5.0683,-5.0773,-5.0918,-5.094,-5.094,-5.094,-5.0926,-5.0898,-5.0884,-5.0945,-5.0972,-5.0972,-5.1016,-5.1053,-5.1141,-5.1211,-5.1258,-5.1239,-5.1271,-5.1271,-5.1291,-5.1271,-5.1297,-5.1327,-5.1327,-5.1327,-5.1332,-5.1381,-5.1364,-5.1343,-5.1361,-5.1357,-5.1357,-5.1355,-5.1381,-5.1379,-5.1359,-5.1359,-5.1364,-5.1365,-5.1386,-5.1639,-5.2145,-5.2692,-5.353,-5.4391,-5.5231,-5.5854,-5.6499,-5.6568,-5.6582,-5.6554,-5.6523,-5.6503,-5.6481,-5.6479,-5.6499,-5.6497,-5.6493,-5.6484,-5.6481,-5.6501,-4.0427,-4.0511,-4.0563,-4.0699,-4.0859,-4.0869,-4.0932,-4.1046,-4.1026,-4.105,-4.1046,-4.1135,-4.2002,-4.3593,-4.5229,-4.5922,-4.6131,-4.6163,-4.6132,-4.6114,-4.6103,-4.6098,-4.6103,-4.6114,-4.6092,-4.6047,-4.6027,-4.606,-4.608,-4.6088,-4.6092,-4.6072,-4.6026,-4.6015,-4.6002,-4.5921,-4.5853,-4.5834,-4.5804,-4.577,-4.5754,-4.5793,-4.5816,-4.5989,-4.6455,-4.6998,-4.737,-4.8219,-4.9181,-4.9413,-5.0164,-5.0529,-5.0683,-5.0683,-5.0702,-5.0721,-5.074,-5.072,-5.0757,-5.0756,-5.0738,-5.0739,-5.0816,-5.085,-5.0855,-5.0918,-5.0966,-5.0914,-5.0965,-5.102,-5.1031,-5.0977,-5.0965,-5.0989,-5.1042,-5.1083,-5.1123,-5.117,-5.1189,-5.1189,-5.1193,-5.1232,-5.1245,-5.1291,-5.131,-5.131,-5.1304,-5.1341,-5.1357,-5.1342,-5.1323,-5.1332,-5.1418,-5.1441,-5.1987,-5.2475,-5.3214,-5.4029,-5.4873,-5.5661,-5.6107,-5.6532,-5.6552,-5.6547,-5.6543,-5.6543,-5.6527,-5.6495,-5.6502,-5.6503,-5.6523,-5.6502,-5.6495,-5.6495,-5.65,-4.0752,-4.0787,-4.08,-4.0897,-4.1003,-4.1018,-4.1025,-4.1055,-4.1046,-4.1043,-4.1033,-4.103,-4.1973,-4.3713,-4.5418,-4.6152,-4.6147,-4.6105,-4.6091,-4.6041,-4.5996,-4.5978,-4.5979,-4.5979,-4.5979,-4.5958,-4.5925,-4.5893,-4.5916,-4.5935,-4.5935,-4.5935,-4.5916,-4.5872,-4.5896,-4.5824,-4.581,-4.5781,-4.575,-4.57,-4.5803,-4.6095,-4.6384,-4.6408,-4.7178,-4.7738,-4.8373,-4.8873,-4.9702,-5.001,-5.0587,-5.0664,-5.0683,-5.0683,-5.0683,-5.0683,-5.0664,-5.0664,-5.0702,-5.0643,-5.0642,-5.0622,-5.0661,-5.0643,-5.0664,-5.075,-5.0825,-5.079,-5.0845,-5.0874,-5.0874,-5.0907,-5.0907,-5.0887,-5.0831,-5.0907,-5.0946,-5.0959,-5.0996,-5.1016,-5.1016,-5.1047,-5.1089,-5.1172,-5.12,-5.1209,-5.1226,-5.1242,-5.1284,-5.1317,-5.131,-5.1303,-5.1408,-5.1512,-5.2259,-5.2942,-5.3722,-5.4534,-5.5399,-5.603,-5.6244,-5.6478,-5.6471,-5.6452,-5.6439,-5.6465,-5.6485,-5.6514,-5.6523,-5.6529,-5.6554,-5.6518,-5.6502,-5.6539,-5.6554,-4.1022,-4.1033,-4.1013,-4.1045,-4.1081,-4.1081,-4.1052,-4.0992,-4.0994,-4.0995,-4.1142,-4.1474,-4.2432,-4.3719,-4.5259,-4.6112,-4.6088,-4.6044,-4.6027,-4.5964,-4.5905,-4.588,-4.5893,-4.5867,-4.5854,-4.5805,-4.5838,-4.5761,-4.5658,-4.5673,-4.5692,-4.5805,-4.5824,-4.5805,-4.5771,-4.5761,-4.5731,-4.5599,-4.5473,-4.5534,-4.5803,-4.6302,-4.6743,-4.7223,-4.7876,-4.8644,-4.9279,-4.9702,-5.0164,-5.0293,-5.0605,-5.0584,-5.0358,-5.0399,-5.0377,-5.0339,-5.024,-5.0262,-5.0342,-5.0421,-5.0521,-5.054,-5.05,-5.0478,-5.0519,-5.0586,-5.0587,-5.0587,-5.064,-5.069,-5.0739,-5.0742,-5.0709,-5.0692,-5.069,-5.0758,-5.0805,-5.079,-5.0801,-5.085,-5.0835,-5.0809,-5.087,-5.1011,-5.1089,-5.1111,-5.1132,-5.1162,-5.1172,-5.1201,-5.1152,-5.1111,-5.1208,-5.1452,-5.225,-5.3126,-5.4032,-5.4928,-5.5765,-5.6193,-5.6271,-5.628,-5.626,-5.629,-5.63,-5.633,-5.6339,-5.6445,-5.6548,-5.6509,-5.6494,-5.6509,-5.6533,-5.6553,-5.6553,-4.1043,-4.1103,-4.1103,-4.1041,-4.1019,-4.0994,-4.1015,-4.0986,-4.0984,-4.1019,-4.1312,-4.2495,-4.3221,-4.3961,-4.5159,-4.6018,-4.6007,-4.5933,-4.5929,-4.5905,-4.5835,-4.5814,-4.58,-4.5771,-4.5771,-4.5731,-4.5706,-4.5547,-4.5399,-4.5342,-4.5524,-4.5746,-4.5645,-4.5715,-4.5684,-4.5582,-4.5475,-4.5341,-4.5213,-4.546,-4.5832,-4.6311,-4.6758,-4.7681,-4.8433,-4.9094,-4.9413,-4.9969,-5.0251,-5.0159,-5.0333,-5.0268,-4.9924,-4.9993,-4.9993,-4.9834,-4.9752,-4.9772,-4.9815,-5.0168,-5.0418,-5.0432,-5.0409,-5.039,-5.0409,-5.039,-5.0374,-5.0377,-5.0446,-5.0423,-5.038,-5.0333,-5.0445,-5.0467,-5.0509,-5.0529,-5.0568,-5.0568,-5.0605,-5.0659,-5.0659,-5.0624,-5.0624,-5.0745,-5.0874,-5.0898,-5.0912,-5.0912,-5.0912,-5.0912,-5.0884,-5.0874,-5.0932,-5.1339,-5.2113,-5.3034,-5.4139,-5.4924,-5.5694,-5.5952,-5.6049,-5.6049,-5.6082,-5.6068,-5.6082,-5.6123,-5.6193,-5.6269,-5.6359,-5.6386,-5.6422,-5.6464,-5.6471,-5.6478,-5.6471,-4.1073,-4.1113,-4.1107,-4.1051,-4.0994,-4.1035,-4.1045,-4.0992,-4.0998,-4.1304,-4.1765,-4.2905,-4.3734,-4.4443,-4.5267,-4.5941,-4.5941,-4.5905,-4.588,-4.5867,-4.5827,-4.5737,-4.5677,-4.5596,-4.5547,-4.5457,-4.5399,-4.5338,-4.5203,-4.5082,-4.5104,-4.5206,-4.5246,-4.5227,-4.5206,-4.5244,-4.5137,-4.522,-4.5366,-4.5761,-4.6038,-4.7072,-4.7693,-4.8112,-4.8882,-4.9307,-4.9505,-4.9759,-4.9815,-4.98,-4.9898,-4.9719,-4.9522,-4.9617,-4.9561,-4.9445,-4.9381,-4.939,-4.9457,-4.986,-5.0164,-5.0348,-5.0344,-5.0344,-5.034,-5.0325,-5.0344,-5.0302,-5.0302,-5.0302,-5.0302,-5.0302,-5.0329,-5.0302,-5.0325,-5.0329,-5.0374,-5.0399,-5.0421,-5.0508,-5.0467,-5.0442,-5.0442,-5.0445,-5.0587,-5.0678,-5.0696,-5.0677,-5.0677,-5.0752,-5.0756,-5.0968,-5.1083,-5.1796,-5.2606,-5.3472,-5.432,-5.4975,-5.5611,-5.5727,-5.5863,-5.588,-5.5879,-5.5861,-5.5861,-5.5913,-5.5982,-5.6093,-5.6175,-5.6289,-5.6359,-5.6414,-5.6422,-5.6414,-5.6405,-4.1072,-4.1052,-4.1037,-4.1039,-4.099,-4.1013,-4.0969,-4.094,-4.0874,-4.1325,-4.2094,-4.2966,-4.38,-4.464,-4.5428,-4.5783,-4.5756,-4.5699,-4.5688,-4.5623,-4.5574,-4.5507,-4.5418,-4.5323,-4.5246,-4.5113,-4.5071,-4.5029,-4.4849,-4.4768,-4.4713,-4.4638,-4.4638,-4.4694,-4.4881,-4.4781,-4.4846,-4.5218,-4.5466,-4.6204,-4.6544,-4.7456,-4.8399,-4.856,-4.9163,-4.939,-4.9467,-4.957,-4.9456,-4.9416,-4.9435,-4.9356,-4.9265,-4.9202,-4.9234,-4.9152,-4.9121,-4.9089,-4.9177,-4.9476,-4.9839,-5.0064,-5.0106,-5.0193,-5.0278,-5.0302,-5.0302,-5.0302,-5.0302,-5.0302,-5.0302,-5.0302,-5.0302,-5.0302,-5.0302,-5.0306,-5.0306,-5.0329,-5.0329,-5.0352,-5.0325,-5.0329,-5.0329,-5.0374,-5.0421,-5.0507,-5.0507,-5.0488,-5.0508,-5.0604,-5.0778,-5.1066,-5.1431,-5.2317,-5.3318,-5.3876,-5.4413,-5.5025,-5.5528,-5.5588,-5.5665,-5.5688,-5.5688,-5.5645,-5.5665,-5.5707,-5.5769,-5.5864,-5.6029,-5.6212,-5.6297,-5.6378,-5.6359,-5.6349,-5.6359,-4.1018,-4.0896,-4.0909,-4.0928,-4.094,-4.0843,-4.0819,-4.0784,-4.0681,-4.1089,-4.1932,-4.2869,-4.3714,-4.4461,-4.5317,-4.5549,-4.5536,-4.5379,-4.5285,-4.5285,-4.5246,-4.5142,-4.5061,-4.5001,-4.4935,-4.4919,-4.481,-4.4684,-4.4457,-4.4438,-4.4289,-4.4162,-4.4192,-4.4318,-4.4726,-4.4519,-4.4824,-4.5444,-4.5413,-4.6251,-4.7169,-4.7727,-4.8329,-4.8781,-4.9038,-4.9145,-4.9221,-4.9283,-4.9126,-4.8982,-4.9126,-4.8982,-4.8623,-4.8746,-4.8711,-4.8477,-4.8458,-4.8402,-4.8439,-4.8963,-4.9399,-4.9733,-4.9789,-4.9884,-5.0169,-5.0236,-5.0212,-5.0144,-5.0193,-5.0259,-5.0278,-5.0302,-5.0302,-5.0302,-5.0302,-5.0302,-5.0302,-5.0302,-5.0302,-5.0255,-5.0278,-5.0302,-5.0302,-5.0302,-5.0302,-5.0329,-5.0325,-5.0306,-5.0374,-5.0492,-5.0689,-5.1283,-5.1743,-5.2644,-5.3529,-5.3953,-5.4478,-5.5084,-5.544,-5.5495,-5.5514,-5.5519,-5.547,-5.546,-5.549,-5.5566,-5.5593,-5.5618,-5.5845,-5.6048,-5.6239,-5.6329,-5.6309,-5.6302,-5.6314,-4.089,-4.0829,-4.0781,-4.0762,-4.0733,-4.069,-4.0648,-4.0662,-4.0617,-4.1216,-4.2319,-4.2857,-4.3726,-4.4652,-4.5112,-4.5323,-4.5304,-4.5245,-4.5142,-4.512,-4.5011,-4.4877,-4.4787,-4.4694,-4.4619,-4.4513,-4.4445,-4.4423,-4.4296,-4.4229,-4.4121,-4.4005,-4.3974,-4.4067,-4.4181,-4.4195,-4.447,-4.522,-4.5704,-4.6419,-4.7437,-4.7994,-4.8382,-4.8767,-4.8713,-4.873,-4.8797,-4.8832,-4.8711,-4.8586,-4.8746,-4.8586,-4.8344,-4.8495,-4.8439,-4.8288,-4.8306,-4.8324,-4.8324,-4.8586,-4.8863,-4.9208,-4.9447,-4.9493,-4.9646,-4.9646,-4.9749,-4.9903,-4.9936,-5.0006,-5.0236,-5.0259,-5.0259,-5.0302,-5.0302,-5.0302,-5.0302,-5.0302,-5.0278,-5.0231,-5.0207,-5.0255,-5.0278,-5.0212,-5.0188,-5.0212,-5.0212,-5.0278,-5.0306,-5.0402,-5.0578,-5.1438,-5.2107,-5.2963,-5.3722,-5.4314,-5.4715,-5.5174,-5.5409,-5.5409,-5.5384,-5.5403,-5.5403,-5.5409,-5.5428,-5.5428,-5.549,-5.5547,-5.5686,-5.5865,-5.6059,-5.6218,-5.6246,-5.6259,-5.6317,-4.078,-4.0696,-4.0648,-4.0571,-4.0501,-4.0511,-4.0521,-4.0527,-4.066,-4.1473,-4.2546,-4.2947,-4.3765,-4.4756,-4.5055,-4.5052,-4.5052,-4.491,-4.4862,-4.4838,-4.4726,-4.4591,-4.4476,-4.4421,-4.4318,-4.4207,-4.4165,-4.4116,-4.4116,-4.4036,-4.4005,-4.3942,-4.3947,-4.4151,-4.4276,-4.4471,-4.4753,-4.5568,-4.6258,-4.7052,-4.7774,-4.8237,-4.8476,-4.8532,-4.8438,-4.8401,-4.8363,-4.8324,-4.8324,-4.8324,-4.8324,-4.8324,-4.8324,-4.8306,-4.8286,-4.8267,-4.8229,-4.8208,-4.8187,-4.8169,-4.8458,-4.8725,-4.893,-4.9094,-4.9183,-4.9262,-4.937,-4.9483,-4.9541,-4.9674,-4.9857,-4.9929,-4.9955,-4.9955,-4.9929,-4.9929,-4.9981,-4.9936,-5.0025,-4.9974,-5.0038,-5.0089,-5.0139,-5.0139,-5.0089,-5.0114,-5.0139,-5.0188,-5.0274,-5.0407,-5.0751,-5.1686,-5.2494,-5.3315,-5.4142,-5.4868,-5.5193,-5.5365,-5.5403,-5.5403,-5.5403,-5.5403,-5.5403,-5.5403,-5.5403,-5.5428,-5.5434,-5.5519,-5.5618,-5.5749,-5.5901,-5.6024,-5.6126,-5.6156,-5.619,-4.0718,-4.0511,-4.0496,-4.0399,-4.0327,-4.0358,-4.0342,-4.0349,-4.0995,-4.1689,-4.2408,-4.3346,-4.4079,-4.4668,-4.4795,-4.4795,-4.4745,-4.4541,-4.4477,-4.4393,-4.4345,-4.4237,-4.4207,-4.4128,-4.4079,-4.4067,-4.4023,-4.4055,-4.4005,-4.3974,-4.3942,-4.3934,-4.4017,-4.4317,-4.4635,-4.5137,-4.5524,-4.6262,-4.6779,-4.7499,-4.8182,-4.844,-4.8513,-4.8457,-4.8437,-4.8381,-4.8324,-4.8286,-4.8267,-4.8267,-4.8267,-4.8267,-4.8267,-4.8267,-4.8247,-4.8169,-4.8072,-4.8068,-4.8046,-4.801,-4.805,-4.8269,-4.8346,-4.8713,-4.8899,-4.8881,-4.8971,-4.9048,-4.9094,-4.9145,-4.924,-4.9271,-4.9283,-4.9271,-4.929,-4.9333,-4.9435,-4.9464,-4.9589,-4.9608,-4.9684,-4.9759,-4.9787,-4.9814,-4.9822,-4.9849,-4.9895,-5.0019,-5.0146,-5.0506,-5.1021,-5.219,-5.2959,-5.3677,-5.4441,-5.5122,-5.5326,-5.5403,-5.5403,-5.5403,-5.5403,-5.5403,-5.5403,-5.5403,-5.5403,-5.5403,-5.5409,-5.5465,-5.5547,-5.5665,-5.5748,-5.5846,-5.5938,-5.5938,-5.5956,-4.0523,-4.0425,-4.0323,-4.0234,-4.0157,-4.0078,-4.0078,-4.0232,-4.087,-4.1552,-4.2303,-4.3108,-4.3905,-4.4495,-4.4513,-4.4486,-4.4393,-4.4325,-4.4304,-4.4214,-4.4067,-4.4055,-4.4055,-4.3986,-4.4005,-4.3986,-4.3986,-4.3936,-4.3942,-4.3942,-4.3763,-4.3753,-4.4094,-4.452,-4.5092,-4.5901,-4.6415,-4.682,-4.7132,-4.759,-4.8086,-4.8231,-4.8249,-4.821,-4.8208,-4.8169,-4.8151,-4.8111,-4.8111,-4.8111,-4.8111,-4.8072,-4.8072,-4.8072,-4.8072,-4.8032,-4.8032,-4.801,-4.7988,-4.7966,-4.7907,-4.7888,-4.7951,-4.8057,-4.8243,-4.8391,-4.8458,-4.8586,-4.8657,-4.8709,-4.8813,-4.8881,-4.8829,-4.8829,-4.8847,-4.8949,-4.9011,-4.9043,-4.9126,-4.9196,-4.9246,-4.9309,-4.934,-4.9442,-4.9472,-4.9531,-4.9608,-4.9712,-5.0012,-5.0377,-5.1166,-5.2289,-5.3217,-5.3853,-5.4535,-5.5222,-5.5313,-5.5403,-5.5332,-5.5332,-5.5332,-5.5332,-5.5377,-5.5403,-5.5403,-5.5403,-5.5403,-5.544,-5.5495,-5.5465,-5.5519,-5.564,-5.5748,-5.5748,-5.5769,-4.0139,-4.0041,-3.9958,-3.9873,-3.9845,-4.0167,-4.0216,-4.0231,-4.1076,-4.1968,-4.268,-4.3361,-4.381,-4.4076,-4.406,-4.3918,-4.3791,-4.3675,-4.3693,-4.3873,-4.3809,-4.386,-4.3892,-4.3794,-4.3794,-4.3781,-4.373,-4.3573,-4.3605,-4.3406,-4.3231,-4.3142,-4.3889,-4.4342,-4.4865,-4.5675,-4.6549,-4.6921,-4.7197,-4.7339,-4.7497,-4.7596,-4.7554,-4.7656,-4.7692,-4.7793,-4.7834,-4.7834,-4.7992,-4.7992,-4.7992,-4.7893,-4.7692,-4.7506,-4.7335,-4.723,-4.7186,-4.7142,-4.7115,-4.7133,-4.7299,-4.7452,-4.7482,-4.7608,-4.7772,-4.7984,-4.8111,-4.821,-4.8231,-4.8233,-4.8403,-4.8549,-4.8495,-4.844,-4.8495,-4.8586,-4.8603,-4.8639,-4.8692,-4.8711,-4.88,-4.8834,-4.8919,-4.9015,-4.908,-4.9067,-4.9052,-4.9118,-4.9621,-5.0218,-5.1121,-5.2266,-5.3148,-5.3964,-5.4628,-5.5132,-5.5178,-5.5178,-5.5151,-5.5151,-5.5206,-5.526,-5.526,-5.5332,-5.5403,-5.5377,-5.5332,-5.5377,-5.5409,-5.5377,-5.5351,-5.5446,-5.5547,-5.557,-5.5618,-3.9668,-3.9524,-3.95,-3.9502,-3.9532,-4.0359,-4.0528,-4.0251,-4.1576,-4.2566,-4.3173,-4.3741,-4.3812,-4.3689,-4.3508,-4.3318,-4.3194,-4.3069,-4.314,-4.3419,-4.3318,-4.3406,-4.345,-4.3393,-4.3321,-4.341,-4.3345,-4.3084,-4.296,-4.2847,-4.2693,-4.2414,-4.3315,-4.4086,-4.485,-4.5612,-4.6284,-4.6506,-4.6776,-4.6865,-4.6656,-4.6524,-4.6413,-4.6571,-4.6864,-4.715,-4.7255,-4.7548,-4.7911,-4.7852,-4.7811,-4.7567,-4.7096,-4.6682,-4.6484,-4.6376,-4.6424,-4.6436,-4.6454,-4.6454,-4.6575,-4.6767,-4.6874,-4.716,-4.7425,-4.7717,-4.7888,-4.7929,-4.7951,-4.7933,-4.8075,-4.8114,-4.8114,-4.8075,-4.8114,-4.8153,-4.8212,-4.8194,-4.8251,-4.8307,-4.8345,-4.8383,-4.8402,-4.8513,-4.8657,-4.8586,-4.8605,-4.8641,-4.9171,-4.9926,-5.0973,-5.2137,-5.3297,-5.4132,-5.4522,-5.4912,-5.496,-5.4931,-5.4931,-5.496,-5.5047,-5.5104,-5.514,-5.5187,-5.5206,-5.5279,-5.526,-5.5279,-5.5252,-5.5252,-5.5252,-5.5325,-5.5358,-5.5365,-5.5465,-3.9679,-3.9481,-3.932,-3.9535,-3.9964,-4.0187,-4.0855,-4.1654,-4.1986,-4.2189,-4.2368,-4.2947,-4.3281,-4.314,-4.2978,-4.2829,-4.2698,-4.2544,-4.2621,-4.2736,-4.2754,-4.2829,-4.2848,-4.2778,-4.2778,-4.2736,-4.2673,-4.2541,-4.2426,-4.24,-4.2583,-4.3012,-4.364,-4.4219,-4.4971,-4.5687,-4.6046,-4.5968,-4.595,-4.6275,-4.6371,-4.6383,-4.6413,-4.6383,-4.6542,-4.6513,-4.6671,-4.6936,-4.6827,-4.6671,-4.7026,-4.6811,-4.6415,-4.6217,-4.6154,-4.6145,-4.6005,-4.5935,-4.5968,-4.5918,-4.6059,-4.6318,-4.656,-4.6873,-4.7151,-4.7511,-4.7657,-4.7699,-4.7717,-4.7741,-4.7741,-4.7759,-4.7759,-4.7759,-4.7717,-4.7783,-4.7806,-4.7847,-4.7888,-4.7929,-4.797,-4.797,-4.7992,-4.8053,-4.8192,-4.8231,-4.8231,-4.8379,-4.8991,-4.9713,-5.0618,-5.1847,-5.3502,-5.4333,-5.4591,-5.4597,-5.4565,-5.473,-5.4761,-5.481,-5.4871,-5.4912,-5.4971,-5.499,-5.499,-5.5095,-5.5095,-5.5019,-5.5038,-5.5095,-5.5095,-5.5123,-5.5095,-5.5104,-5.5233,-3.9036,-3.9045,-3.9407,-3.9834,-4.029,-4.0708,-4.1186,-4.1578,-4.192,-4.1913,-4.1854,-4.2517,-4.2792,-4.2621,-4.2501,-4.2262,-4.2139,-4.2032,-4.2115,-4.218,-4.2221,-4.2324,-4.2293,-4.2203,-4.2297,-4.2297,-4.2037,-4.1892,-4.1871,-4.1622,-4.1796,-4.2601,-4.3308,-4.4078,-4.4799,-4.5364,-4.5597,-4.5249,-4.5125,-4.5355,-4.5767,-4.563,-4.5597,-4.5614,-4.5749,-4.5817,-4.6017,-4.6262,-4.631,-4.6098,-4.6196,-4.6059,-4.5758,-4.5527,-4.5389,-4.5369,-4.5388,-4.5442,-4.5442,-4.5494,-4.5563,-4.5784,-4.5909,-4.6012,-4.6376,-4.6707,-4.7151,-4.7258,-4.7657,-4.7699,-4.7699,-4.7717,-4.7717,-4.7717,-4.7699,-4.7741,-4.7741,-4.7783,-4.7783,-4.7783,-4.7824,-4.7824,-4.7847,-4.7847,-4.7951,-4.7951,-4.7911,-4.7911,-4.8547,-4.9435,-5.0349,-5.1355,-5.2939,-5.3846,-5.3924,-5.4033,-5.4123,-5.4281,-5.4519,-5.4584,-5.4565,-5.4711,-5.4791,-5.4791,-5.4822,-5.4931,-5.4931,-5.4841,-5.4871,-5.4979,-5.4979,-5.4931,-5.4901,-5.4871,-5.499,-3.8223,-3.8503,-3.9406,-4.0045,-4.0418,-4.1252,-4.1389,-4.1091,-4.1488,-4.1604,-4.1481,-4.2021,-4.2244,-4.2139,-4.1924,-4.1631,-4.1471,-4.148,-4.1596,-4.1683,-4.1727,-4.1735,-4.1707,-4.1697,-4.1707,-4.1639,-4.1401,-4.1283,-4.1185,-4.1121,-4.1315,-4.1766,-4.2381,-4.32,-4.3934,-4.4443,-4.4814,-4.4686,-4.4575,-4.4463,-4.4423,-4.444,-4.4592,-4.4742,-4.4889,-4.5161,-4.5303,-4.5614,-4.5918,-4.5716,-4.5459,-4.5252,-4.5077,-4.4824,-4.4725,-4.4699,-4.4699,-4.4703,-4.4665,-4.4648,-4.4835,-4.5012,-4.5038,-4.5265,-4.5632,-4.6049,-4.6501,-4.6863,-4.7258,-4.7511,-4.7511,-4.7572,-4.7572,-4.7572,-4.7572,-4.7572,-4.7572,-4.7572,-4.7572,-4.7615,-4.7572,-4.7572,-4.7615,-4.7615,-4.7615,-4.7615,-4.7633,-4.7633,-4.7946,-4.8967,-4.9992,-5.0805,-5.1956,-5.2661,-5.3274,-5.3547,-5.3701,-5.3833,-5.4016,-5.4158,-5.4262,-5.4228,-5.4349,-5.4616,-5.4648,-5.4616,-5.473,-5.4717,-5.478,-5.481,-5.4749,-5.4717,-5.4717,-5.4717,-5.478,-3.8079,-3.8241,-3.8797,-3.9552,-4.0335,-4.0565,-4.0881,-4.1323,-4.1018,-4.0827,-4.072,-4.0737,-4.1065,-4.1569,-4.1335,-4.1169,-4.1169,-4.1076,-4.1012,-4.1088,-4.1071,-4.1071,-4.1036,-4.1076,-4.0849,-4.0772,-4.0789,-4.0662,-4.0771,-4.1034,-4.1528,-4.2189,-4.2686,-4.3394,-4.4052,-4.4367,-4.4253,-4.4121,-4.4064,-4.3948,-4.408,-4.4097,-4.4155,-4.4253,-4.4253,-4.4406,-4.4597,-4.5018,-4.5035,-4.4889,-4.4725,-4.4567,-4.4439,-4.4378,-4.4327,-4.4263,-4.4263,-4.427,-4.427,-4.4286,-4.4463,-4.4463,-4.4586,-4.4856,-4.5161,-4.539,-4.5749,-4.5918,-4.631,-4.6742,-4.6835,-4.6989,-4.7053,-4.7116,-4.716,-4.7205,-4.7223,-4.7223,-4.7223,-4.7223,-4.7223,-4.7223,-4.7205,-4.7205,-4.7205,-4.7223,-4.7267,-4.7285,-4.7411,-4.8497,-4.9629,-5.0386,-5.12,-5.2269,-5.3203,-5.3244,-5.3367,-5.3447,-5.3526,-5.3739,-5.3777,-5.3586,-5.3739,-5.4088,-5.4177,-5.4161,-5.4265,-5.442,-5.4472,-5.4472,-5.4491,-5.4476,-5.451,-5.4557,-5.4622]}]]